Wetterdaten: Dienstag, 14.02.2023
Datum Zeit Temp. 2m Temp +5 cm Feuchte A. Luftdruck Regen Wind Richtung Richtung Sonnenschein UV Solar Taupunkt Windchill Windben
14.02.2023 00:00 -1,8 C -3,9 C 91 % 1037,3 hPa 0,0 l/m 3,2 km/h (1 Bft) O-SO 112 0 min 0,0 UV-I 0 W/m -3,1 C -1,8 C 4,8 km/h (1 Bft)
14.02.2023 00:01 -1,8 C -3,9 C 91 % 1037,4 hPa 0,0 l/m 1,6 km/h (1 Bft) O-SO 112 0 min 0,0 UV-I 0 W/m -3,1 C -1,8 C 3,2 km/h (1 Bft)
14.02.2023 00:02 -1,9 C -3,9 C 91 % 1037,3 hPa 0,0 l/m 1,6 km/h (1 Bft) O-SO 112 0 min 0,0 UV-I 0 W/m -3,2 C -1,9 C 3,2 km/h (1 Bft)
14.02.2023 00:03 -1,9 C -3,9 C 91 % 1037,4 hPa 0,0 l/m 3,2 km/h (1 Bft) O-SO 112 0 min 0,0 UV-I 0 W/m -3,2 C -1,9 C 3,2 km/h (1 Bft)
14.02.2023 00:04 -1,8 C -3,9 C 91 % 1037,4 hPa 0,0 l/m 1,6 km/h (1 Bft) O-SO 112 0 min 0,0 UV-I 0 W/m -3,1 C -1,8 C 3,2 km/h (1 Bft)
14.02.2023 00:05 -1,8 C -3,9 C 91 % 1037,3 hPa 0,0 l/m 0,0 km/h (0 Bft) O-SO 112 0 min 0,0 UV-I 0 W/m -3,1 C -1,8 C 1,6 km/h (1 Bft)
14.02.2023 00:06 -1,8 C -3,9 C 91 % 1037,3 hPa 0,0 l/m 0,0 km/h (0 Bft) O-SO 112 0 min 0,0 UV-I 0 W/m -3,1 C -1,8 C 1,6 km/h (1 Bft)
14.02.2023 00:07 -1,8 C -3,9 C 91 % 1037,4 hPa 0,0 l/m 0,0 km/h (0 Bft) O-SO 112 0 min 0,0 UV-I 0 W/m -3,1 C -1,8 C 1,6 km/h (1 Bft)
14.02.2023 00:08 -1,8 C -3,9 C 91 % 1037,4 hPa 0,0 l/m 0,0 km/h (0 Bft) N 0 0 min 0,0 UV-I 0 W/m -3,1 C -1,8 C 0,0 km/h (0 Bft)
14.02.2023 00:09 -1,8 C -3,9 C 91 % 1037,3 hPa 0,0 l/m 0,0 km/h (0 Bft) O-SO 112 0 min 0,0 UV-I 0 W/m -3,1 C -1,8 C 3,2 km/h (1 Bft)
14.02.2023 00:10 -1,8 C -3,9 C 91 % 1037,3 hPa 0,0 l/m 3,2 km/h (1 Bft) O-SO 112 0 min 0,0 UV-I 0 W/m -3,1 C -1,8 C 4,8 km/h (1 Bft)
14.02.2023 00:11 -1,7 C -3,3 C 91 % 1037,3 hPa 0,0 l/m 3,2 km/h (1 Bft) O-SO 112 0 min 0,0 UV-I 0 W/m -3,0 C -1,7 C 4,8 km/h (1 Bft)
14.02.2023 00:12 -1,7 C -3,9 C 91 % 1037,3 hPa 0,0 l/m 1,6 km/h (1 Bft) O-SO 112 0 min 0,0 UV-I 0 W/m -3,0 C -1,7 C 4,8 km/h (1 Bft)
14.02.2023 00:13 -1,8 C -3,9 C 91 % 1037,3 hPa 0,0 l/m 0,0 km/h (0 Bft) O-SO 112 0 min 0,0 UV-I 0 W/m -3,1 C -1,8 C 1,6 km/h (1 Bft)
14.02.2023 00:14 -2,0 C -3,9 C 90 % 1037,3 hPa 0,0 l/m 1,6 km/h (1 Bft) O-SO 112 0 min 0,0 UV-I 0 W/m -3,4 C -2,0 C 3,2 km/h (1 Bft)
14.02.2023 00:15 -2,1 C -3,9 C 91 % 1037,3 hPa 0,0 l/m 3,2 km/h (1 Bft) SO 135 0 min 0,0 UV-I 0 W/m -3,4 C -2,1 C 4,8 km/h (1 Bft)
14.02.2023 00:16 -2,2 C -3,9 C 91 % 1037,3 hPa 0,0 l/m 1,6 km/h (1 Bft) SO 135 0 min 0,0 UV-I 0 W/m -3,5 C -2,2 C 1,6 km/h (1 Bft)
14.02.2023 00:17 -2,3 C -3,9 C 91 % 1037,4 hPa 0,0 l/m 0,0 km/h (0 Bft) N 0 0 min 0,0 UV-I 0 W/m -3,6 C -2,3 C 0,0 km/h (0 Bft)
14.02.2023 00:18 -2,3 C -3,9 C 91 % 1037,3 hPa 0,0 l/m 0,0 km/h (0 Bft) N 0 0 min 0,0 UV-I 0 W/m -3,6 C -2,3 C 0,0 km/h (0 Bft)
14.02.2023 00:19 -2,3 C -3,9 C 91 % 1037,3 hPa 0,0 l/m 0,0 km/h (0 Bft) N 0 0 min 0,0 UV-I 0 W/m -3,6 C -2,3 C 0,0 km/h (0 Bft)
14.02.2023 00:20 -2,4 C -3,9 C 91 % 1037,3 hPa 0,0 l/m 0,0 km/h (0 Bft) N 0 0 min 0,0 UV-I 0 W/m -3,7 C -2,4 C 0,0 km/h (0 Bft)
14.02.2023 00:21 -2,3 C -3,9 C 91 % 1037,2 hPa 0,0 l/m 0,0 km/h (0 Bft) N 0 0 min 0,0 UV-I 0 W/m -3,6 C -2,3 C 0,0 km/h (0 Bft)
14.02.2023 00:22 -2,3 C -3,9 C 91 % 1037,3 hPa 0,0 l/m 0,0 km/h (0 Bft) N 0 0 min 0,0 UV-I 0 W/m -3,6 C -2,3 C 0,0 km/h (0 Bft)
14.02.2023 00:23 -2,2 C -3,9 C 91 % 1037,3 hPa 0,0 l/m 0,0 km/h (0 Bft) N 0 0 min 0,0 UV-I 0 W/m -3,5 C -2,2 C 0,0 km/h (0 Bft)
14.02.2023 00:24 -2,1 C -3,9 C 91 % 1037,3 hPa 0,0 l/m 0,0 km/h (0 Bft) N 0 0 min 0,0 UV-I 0 W/m -3,4 C -2,1 C 0,0 km/h (0 Bft)
14.02.2023 00:25 -1,9 C -3,9 C 92 % 1037,3 hPa 0,0 l/m 0,0 km/h (0 Bft) N 0 0 min 0,0 UV-I 0 W/m -3,0 C -1,9 C 0,0 km/h (0 Bft)
14.02.2023 00:26 -1,7 C -3,9 C 92 % 1037,3 hPa 0,0 l/m 0,0 km/h (0 Bft) N 0 0 min 0,0 UV-I 0 W/m -2,8 C -1,7 C 0,0 km/h (0 Bft)
14.02.2023 00:27 -1,7 C -3,9 C 92 % 1037,3 hPa 0,0 l/m 0,0 km/h (0 Bft) N 0 0 min 0,0 UV-I 0 W/m -2,8 C -1,7 C 0,0 km/h (0 Bft)
14.02.2023 00:28 -1,5 C -3,9 C 92 % 1037,3 hPa 0,0 l/m 0,0 km/h (0 Bft) N 0 0 min 0,0 UV-I 0 W/m -2,6 C -1,5 C 0,0 km/h (0 Bft)
14.02.2023 00:29 -1,4 C -3,9 C 92 % 1037,4 hPa 0,0 l/m 0,0 km/h (0 Bft) N 0 0 min 0,0 UV-I 0 W/m -2,5 C -1,4 C 0,0 km/h (0 Bft)
14.02.2023 00:30 -1,4 C -3,9 C 92 % 1037,3 hPa 0,0 l/m 0,0 km/h (0 Bft) N 0 0 min 0,0 UV-I 0 W/m -2,5 C -1,4 C 0,0 km/h (0 Bft)
14.02.2023 00:31 -1,4 C -3,3 C 91 % 1037,3 hPa 0,0 l/m 0,0 km/h (0 Bft) N 0 0 min 0,0 UV-I 0 W/m -2,7 C -1,4 C 0,0 km/h (0 Bft)
14.02.2023 00:32 -1,4 C -3,3 C 92 % 1037,4 hPa 0,0 l/m 0,0 km/h (0 Bft) N 0 0 min 0,0 UV-I 0 W/m -2,5 C -1,4 C 0,0 km/h (0 Bft)
14.02.2023 00:33 -1,4 C -3,3 C 92 % 1037,4 hPa 0,0 l/m 0,0 km/h (0 Bft) N 0 0 min 0,0 UV-I 0 W/m -2,5 C -1,4 C 0,0 km/h (0 Bft)
14.02.2023 00:34 -1,4 C -3,9 C 92 % 1037,4 hPa 0,0 l/m 0,0 km/h (0 Bft) N 0 0 min 0,0 UV-I 0 W/m -2,5 C -1,4 C 0,0 km/h (0 Bft)
14.02.2023 00:35 -1,3 C -3,9 C 92 % 1037,3 hPa 0,0 l/m 0,0 km/h (0 Bft) N 0 0 min 0,0 UV-I 0 W/m -2,4 C -1,3 C 0,0 km/h (0 Bft)
14.02.2023 00:36 -1,4 C -3,9 C 92 % 1037,4 hPa 0,0 l/m 0,0 km/h (0 Bft) N 0 0 min 0,0 UV-I 0 W/m -2,5 C -1,4 C 0,0 km/h (0 Bft)
14.02.2023 00:37 -1,5 C -3,9 C 91 % 1037,4 hPa 0,0 l/m 0,0 km/h (0 Bft) N 0 0 min 0,0 UV-I 0 W/m -2,8 C -1,5 C 0,0 km/h (0 Bft)
14.02.2023 00:38 -1,6 C -3,9 C 91 % 1037,5 hPa 0,0 l/m 0,0 km/h (0 Bft) N 0 0 min 0,0 UV-I 0 W/m -2,9 C -1,6 C 0,0 km/h (0 Bft)
14.02.2023 00:39 -1,7 C -3,9 C 91 % 1037,5 hPa 0,0 l/m 0,0 km/h (0 Bft) N 0 0 min 0,0 UV-I 0 W/m -3,0 C -1,7 C 0,0 km/h (0 Bft)
14.02.2023 00:40 -1,8 C -3,9 C 91 % 1037,5 hPa 0,0 l/m 0,0 km/h (0 Bft) N 0 0 min 0,0 UV-I 0 W/m -3,1 C -1,8 C 0,0 km/h (0 Bft)
14.02.2023 00:41 -1,9 C -3,9 C 91 % 1037,5 hPa 0,0 l/m 0,0 km/h (0 Bft) N 0 0 min 0,0 UV-I 0 W/m -3,2 C -1,9 C 0,0 km/h (0 Bft)
14.02.2023 00:42 -2,0 C -3,9 C 91 % 1037,4 hPa 0,0 l/m 0,0 km/h (0 Bft) N 0 0 min 0,0 UV-I 0 W/m -3,3 C -2,0 C 0,0 km/h (0 Bft)
14.02.2023 00:43 -2,1 C -3,9 C 91 % 1037,5 hPa 0,0 l/m 0,0 km/h (0 Bft) N 0 0 min 0,0 UV-I 0 W/m -3,4 C -2,1 C 0,0 km/h (0 Bft)
14.02.2023 00:44 -2,2 C -3,9 C 91 % 1037,6 hPa 0,0 l/m 0,0 km/h (0 Bft) N 0 0 min 0,0 UV-I 0 W/m -3,5 C -2,2 C 0,0 km/h (0 Bft)
14.02.2023 00:45 -2,2 C -3,9 C 91 % 1037,5 hPa 0,0 l/m 0,0 km/h (0 Bft) N 0 0 min 0,0 UV-I 0 W/m -3,5 C -2,2 C 0,0 km/h (0 Bft)
14.02.2023 00:46 -2,2 C -3,9 C 91 % 1037,6 hPa 0,0 l/m 0,0 km/h (0 Bft) N 0 0 min 0,0 UV-I 0 W/m -3,5 C -2,2 C 0,0 km/h (0 Bft)
14.02.2023 00:47 -2,2 C -3,9 C 91 % 1037,6 hPa 0,0 l/m 0,0 km/h (0 Bft) N 0 0 min 0,0 UV-I 0 W/m -3,5 C -2,2 C 0,0 km/h (0 Bft)
14.02.2023 00:48 -2,2 C -3,9 C 91 % 1037,6 hPa 0,0 l/m 0,0 km/h (0 Bft) N 0 0 min 0,0 UV-I 0 W/m -3,5 C -2,2 C 0,0 km/h (0 Bft)
14.02.2023 00:49 -2,2 C -3,9 C 91 % 1037,6 hPa 0,0 l/m 0,0 km/h (0 Bft) N 0 0 min 0,0 UV-I 0 W/m -3,5 C -2,2 C 0,0 km/h (0 Bft)
14.02.2023 00:50 -2,1 C -3,9 C 91 % 1037,6 hPa 0,0 l/m 0,0 km/h (0 Bft) N 0 0 min 0,0 UV-I 0 W/m -3,4 C -2,1 C 0,0 km/h (0 Bft)
14.02.2023 00:51 -2,1 C -3,9 C 92 % 1037,6 hPa 0,0 l/m 0,0 km/h (0 Bft) N 0 0 min 0,0 UV-I 0 W/m -3,2 C -2,1 C 0,0 km/h (0 Bft)
14.02.2023 00:52 -2,1 C -3,9 C 92 % 1037,5 hPa 0,0 l/m 0,0 km/h (0 Bft) N 0 0 min 0,0 UV-I 0 W/m -3,2 C -2,1 C 0,0 km/h (0 Bft)
14.02.2023 00:53 -1,9 C -3,9 C 92 % 1037,6 hPa 0,0 l/m 0,0 km/h (0 Bft) N 0 0 min 0,0 UV-I 0 W/m -3,0 C -1,9 C 0,0 km/h (0 Bft)
14.02.2023 00:54 -1,9 C -3,9 C 92 % 1037,5 hPa 0,0 l/m 0,0 km/h (0 Bft) N 0 0 min 0,0 UV-I 0 W/m -3,0 C -1,9 C 0,0 km/h (0 Bft)
14.02.2023 00:55 -1,8 C -3,9 C 92 % 1037,5 hPa 0,0 l/m 0,0 km/h (0 Bft) N 0 0 min 0,0 UV-I 0 W/m -2,9 C -1,8 C 0,0 km/h (0 Bft)
14.02.2023 00:56 -1,8 C -3,9 C 92 % 1037,4 hPa 0,0 l/m 0,0 km/h (0 Bft) N 0 0 min 0,0 UV-I 0 W/m -2,9 C -1,8 C 0,0 km/h (0 Bft)
14.02.2023 00:57 -1,8 C -3,9 C 92 % 1037,6 hPa 0,0 l/m 0,0 km/h (0 Bft) N 0 0 min 0,0 UV-I 0 W/m -2,9 C -1,8 C 0,0 km/h (0 Bft)
14.02.2023 00:58 -1,8 C -3,9 C 91 % 1037,6 hPa 0,0 l/m 0,0 km/h (0 Bft) N 0 0 min 0,0 UV-I 0 W/m -3,1 C -1,8 C 0,0 km/h (0 Bft)
14.02.2023 00:59 -1,9 C -3,9 C 91 % 1037,5 hPa 0,0 l/m 0,0 km/h (0 Bft) N 0 0 min 0,0 UV-I 0 W/m -3,2 C -1,9 C 0,0 km/h (0 Bft)
14.02.2023 01:00 -1,9 C -3,9 C 91 % 1037,5 hPa 0,0 l/m 0,0 km/h (0 Bft) N 0 0 min 0,0 UV-I 0 W/m -3,2 C -1,9 C 0,0 km/h (0 Bft)
14.02.2023 01:01 -2,0 C -3,9 C 91 % 1037,5 hPa 0,0 l/m 0,0 km/h (0 Bft) N 0 0 min 0,0 UV-I 0 W/m -3,3 C -2,0 C 0,0 km/h (0 Bft)
14.02.2023 01:02 -2,1 C -3,9 C 91 % 1037,5 hPa 0,0 l/m 0,0 km/h (0 Bft) N 0 0 min 0,0 UV-I 0 W/m -3,4 C -2,1 C 0,0 km/h (0 Bft)
14.02.2023 01:03 -2,1 C -3,9 C 91 % 1037,5 hPa 0,0 l/m 0,0 km/h (0 Bft) N 0 0 min 0,0 UV-I 0 W/m -3,4 C -2,1 C 0,0 km/h (0 Bft)
14.02.2023 01:04 -2,1 C -3,9 C 91 % 1037,5 hPa 0,0 l/m 0,0 km/h (0 Bft) N 0 0 min 0,0 UV-I 0 W/m -3,4 C -2,1 C 0,0 km/h (0 Bft)
14.02.2023 01:05 -2,1 C -4,4 C 91 % 1037,5 hPa 0,0 l/m 0,0 km/h (0 Bft) N 0 0 min 0,0 UV-I 0 W/m -3,4 C -2,1 C 0,0 km/h (0 Bft)
14.02.2023 01:06 -2,2 C -4,4 C 91 % 1037,6 hPa 0,0 l/m 0,0 km/h (0 Bft) N 0 0 min 0,0 UV-I 0 W/m -3,5 C -2,2 C 0,0 km/h (0 Bft)
14.02.2023 01:07 -2,2 C -4,4 C 91 % 1037,5 hPa 0,0 l/m 0,0 km/h (0 Bft) N 0 0 min 0,0 UV-I 0 W/m -3,5 C -2,2 C 0,0 km/h (0 Bft)
14.02.2023 01:08 -2,2 C -3,9 C 91 % 1037,5 hPa 0,0 l/m 0,0 km/h (0 Bft) N 0 0 min 0,0 UV-I 0 W/m -3,5 C -2,2 C 0,0 km/h (0 Bft)
14.02.2023 01:09 -2,3 C -3,9 C 91 % 1037,5 hPa 0,0 l/m 0,0 km/h (0 Bft) N 0 0 min 0,0 UV-I 0 W/m -3,6 C -2,3 C 0,0 km/h (0 Bft)
14.02.2023 01:10 -2,3 C -4,4 C 91 % 1037,5 hPa 0,0 l/m 0,0 km/h (0 Bft) N 0 0 min 0,0 UV-I 0 W/m -3,6 C -2,3 C 0,0 km/h (0 Bft)
14.02.2023 01:11 -2,3 C -4,4 C 91 % 1037,5 hPa 0,0 l/m 0,0 km/h (0 Bft) N 0 0 min 0,0 UV-I 0 W/m -3,6 C -2,3 C 0,0 km/h (0 Bft)
14.02.2023 01:12 -2,3 C -4,4 C 91 % 1037,5 hPa 0,0 l/m 0,0 km/h (0 Bft) N 0 0 min 0,0 UV-I 0 W/m -3,6 C -2,3 C 0,0 km/h (0 Bft)
14.02.2023 01:13 -2,3 C -4,4 C 91 % 1037,4 hPa 0,0 l/m 0,0 km/h (0 Bft) N 0 0 min 0,0 UV-I 0 W/m -3,6 C -2,3 C 0,0 km/h (0 Bft)
14.02.2023 01:14 -2,3 C -4,4 C 91 % 1037,5 hPa 0,0 l/m 0,0 km/h (0 Bft) N 0 0 min 0,0 UV-I 0 W/m -3,6 C -2,3 C 0,0 km/h (0 Bft)
14.02.2023 01:15 -2,2 C -4,4 C 91 % 1037,4 hPa 0,0 l/m 0,0 km/h (0 Bft) N 0 0 min 0,0 UV-I 0 W/m -3,5 C -2,2 C 0,0 km/h (0 Bft)
14.02.2023 01:16 -2,2 C -4,4 C 91 % 1037,6 hPa 0,0 l/m 0,0 km/h (0 Bft) N 0 0 min 0,0 UV-I 0 W/m -3,5 C -2,2 C 0,0 km/h (0 Bft)
14.02.2023 01:17 -2,2 C -4,4 C 92 % 1037,5 hPa 0,0 l/m 0,0 km/h (0 Bft) N 0 0 min 0,0 UV-I 0 W/m -3,3 C -2,2 C 0,0 km/h (0 Bft)
14.02.2023 01:18 -2,2 C -4,4 C 91 % 1037,4 hPa 0,0 l/m 0,0 km/h (0 Bft) N 0 0 min 0,0 UV-I 0 W/m -3,5 C -2,2 C 0,0 km/h (0 Bft)
14.02.2023 01:19 -2,2 C -3,9 C 92 % 1037,4 hPa 0,0 l/m 0,0 km/h (0 Bft) N 0 0 min 0,0 UV-I 0 W/m -3,3 C -2,2 C 0,0 km/h (0 Bft)
14.02.2023 01:20 -2,2 C -3,9 C 92 % 1037,4 hPa 0,0 l/m 0,0 km/h (0 Bft) N 0 0 min 0,0 UV-I 0 W/m -3,3 C -2,2 C 0,0 km/h (0 Bft)
14.02.2023 01:21 -2,1 C -3,9 C 92 % 1037,4 hPa 0,0 l/m 0,0 km/h (0 Bft) N 0 0 min 0,0 UV-I 0 W/m -3,2 C -2,1 C 0,0 km/h (0 Bft)
14.02.2023 01:22 -2,1 C -4,4 C 92 % 1037,4 hPa 0,0 l/m 0,0 km/h (0 Bft) N 0 0 min 0,0 UV-I 0 W/m -3,2 C -2,1 C 0,0 km/h (0 Bft)
14.02.2023 01:23 -2,1 C -3,9 C 92 % 1037,5 hPa 0,0 l/m 0,0 km/h (0 Bft) N 0 0 min 0,0 UV-I 0 W/m -3,2 C -2,1 C 0,0 km/h (0 Bft)
14.02.2023 01:24 -2,2 C -4,4 C 92 % 1037,5 hPa 0,0 l/m 0,0 km/h (0 Bft) N 0 0 min 0,0 UV-I 0 W/m -3,3 C -2,2 C 0,0 km/h (0 Bft)
14.02.2023 01:25 -2,2 C -4,4 C 91 % 1037,4 hPa 0,0 l/m 0,0 km/h (0 Bft) N 0 0 min 0,0 UV-I 0 W/m -3,5 C -2,2 C 0,0 km/h (0 Bft)
14.02.2023 01:26 -2,2 C -3,9 C 91 % 1037,4 hPa 0,0 l/m 0,0 km/h (0 Bft) N 0 0 min 0,0 UV-I 0 W/m -3,5 C -2,2 C 0,0 km/h (0 Bft)
14.02.2023 01:27 -2,2 C -4,4 C 91 % 1037,4 hPa 0,0 l/m 0,0 km/h (0 Bft) N 0 0 min 0,0 UV-I 0 W/m -3,5 C -2,2 C 0,0 km/h (0 Bft)
14.02.2023 01:28 -2,2 C -4,4 C 91 % 1037,5 hPa 0,0 l/m 0,0 km/h (0 Bft) N 0 0 min 0,0 UV-I 0 W/m -3,5 C -2,2 C 0,0 km/h (0 Bft)
14.02.2023 01:29 -2,3 C -3,9 C 91 % 1037,4 hPa 0,0 l/m 0,0 km/h (0 Bft) N 0 0 min 0,0 UV-I 0 W/m -3,6 C -2,3 C 0,0 km/h (0 Bft)
14.02.2023 01:30 -2,3 C -4,4 C 91 % 1037,5 hPa 0,0 l/m 0,0 km/h (0 Bft) N 0 0 min 0,0 UV-I 0 W/m -3,6 C -2,3 C 0,0 km/h (0 Bft)
14.02.2023 01:31 -2,3 C -3,9 C 91 % 1037,4 hPa 0,0 l/m 0,0 km/h (0 Bft) N 0 0 min 0,0 UV-I 0 W/m -3,6 C -2,3 C 0,0 km/h (0 Bft)
14.02.2023 01:32 -2,3 C -3,9 C 91 % 1037,4 hPa 0,0 l/m 0,0 km/h (0 Bft) N 0 0 min 0,0 UV-I 0 W/m -3,6 C -2,3 C 0,0 km/h (0 Bft)
14.02.2023 01:33 -2,3 C -3,9 C 91 % 1037,4 hPa 0,0 l/m 0,0 km/h (0 Bft) N 0 0 min 0,0 UV-I 0 W/m -3,6 C -2,3 C 0,0 km/h (0 Bft)
14.02.2023 01:34 -2,2 C -3,9 C 92 % 1037,4 hPa 0,0 l/m 0,0 km/h (0 Bft) N 0 0 min 0,0 UV-I 0 W/m -3,3 C -2,2 C 0,0 km/h (0 Bft)
14.02.2023 01:35 -2,2 C -3,9 C 92 % 1037,4 hPa 0,0 l/m 0,0 km/h (0 Bft) N 0 0 min 0,0 UV-I 0 W/m -3,3 C -2,2 C 0,0 km/h (0 Bft)
14.02.2023 01:36 -2,1 C -3,9 C 92 % 1037,4 hPa 0,0 l/m 0,0 km/h (0 Bft) N 0 0 min 0,0 UV-I 0 W/m -3,2 C -2,1 C 0,0 km/h (0 Bft)
14.02.2023 01:37 -2,1 C -3,9 C 92 % 1037,4 hPa 0,0 l/m 0,0 km/h (0 Bft) N 0 0 min 0,0 UV-I 0 W/m -3,2 C -2,1 C 0,0 km/h (0 Bft)
14.02.2023 01:38 -2,1 C -3,9 C 92 % 1037,3 hPa 0,0 l/m 0,0 km/h (0 Bft) N 0 0 min 0,0 UV-I 0 W/m -3,2 C -2,1 C 0,0 km/h (0 Bft)
14.02.2023 01:39 -2,1 C -3,9 C 92 % 1037,3 hPa 0,0 l/m 0,0 km/h (0 Bft) N 0 0 min 0,0 UV-I 0 W/m -3,2 C -2,1 C 0,0 km/h (0 Bft)
14.02.2023 01:40 -2,1 C -3,9 C 92 % 1037,3 hPa 0,0 l/m 0,0 km/h (0 Bft) N 0 0 min 0,0 UV-I 0 W/m -3,2 C -2,1 C 0,0 km/h (0 Bft)
14.02.2023 01:41 -2,2 C -3,9 C 92 % 1037,2 hPa 0,0 l/m 0,0 km/h (0 Bft) N 0 0 min 0,0 UV-I 0 W/m -3,3 C -2,2 C 0,0 km/h (0 Bft)
14.02.2023 01:42 -2,1 C -3,9 C 92 % 1037,3 hPa 0,0 l/m 0,0 km/h (0 Bft) N 0 0 min 0,0 UV-I 0 W/m -3,2 C -2,1 C 0,0 km/h (0 Bft)
14.02.2023 01:43 -2,2 C -3,9 C 91 % 1037,3 hPa 0,0 l/m 0,0 km/h (0 Bft) N 0 0 min 0,0 UV-I 0 W/m -3,5 C -2,2 C 0,0 km/h (0 Bft)
14.02.2023 01:44 -2,2 C -3,9 C 91 % 1037,3 hPa 0,0 l/m 0,0 km/h (0 Bft) N 0 0 min 0,0 UV-I 0 W/m -3,5 C -2,2 C 0,0 km/h (0 Bft)
14.02.2023 01:45 -2,2 C -3,9 C 91 % 1037,3 hPa 0,0 l/m 0,0 km/h (0 Bft) N 0 0 min 0,0 UV-I 0 W/m -3,5 C -2,2 C 0,0 km/h (0 Bft)
14.02.2023 01:46 -2,2 C -4,4 C 91 % 1037,3 hPa 0,0 l/m 0,0 km/h (0 Bft) N 0 0 min 0,0 UV-I 0 W/m -3,5 C -2,2 C 0,0 km/h (0 Bft)
14.02.2023 01:47 -2,2 C -4,4 C 91 % 1037,4 hPa 0,0 l/m 0,0 km/h (0 Bft) N 0 0 min 0,0 UV-I 0 W/m -3,5 C -2,2 C 0,0 km/h (0 Bft)
14.02.2023 01:48 -2,3 C -4,4 C 91 % 1037,4 hPa 0,0 l/m 0,0 km/h (0 Bft) N 0 0 min 0,0 UV-I 0 W/m -3,6 C -2,3 C 0,0 km/h (0 Bft)
14.02.2023 01:49 -2,3 C -4,4 C 92 % 1037,4 hPa 0,0 l/m 0,0 km/h (0 Bft) N 0 0 min 0,0 UV-I 0 W/m -3,4 C -2,3 C 0,0 km/h (0 Bft)
14.02.2023 01:50 -2,3 C -4,4 C 92 % 1037,3 hPa 0,0 l/m 0,0 km/h (0 Bft) N 0 0 min 0,0 UV-I 0 W/m -3,4 C -2,3 C 0,0 km/h (0 Bft)
14.02.2023 01:51 -2,2 C -4,4 C 92 % 1037,5 hPa 0,0 l/m 0,0 km/h (0 Bft) N 0 0 min 0,0 UV-I 0 W/m -3,3 C -2,2 C 0,0 km/h (0 Bft)
14.02.2023 01:52 -2,2 C -4,4 C 92 % 1037,4 hPa 0,0 l/m 0,0 km/h (0 Bft) N 0 0 min 0,0 UV-I 0 W/m -3,3 C -2,2 C 0,0 km/h (0 Bft)
14.02.2023 01:53 -2,2 C -4,4 C 92 % 1037,4 hPa 0,0 l/m 0,0 km/h (0 Bft) N 0 0 min 0,0 UV-I 0 W/m -3,3 C -2,2 C 0,0 km/h (0 Bft)
14.02.2023 01:54 -2,3 C -4,4 C 92 % 1037,4 hPa 0,0 l/m 0,0 km/h (0 Bft) N 0 0 min 0,0 UV-I 0 W/m -3,4 C -2,3 C 0,0 km/h (0 Bft)
14.02.2023 01:55 -2,3 C -4,4 C 92 % 1037,5 hPa 0,0 l/m 0,0 km/h (0 Bft) N 0 0 min 0,0 UV-I 0 W/m -3,4 C -2,3 C 0,0 km/h (0 Bft)
14.02.2023 01:56 -2,3 C -4,4 C 92 % 1037,5 hPa 0,0 l/m 0,0 km/h (0 Bft) N 0 0 min 0,0 UV-I 0 W/m -3,4 C -2,3 C 0,0 km/h (0 Bft)
14.02.2023 01:57 -2,3 C -4,4 C 92 % 1037,5 hPa 0,0 l/m 0,0 km/h (0 Bft) N 0 0 min 0,0 UV-I 0 W/m -3,4 C -2,3 C 0,0 km/h (0 Bft)
14.02.2023 01:58 -2,4 C -4,4 C 92 % 1037,4 hPa 0,0 l/m 0,0 km/h (0 Bft) N 0 0 min 0,0 UV-I 0 W/m -3,5 C -2,4 C 0,0 km/h (0 Bft)
14.02.2023 01:59 -2,4 C -4,4 C 92 % 1037,5 hPa 0,0 l/m 0,0 km/h (0 Bft) N 0 0 min 0,0 UV-I 0 W/m -3,5 C -2,4 C 0,0 km/h (0 Bft)
14.02.2023 02:00 -2,3 C -4,4 C 92 % 1037,5 hPa 0,0 l/m 0,0 km/h (0 Bft) N 0 0 min 0,0 UV-I 0 W/m -3,4 C -2,3 C 0,0 km/h (0 Bft)
14.02.2023 02:01 -2,3 C -4,4 C 92 % 1037,5 hPa 0,0 l/m 0,0 km/h (0 Bft) N 0 0 min 0,0 UV-I 0 W/m -3,4 C -2,3 C 0,0 km/h (0 Bft)
14.02.2023 02:02 -2,2 C -4,4 C 92 % 1037,5 hPa 0,0 l/m 0,0 km/h (0 Bft) N 0 0 min 0,0 UV-I 0 W/m -3,3 C -2,2 C 0,0 km/h (0 Bft)
14.02.2023 02:03 -2,2 C -4,4 C 92 % 1037,5 hPa 0,0 l/m 0,0 km/h (0 Bft) N 0 0 min 0,0 UV-I 0 W/m -3,3 C -2,2 C 0,0 km/h (0 Bft)
14.02.2023 02:04 -2,2 C -4,4 C 92 % 1037,5 hPa 0,0 l/m 0,0 km/h (0 Bft) N 0 0 min 0,0 UV-I 0 W/m -3,3 C -2,2 C 0,0 km/h (0 Bft)
14.02.2023 02:05 -2,2 C -4,4 C 92 % 1037,4 hPa 0,0 l/m 0,0 km/h (0 Bft) N 0 0 min 0,0 UV-I 0 W/m -3,3 C -2,2 C 0,0 km/h (0 Bft)
14.02.2023 02:06 -2,2 C -4,4 C 92 % 1037,5 hPa 0,0 l/m 0,0 km/h (0 Bft) N 0 0 min 0,0 UV-I 0 W/m -3,3 C -2,2 C 0,0 km/h (0 Bft)
14.02.2023 02:07 -2,2 C -4,4 C 92 % 1037,5 hPa 0,0 l/m 0,0 km/h (0 Bft) N 0 0 min 0,0 UV-I 0 W/m -3,3 C -2,2 C 0,0 km/h (0 Bft)
14.02.2023 02:08 -2,3 C -4,4 C 92 % 1037,6 hPa 0,0 l/m 0,0 km/h (0 Bft) N 0 0 min 0,0 UV-I 0 W/m -3,4 C -2,3 C 0,0 km/h (0 Bft)
14.02.2023 02:09 -2,3 C -4,4 C 92 % 1037,4 hPa 0,0 l/m 0,0 km/h (0 Bft) N 0 0 min 0,0 UV-I 0 W/m -3,4 C -2,3 C 0,0 km/h (0 Bft)
14.02.2023 02:10 -2,3 C -4,4 C 92 % 1037,4 hPa 0,0 l/m 0,0 km/h (0 Bft) N 0 0 min 0,0 UV-I 0 W/m -3,4 C -2,3 C 0,0 km/h (0 Bft)
14.02.2023 02:11 -2,3 C -3,9 C 92 % 1037,5 hPa 0,0 l/m 0,0 km/h (0 Bft) N 0 0 min 0,0 UV-I 0 W/m -3,4 C -2,3 C 0,0 km/h (0 Bft)
14.02.2023 02:12 -2,3 C -3,9 C 92 % 1037,4 hPa 0,0 l/m 0,0 km/h (0 Bft) N 0 0 min 0,0 UV-I 0 W/m -3,4 C -2,3 C 0,0 km/h (0 Bft)
14.02.2023 02:13 -2,2 C -3,9 C 92 % 1037,4 hPa 0,0 l/m 0,0 km/h (0 Bft) N 0 0 min 0,0 UV-I 0 W/m -3,3 C -2,2 C 0,0 km/h (0 Bft)
14.02.2023 02:14 -2,1 C -3,9 C 92 % 1037,4 hPa 0,0 l/m 0,0 km/h (0 Bft) N 0 0 min 0,0 UV-I 0 W/m -3,2 C -2,1 C 0,0 km/h (0 Bft)
14.02.2023 02:15 -2,1 C -3,9 C 92 % 1037,4 hPa 0,0 l/m 0,0 km/h (0 Bft) N 0 0 min 0,0 UV-I 0 W/m -3,2 C -2,1 C 0,0 km/h (0 Bft)
14.02.2023 02:16 -1,9 C -3,9 C 92 % 1037,4 hPa 0,0 l/m 0,0 km/h (0 Bft) N 0 0 min 0,0 UV-I 0 W/m -3,0 C -1,9 C 0,0 km/h (0 Bft)
14.02.2023 02:17 -1,9 C -3,9 C 92 % 1037,5 hPa 0,0 l/m 0,0 km/h (0 Bft) N 0 0 min 0,0 UV-I 0 W/m -3,0 C -1,9 C 0,0 km/h (0 Bft)
14.02.2023 02:18 -1,9 C -4,4 C 92 % 1037,4 hPa 0,0 l/m 0,0 km/h (0 Bft) N 0 0 min 0,0 UV-I 0 W/m -3,0 C -1,9 C 0,0 km/h (0 Bft)
14.02.2023 02:19 -1,8 C -4,4 C 92 % 1037,4 hPa 0,0 l/m 0,0 km/h (0 Bft) N 0 0 min 0,0 UV-I 0 W/m -2,9 C -1,8 C 0,0 km/h (0 Bft)
14.02.2023 02:20 -1,8 C -4,4 C 92 % 1037,4 hPa 0,0 l/m 0,0 km/h (0 Bft) N 0 0 min 0,0 UV-I 0 W/m -2,9 C -1,8 C 0,0 km/h (0 Bft)
14.02.2023 02:21 -1,8 C -4,4 C 92 % 1037,3 hPa 0,0 l/m 0,0 km/h (0 Bft) N 0 0 min 0,0 UV-I 0 W/m -2,9 C -1,8 C 0,0 km/h (0 Bft)
14.02.2023 02:22 -1,8 C -4,4 C 92 % 1037,4 hPa 0,0 l/m 0,0 km/h (0 Bft) N 0 0 min 0,0 UV-I 0 W/m -2,9 C -1,8 C 0,0 km/h (0 Bft)
14.02.2023 02:23 -1,8 C -3,9 C 92 % 1037,4 hPa 0,0 l/m 0,0 km/h (0 Bft) N 0 0 min 0,0 UV-I 0 W/m -2,9 C -1,8 C 0,0 km/h (0 Bft)
14.02.2023 02:24 -1,9 C -3,9 C 92 % 1037,4 hPa 0,0 l/m 0,0 km/h (0 Bft) N 0 0 min 0,0 UV-I 0 W/m -3,0 C -1,9 C 0,0 km/h (0 Bft)
14.02.2023 02:25 -1,9 C -3,9 C 92 % 1037,4 hPa 0,0 l/m 0,0 km/h (0 Bft) N 0 0 min 0,0 UV-I 0 W/m -3,0 C -1,9 C 0,0 km/h (0 Bft)
14.02.2023 02:26 -1,9 C -3,9 C 92 % 1037,4 hPa 0,0 l/m 0,0 km/h (0 Bft) N 0 0 min 0,0 UV-I 0 W/m -3,0 C -1,9 C 0,0 km/h (0 Bft)
14.02.2023 02:27 -2,0 C -3,9 C 92 % 1037,4 hPa 0,0 l/m 0,0 km/h (0 Bft) N 0 0 min 0,0 UV-I 0 W/m -3,1 C -2,0 C 0,0 km/h (0 Bft)
14.02.2023 02:28 -2,1 C -3,9 C 92 % 1037,4 hPa 0,0 l/m 0,0 km/h (0 Bft) N 0 0 min 0,0 UV-I 0 W/m -3,2 C -2,1 C 0,0 km/h (0 Bft)
14.02.2023 02:29 -2,1 C -3,9 C 92 % 1037,3 hPa 0,0 l/m 0,0 km/h (0 Bft) N 0 0 min 0,0 UV-I 0 W/m -3,2 C -2,1 C 0,0 km/h (0 Bft)
14.02.2023 02:30 -2,0 C -3,9 C 92 % 1037,4 hPa 0,0 l/m 0,0 km/h (0 Bft) N 0 0 min 0,0 UV-I 0 W/m -3,1 C -2,0 C 0,0 km/h (0 Bft)
14.02.2023 02:31 -2,0 C -3,9 C 92 % 1037,4 hPa 0,0 l/m 0,0 km/h (0 Bft) N 0 0 min 0,0 UV-I 0 W/m -3,1 C -2,0 C 0,0 km/h (0 Bft)
14.02.2023 02:32 -1,9 C -3,9 C 92 % 1037,3 hPa 0,0 l/m 0,0 km/h (0 Bft) N 0 0 min 0,0 UV-I 0 W/m -3,0 C -1,9 C 0,0 km/h (0 Bft)
14.02.2023 02:33 -1,9 C -3,9 C 92 % 1037,3 hPa 0,0 l/m 0,0 km/h (0 Bft) N 0 0 min 0,0 UV-I 0 W/m -3,0 C -1,9 C 0,0 km/h (0 Bft)
14.02.2023 02:34 -2,0 C -3,9 C 92 % 1037,3 hPa 0,0 l/m 0,0 km/h (0 Bft) N 0 0 min 0,0 UV-I 0 W/m -3,1 C -2,0 C 0,0 km/h (0 Bft)
14.02.2023 02:35 -2,1 C -3,9 C 92 % 1037,3 hPa 0,0 l/m 0,0 km/h (0 Bft) N 0 0 min 0,0 UV-I 0 W/m -3,2 C -2,1 C 0,0 km/h (0 Bft)
14.02.2023 02:36 -2,1 C -3,9 C 92 % 1037,3 hPa 0,0 l/m 0,0 km/h (0 Bft) N 0 0 min 0,0 UV-I 0 W/m -3,2 C -2,1 C 0,0 km/h (0 Bft)
14.02.2023 02:37 -2,1 C -4,4 C 92 % 1037,2 hPa 0,0 l/m 0,0 km/h (0 Bft) N 0 0 min 0,0 UV-I 0 W/m -3,2 C -2,1 C 0,0 km/h (0 Bft)
14.02.2023 02:38 -2,2 C -4,4 C 92 % 1037,2 hPa 0,0 l/m 0,0 km/h (0 Bft) N 0 0 min 0,0 UV-I 0 W/m -3,3 C -2,2 C 0,0 km/h (0 Bft)
14.02.2023 02:39 -2,2 C -4,4 C 92 % 1037,3 hPa 0,0 l/m 0,0 km/h (0 Bft) N 0 0 min 0,0 UV-I 0 W/m -3,3 C -2,2 C 0,0 km/h (0 Bft)
14.02.2023 02:40 -2,3 C -4,4 C 92 % 1037,2 hPa 0,0 l/m 0,0 km/h (0 Bft) N 0 0 min 0,0 UV-I 0 W/m -3,4 C -2,3 C 0,0 km/h (0 Bft)
14.02.2023 02:41 -2,3 C -4,4 C 92 % 1037,2 hPa 0,0 l/m 0,0 km/h (0 Bft) N 0 0 min 0,0 UV-I 0 W/m -3,4 C -2,3 C 0,0 km/h (0 Bft)
14.02.2023 02:42 -2,2 C -4,4 C 92 % 1037,3 hPa 0,0 l/m 0,0 km/h (0 Bft) N 0 0 min 0,0 UV-I 0 W/m -3,3 C -2,2 C 0,0 km/h (0 Bft)
14.02.2023 02:43 -2,2 C -4,4 C 92 % 1037,3 hPa 0,0 l/m 0,0 km/h (0 Bft) N 0 0 min 0,0 UV-I 0 W/m -3,3 C -2,2 C 0,0 km/h (0 Bft)
14.02.2023 02:44 -2,2 C -4,4 C 92 % 1037,2 hPa 0,0 l/m 0,0 km/h (0 Bft) N 0 0 min 0,0 UV-I 0 W/m -3,3 C -2,2 C 0,0 km/h (0 Bft)
14.02.2023 02:45 -2,2 C -4,4 C 92 % 1037,2 hPa 0,0 l/m 0,0 km/h (0 Bft) N 0 0 min 0,0 UV-I 0 W/m -3,3 C -2,2 C 0,0 km/h (0 Bft)
14.02.2023 02:46 -2,2 C -5,0 C 92 % 1037,2 hPa 0,0 l/m 0,0 km/h (0 Bft) N 0 0 min 0,0 UV-I 0 W/m -3,3 C -2,2 C 0,0 km/h (0 Bft)
14.02.2023 02:47 -2,2 C -5,0 C 92 % 1037,3 hPa 0,0 l/m 0,0 km/h (0 Bft) N 0 0 min 0,0 UV-I 0 W/m -3,3 C -2,2 C 0,0 km/h (0 Bft)
14.02.2023 02:48 -2,2 C -5,0 C 92 % 1037,2 hPa 0,0 l/m 0,0 km/h (0 Bft) N 0 0 min 0,0 UV-I 0 W/m -3,3 C -2,2 C 0,0 km/h (0 Bft)
14.02.2023 02:49 -2,2 C -4,4 C 92 % 1037,3 hPa 0,0 l/m 0,0 km/h (0 Bft) N 0 0 min 0,0 UV-I 0 W/m -3,3 C -2,2 C 0,0 km/h (0 Bft)
14.02.2023 02:50 -2,2 C -4,4 C 92 % 1037,2 hPa 0,0 l/m 0,0 km/h (0 Bft) N 0 0 min 0,0 UV-I 0 W/m -3,3 C -2,2 C 0,0 km/h (0 Bft)
14.02.2023 02:51 -2,2 C -4,4 C 92 % 1037,2 hPa 0,0 l/m 0,0 km/h (0 Bft) N 0 0 min 0,0 UV-I 0 W/m -3,3 C -2,2 C 0,0 km/h (0 Bft)
14.02.2023 02:52 -2,2 C -4,4 C 92 % 1037,3 hPa 0,0 l/m 0,0 km/h (0 Bft) N 0 0 min 0,0 UV-I 0 W/m -3,3 C -2,2 C 0,0 km/h (0 Bft)
14.02.2023 02:53 -2,2 C -4,4 C 92 % 1037,2 hPa 0,0 l/m 0,0 km/h (0 Bft) N 0 0 min 0,0 UV-I 0 W/m -3,3 C -2,2 C 0,0 km/h (0 Bft)
14.02.2023 02:54 -2,1 C -4,4 C 92 % 1037,2 hPa 0,0 l/m 0,0 km/h (0 Bft) N 0 0 min 0,0 UV-I 0 W/m -3,2 C -2,1 C 0,0 km/h (0 Bft)
14.02.2023 02:55 -2,1 C -4,4 C 92 % 1037,2 hPa 0,0 l/m 0,0 km/h (0 Bft) N 0 0 min 0,0 UV-I 0 W/m -3,2 C -2,1 C 0,0 km/h (0 Bft)
14.02.2023 02:56 -2,2 C -4,4 C 92 % 1037,2 hPa 0,0 l/m 0,0 km/h (0 Bft) N 0 0 min 0,0 UV-I 0 W/m -3,3 C -2,2 C 0,0 km/h (0 Bft)
14.02.2023 02:57 -2,3 C -4,4 C 92 % 1037,2 hPa 0,0 l/m 0,0 km/h (0 Bft) N 0 0 min 0,0 UV-I 0 W/m -3,4 C -2,3 C 0,0 km/h (0 Bft)
14.02.2023 02:58 -2,4 C -4,4 C 91 % 1037,2 hPa 0,0 l/m 0,0 km/h (0 Bft) N 0 0 min 0,0 UV-I 0 W/m -3,7 C -2,4 C 0,0 km/h (0 Bft)
14.02.2023 02:59 -2,5 C -4,4 C 91 % 1037,2 hPa 0,0 l/m 0,0 km/h (0 Bft) N 0 0 min 0,0 UV-I 0 W/m -3,8 C -2,5 C 0,0 km/h (0 Bft)
14.02.2023 03:00 -2,6 C -4,4 C 91 % 1037,1 hPa 0,0 l/m 0,0 km/h (0 Bft) N 0 0 min 0,0 UV-I 0 W/m -3,9 C -2,6 C 0,0 km/h (0 Bft)
14.02.2023 03:01 -2,7 C -4,4 C 92 % 1037,1 hPa 0,0 l/m 0,0 km/h (0 Bft) N 0 0 min 0,0 UV-I 0 W/m -3,8 C -2,7 C 0,0 km/h (0 Bft)
14.02.2023 03:02 -2,7 C -4,4 C 92 % 1037,2 hPa 0,0 l/m 0,0 km/h (0 Bft) N 0 0 min 0,0 UV-I 0 W/m -3,8 C -2,7 C 0,0 km/h (0 Bft)
14.02.2023 03:03 -2,7 C -4,4 C 92 % 1037,2 hPa 0,0 l/m 0,0 km/h (0 Bft) N 0 0 min 0,0 UV-I 0 W/m -3,8 C -2,7 C 0,0 km/h (0 Bft)
14.02.2023 03:04 -2,7 C -4,4 C 92 % 1037,3 hPa 0,0 l/m 0,0 km/h (0 Bft) N 0 0 min 0,0 UV-I 0 W/m -3,8 C -2,7 C 0,0 km/h (0 Bft)
14.02.2023 03:05 -2,7 C -4,4 C 92 % 1037,2 hPa 0,0 l/m 0,0 km/h (0 Bft) N 0 0 min 0,0 UV-I 0 W/m -3,8 C -2,7 C 0,0 km/h (0 Bft)
14.02.2023 03:06 -2,7 C -4,4 C 92 % 1037,2 hPa 0,0 l/m 0,0 km/h (0 Bft) N 0 0 min 0,0 UV-I 0 W/m -3,8 C -2,7 C 0,0 km/h (0 Bft)
14.02.2023 03:07 -2,7 C -4,4 C 92 % 1037,2 hPa 0,0 l/m 0,0 km/h (0 Bft) N 0 0 min 0,0 UV-I 0 W/m -3,8 C -2,7 C 0,0 km/h (0 Bft)
14.02.2023 03:08 -2,6 C -4,4 C 92 % 1037,2 hPa 0,0 l/m 0,0 km/h (0 Bft) N 0 0 min 0,0 UV-I 0 W/m -3,7 C -2,6 C 0,0 km/h (0 Bft)
14.02.2023 03:09 -2,6 C -4,4 C 92 % 1037,3 hPa 0,0 l/m 0,0 km/h (0 Bft) N 0 0 min 0,0 UV-I 0 W/m -3,7 C -2,6 C 0,0 km/h (0 Bft)
14.02.2023 03:10 -2,6 C -4,4 C 92 % 1037,2 hPa 0,0 l/m 0,0 km/h (0 Bft) N 0 0 min 0,0 UV-I 0 W/m -3,7 C -2,6 C 0,0 km/h (0 Bft)
14.02.2023 03:11 -2,6 C -4,4 C 92 % 1037,1 hPa 0,0 l/m 0,0 km/h (0 Bft) N 0 0 min 0,0 UV-I 0 W/m -3,7 C -2,6 C 0,0 km/h (0 Bft)
14.02.2023 03:12 -2,6 C -4,4 C 92 % 1037,2 hPa 0,0 l/m 0,0 km/h (0 Bft) N 0 0 min 0,0 UV-I 0 W/m -3,7 C -2,6 C 0,0 km/h (0 Bft)
14.02.2023 03:13 -2,6 C -4,4 C 92 % 1037,1 hPa 0,0 l/m 0,0 km/h (0 Bft) N 0 0 min 0,0 UV-I 0 W/m -3,7 C -2,6 C 0,0 km/h (0 Bft)
14.02.2023 03:14 -2,6 C -4,4 C 92 % 1037,1 hPa 0,0 l/m 0,0 km/h (0 Bft) N 0 0 min 0,0 UV-I 0 W/m -3,7 C -2,6 C 0,0 km/h (0 Bft)
14.02.2023 03:15 -2,7 C -4,4 C 92 % 1037,1 hPa 0,0 l/m 0,0 km/h (0 Bft) N 0 0 min 0,0 UV-I 0 W/m -3,8 C -2,7 C 0,0 km/h (0 Bft)
14.02.2023 03:16 -2,7 C -4,4 C 92 % 1037,0 hPa 0,0 l/m 0,0 km/h (0 Bft) N 0 0 min 0,0 UV-I 0 W/m -3,8 C -2,7 C 0,0 km/h (0 Bft)
14.02.2023 03:17 -2,7 C -4,4 C 92 % 1037,1 hPa 0,0 l/m 0,0 km/h (0 Bft) N 0 0 min 0,0 UV-I 0 W/m -3,8 C -2,7 C 0,0 km/h (0 Bft)
14.02.2023 03:18 -2,8 C -4,4 C 92 % 1037,0 hPa 0,0 l/m 0,0 km/h (0 Bft) N 0 0 min 0,0 UV-I 0 W/m -3,9 C -2,8 C 0,0 km/h (0 Bft)
14.02.2023 03:19 -2,7 C -4,4 C 92 % 1037,1 hPa 0,0 l/m 0,0 km/h (0 Bft) N 0 0 min 0,0 UV-I 0 W/m -3,8 C -2,7 C 0,0 km/h (0 Bft)
14.02.2023 03:20 -2,7 C -4,4 C 92 % 1037,2 hPa 0,0 l/m 0,0 km/h (0 Bft) N 0 0 min 0,0 UV-I 0 W/m -3,8 C -2,7 C 0,0 km/h (0 Bft)
14.02.2023 03:21 -2,7 C -4,4 C 92 % 1037,0 hPa 0,0 l/m 0,0 km/h (0 Bft) N 0 0 min 0,0 UV-I 0 W/m -3,8 C -2,7 C 0,0 km/h (0 Bft)
14.02.2023 03:22 -2,7 C -4,4 C 92 % 1037,1 hPa 0,0 l/m 0,0 km/h (0 Bft) N 0 0 min 0,0 UV-I 0 W/m -3,8 C -2,7 C 0,0 km/h (0 Bft)
14.02.2023 03:23 -2,7 C -4,4 C 92 % 1037,0 hPa 0,0 l/m 0,0 km/h (0 Bft) N 0 0 min 0,0 UV-I 0 W/m -3,8 C -2,7 C 0,0 km/h (0 Bft)
14.02.2023 03:24 -2,7 C -4,4 C 92 % 1037,1 hPa 0,0 l/m 0,0 km/h (0 Bft) N 0 0 min 0,0 UV-I 0 W/m -3,8 C -2,7 C 0,0 km/h (0 Bft)
14.02.2023 03:25 -2,9 C -5,0 C 92 % 1037,0 hPa 0,0 l/m 0,0 km/h (0 Bft) N 0 0 min 0,0 UV-I 0 W/m -4,0 C -2,9 C 0,0 km/h (0 Bft)
14.02.2023 03:26 -2,9 C -5,0 C 91 % 1037,1 hPa 0,0 l/m 0,0 km/h (0 Bft) N 0 0 min 0,0 UV-I 0 W/m -4,2 C -2,9 C 0,0 km/h (0 Bft)
14.02.2023 03:27 -2,9 C -5,0 C 92 % 1037,1 hPa 0,0 l/m 0,0 km/h (0 Bft) N 0 0 min 0,0 UV-I 0 W/m -4,0 C -2,9 C 0,0 km/h (0 Bft)
14.02.2023 03:28 -2,9 C -5,0 C 92 % 1037,0 hPa 0,0 l/m 0,0 km/h (0 Bft) N 0 0 min 0,0 UV-I 0 W/m -4,0 C -2,9 C 0,0 km/h (0 Bft)
14.02.2023 03:29 -2,9 C -5,0 C 92 % 1037,0 hPa 0,0 l/m 0,0 km/h (0 Bft) N 0 0 min 0,0 UV-I 0 W/m -4,0 C -2,9 C 0,0 km/h (0 Bft)
14.02.2023 03:30 -2,9 C -5,0 C 92 % 1037,0 hPa 0,0 l/m 0,0 km/h (0 Bft) N 0 0 min 0,0 UV-I 0 W/m -4,0 C -2,9 C 0,0 km/h (0 Bft)
14.02.2023 03:31 -2,9 C -5,0 C 92 % 1037,1 hPa 0,0 l/m 0,0 km/h (0 Bft) N 0 0 min 0,0 UV-I 0 W/m -4,0 C -2,9 C 0,0 km/h (0 Bft)
14.02.2023 03:32 -2,9 C -5,0 C 92 % 1037,1 hPa 0,0 l/m 0,0 km/h (0 Bft) N 0 0 min 0,0 UV-I 0 W/m -4,0 C -2,9 C 0,0 km/h (0 Bft)
14.02.2023 03:33 -2,9 C -5,0 C 92 % 1037,0 hPa 0,0 l/m 0,0 km/h (0 Bft) N 0 0 min 0,0 UV-I 0 W/m -4,0 C -2,9 C 0,0 km/h (0 Bft)
14.02.2023 03:34 -2,9 C -5,0 C 92 % 1036,9 hPa 0,0 l/m 0,0 km/h (0 Bft) N 0 0 min 0,0 UV-I 0 W/m -4,0 C -2,9 C 0,0 km/h (0 Bft)
14.02.2023 03:35 -2,9 C -5,0 C 92 % 1037,0 hPa 0,0 l/m 0,0 km/h (0 Bft) N 0 0 min 0,0 UV-I 0 W/m -4,0 C -2,9 C 0,0 km/h (0 Bft)
14.02.2023 03:36 -2,8 C -5,0 C 92 % 1037,1 hPa 0,0 l/m 0,0 km/h (0 Bft) N 0 0 min 0,0 UV-I 0 W/m -3,9 C -2,8 C 0,0 km/h (0 Bft)
14.02.2023 03:37 -2,8 C -5,0 C 92 % 1037,0 hPa 0,0 l/m 0,0 km/h (0 Bft) N 0 0 min 0,0 UV-I 0 W/m -3,9 C -2,8 C 0,0 km/h (0 Bft)
14.02.2023 03:38 -2,8 C -5,0 C 92 % 1037,0 hPa 0,0 l/m 0,0 km/h (0 Bft) N 0 0 min 0,0 UV-I 0 W/m -3,9 C -2,8 C 0,0 km/h (0 Bft)
14.02.2023 03:39 -2,8 C -5,0 C 92 % 1037,0 hPa 0,0 l/m 0,0 km/h (0 Bft) N 0 0 min 0,0 UV-I 0 W/m -3,9 C -2,8 C 0,0 km/h (0 Bft)
14.02.2023 03:40 -2,7 C -4,4 C 92 % 1037,0 hPa 0,0 l/m 0,0 km/h (0 Bft) N 0 0 min 0,0 UV-I 0 W/m -3,8 C -2,7 C 0,0 km/h (0 Bft)
14.02.2023 03:41 -2,7 C -4,4 C 92 % 1037,0 hPa 0,0 l/m 0,0 km/h (0 Bft) N 0 0 min 0,0 UV-I 0 W/m -3,8 C -2,7 C 0,0 km/h (0 Bft)
14.02.2023 03:42 -2,7 C -4,4 C 92 % 1037,0 hPa 0,0 l/m 0,0 km/h (0 Bft) N 0 0 min 0,0 UV-I 0 W/m -3,8 C -2,7 C 0,0 km/h (0 Bft)
14.02.2023 03:43 -2,7 C -4,4 C 92 % 1037,0 hPa 0,0 l/m 0,0 km/h (0 Bft) N 0 0 min 0,0 UV-I 0 W/m -3,8 C -2,7 C 0,0 km/h (0 Bft)
14.02.2023 03:44 -2,7 C -4,4 C 92 % 1037,0 hPa 0,0 l/m 0,0 km/h (0 Bft) N 0 0 min 0,0 UV-I 0 W/m -3,8 C -2,7 C 0,0 km/h (0 Bft)
14.02.2023 03:45 -2,7 C -4,4 C 92 % 1036,9 hPa 0,0 l/m 0,0 km/h (0 Bft) N 0 0 min 0,0 UV-I 0 W/m -3,8 C -2,7 C 0,0 km/h (0 Bft)
14.02.2023 03:46 -2,6 C -4,4 C 92 % 1036,9 hPa 0,0 l/m 0,0 km/h (0 Bft) N 0 0 min 0,0 UV-I 0 W/m -3,7 C -2,6 C 0,0 km/h (0 Bft)
14.02.2023 03:47 -2,5 C -4,4 C 92 % 1036,8 hPa 0,0 l/m 0,0 km/h (0 Bft) N 0 0 min 0,0 UV-I 0 W/m -3,6 C -2,5 C 0,0 km/h (0 Bft)
14.02.2023 03:48 -2,4 C -4,4 C 92 % 1036,9 hPa 0,0 l/m 0,0 km/h (0 Bft) N 0 0 min 0,0 UV-I 0 W/m -3,5 C -2,4 C 0,0 km/h (0 Bft)
14.02.2023 03:49 -2,4 C -4,4 C 92 % 1036,9 hPa 0,0 l/m 0,0 km/h (0 Bft) N 0 0 min 0,0 UV-I 0 W/m -3,5 C -2,4 C 0,0 km/h (0 Bft)
14.02.2023 03:50 -2,4 C -4,4 C 92 % 1036,9 hPa 0,0 l/m 0,0 km/h (0 Bft) N 0 0 min 0,0 UV-I 0 W/m -3,5 C -2,4 C 0,0 km/h (0 Bft)
14.02.2023 03:51 -2,5 C -4,4 C 92 % 1036,9 hPa 0,0 l/m 0,0 km/h (0 Bft) N 0 0 min 0,0 UV-I 0 W/m -3,6 C -2,5 C 0,0 km/h (0 Bft)
14.02.2023 03:52 -2,6 C -4,4 C 92 % 1036,9 hPa 0,0 l/m 0,0 km/h (0 Bft) N 0 0 min 0,0 UV-I 0 W/m -3,7 C -2,6 C 0,0 km/h (0 Bft)
14.02.2023 03:53 -2,8 C -4,4 C 92 % 1036,9 hPa 0,0 l/m 0,0 km/h (0 Bft) N 0 0 min 0,0 UV-I 0 W/m -3,9 C -2,8 C 0,0 km/h (0 Bft)
14.02.2023 03:54 -2,8 C -4,4 C 91 % 1036,9 hPa 0,0 l/m 0,0 km/h (0 Bft) N 0 0 min 0,0 UV-I 0 W/m -4,1 C -2,8 C 0,0 km/h (0 Bft)
14.02.2023 03:55 -2,8 C -5,0 C 92 % 1036,9 hPa 0,0 l/m 0,0 km/h (0 Bft) N 0 0 min 0,0 UV-I 0 W/m -3,9 C -2,8 C 0,0 km/h (0 Bft)
14.02.2023 03:56 -2,9 C -5,0 C 92 % 1036,9 hPa 0,0 l/m 0,0 km/h (0 Bft) N 0 0 min 0,0 UV-I 0 W/m -4,0 C -2,9 C 0,0 km/h (0 Bft)
14.02.2023 03:57 -2,9 C -5,0 C 92 % 1036,9 hPa 0,0 l/m 0,0 km/h (0 Bft) N 0 0 min 0,0 UV-I 0 W/m -4,0 C -2,9 C 0,0 km/h (0 Bft)
14.02.2023 03:58 -3,1 C -5,0 C 92 % 1036,9 hPa 0,0 l/m 0,0 km/h (0 Bft) N 0 0 min 0,0 UV-I 0 W/m -4,2 C -3,1 C 0,0 km/h (0 Bft)
14.02.2023 03:59 -3,1 C -5,0 C 92 % 1037,0 hPa 0,0 l/m 0,0 km/h (0 Bft) N 0 0 min 0,0 UV-I 0 W/m -4,2 C -3,1 C 0,0 km/h (0 Bft)
14.02.2023 04:00 -3,1 C -5,0 C 92 % 1036,9 hPa 0,0 l/m 0,0 km/h (0 Bft) N 0 0 min 0,0 UV-I 0 W/m -4,2 C -3,1 C 0,0 km/h (0 Bft)
14.02.2023 04:01 -3,1 C -5,0 C 92 % 1037,0 hPa 0,0 l/m 0,0 km/h (0 Bft) N 0 0 min 0,0 UV-I 0 W/m -4,2 C -3,1 C 0,0 km/h (0 Bft)
14.02.2023 04:02 -3,0 C -5,0 C 92 % 1037,0 hPa 0,0 l/m 0,0 km/h (0 Bft) N 0 0 min 0,0 UV-I 0 W/m -4,1 C -3,0 C 0,0 km/h (0 Bft)
14.02.2023 04:03 -3,0 C -5,0 C 92 % 1037,0 hPa 0,0 l/m 0,0 km/h (0 Bft) N 0 0 min 0,0 UV-I 0 W/m -4,1 C -3,0 C 0,0 km/h (0 Bft)
14.02.2023 04:04 -2,9 C -5,0 C 92 % 1036,9 hPa 0,0 l/m 0,0 km/h (0 Bft) N 0 0 min 0,0 UV-I 0 W/m -4,0 C -2,9 C 0,0 km/h (0 Bft)
14.02.2023 04:05 -2,9 C -5,0 C 92 % 1036,9 hPa 0,0 l/m 0,0 km/h (0 Bft) N 0 0 min 0,0 UV-I 0 W/m -4,0 C -2,9 C 0,0 km/h (0 Bft)
14.02.2023 04:06 -2,9 C -4,4 C 92 % 1037,0 hPa 0,0 l/m 0,0 km/h (0 Bft) N 0 0 min 0,0 UV-I 0 W/m -4,0 C -2,9 C 0,0 km/h (0 Bft)
14.02.2023 04:07 -2,8 C -4,4 C 92 % 1037,0 hPa 0,0 l/m 0,0 km/h (0 Bft) N 0 0 min 0,0 UV-I 0 W/m -3,9 C -2,8 C 0,0 km/h (0 Bft)
14.02.2023 04:08 -2,9 C -4,4 C 92 % 1037,1 hPa 0,0 l/m 0,0 km/h (0 Bft) N 0 0 min 0,0 UV-I 0 W/m -4,0 C -2,9 C 0,0 km/h (0 Bft)
14.02.2023 04:09 -2,9 C -4,4 C 92 % 1036,9 hPa 0,0 l/m 0,0 km/h (0 Bft) N 0 0 min 0,0 UV-I 0 W/m -4,0 C -2,9 C 0,0 km/h (0 Bft)
14.02.2023 04:10 -2,8 C -4,4 C 92 % 1037,0 hPa 0,0 l/m 0,0 km/h (0 Bft) N 0 0 min 0,0 UV-I 0 W/m -3,9 C -2,8 C 0,0 km/h (0 Bft)
14.02.2023 04:11 -2,8 C -4,4 C 92 % 1037,0 hPa 0,0 l/m 0,0 km/h (0 Bft) N 0 0 min 0,0 UV-I 0 W/m -3,9 C -2,8 C 0,0 km/h (0 Bft)
14.02.2023 04:12 -2,7 C -4,4 C 92 % 1037,0 hPa 0,0 l/m 0,0 km/h (0 Bft) N 0 0 min 0,0 UV-I 0 W/m -3,8 C -2,7 C 0,0 km/h (0 Bft)
14.02.2023 04:13 -2,7 C -4,4 C 92 % 1037,0 hPa 0,0 l/m 0,0 km/h (0 Bft) N 0 0 min 0,0 UV-I 0 W/m -3,8 C -2,7 C 0,0 km/h (0 Bft)
14.02.2023 04:14 -2,7 C -4,4 C 92 % 1037,0 hPa 0,0 l/m 0,0 km/h (0 Bft) N 0 0 min 0,0 UV-I 0 W/m -3,8 C -2,7 C 0,0 km/h (0 Bft)
14.02.2023 04:15 -2,8 C -4,4 C 92 % 1037,0 hPa 0,0 l/m 0,0 km/h (0 Bft) N 0 0 min 0,0 UV-I 0 W/m -3,9 C -2,8 C 0,0 km/h (0 Bft)
14.02.2023 04:16 -2,8 C -4,4 C 92 % 1036,9 hPa 0,0 l/m 0,0 km/h (0 Bft) N 0 0 min 0,0 UV-I 0 W/m -3,9 C -2,8 C 0,0 km/h (0 Bft)
14.02.2023 04:17 -2,9 C -4,4 C 92 % 1036,9 hPa 0,0 l/m 0,0 km/h (0 Bft) N 0 0 min 0,0 UV-I 0 W/m -4,0 C -2,9 C 0,0 km/h (0 Bft)
14.02.2023 04:18 -3,1 C -4,4 C 92 % 1036,9 hPa 0,0 l/m 0,0 km/h (0 Bft) N 0 0 min 0,0 UV-I 0 W/m -4,2 C -3,1 C 0,0 km/h (0 Bft)
14.02.2023 04:19 -3,1 C -4,4 C 92 % 1037,0 hPa 0,0 l/m 0,0 km/h (0 Bft) N 0 0 min 0,0 UV-I 0 W/m -4,2 C -3,1 C 0,0 km/h (0 Bft)
14.02.2023 04:20 -3,1 C -4,4 C 92 % 1037,0 hPa 0,0 l/m 0,0 km/h (0 Bft) N 0 0 min 0,0 UV-I 0 W/m -4,2 C -3,1 C 0,0 km/h (0 Bft)
14.02.2023 04:21 -3,1 C -4,4 C 92 % 1037,0 hPa 0,0 l/m 0,0 km/h (0 Bft) N 0 0 min 0,0 UV-I 0 W/m -4,2 C -3,1 C 0,0 km/h (0 Bft)
14.02.2023 04:22 -3,1 C -4,4 C 92 % 1037,0 hPa 0,0 l/m 0,0 km/h (0 Bft) N 0 0 min 0,0 UV-I 0 W/m -4,2 C -3,1 C 0,0 km/h (0 Bft)
14.02.2023 04:23 -3,1 C -4,4 C 92 % 1037,0 hPa 0,0 l/m 0,0 km/h (0 Bft) N 0 0 min 0,0 UV-I 0 W/m -4,2 C -3,1 C 0,0 km/h (0 Bft)
14.02.2023 04:24 -3,1 C -4,4 C 92 % 1037,1 hPa 0,0 l/m 0,0 km/h (0 Bft) N 0 0 min 0,0 UV-I 0 W/m -4,2 C -3,1 C 0,0 km/h (0 Bft)
14.02.2023 04:25 -3,1 C -4,4 C 92 % 1037,0 hPa 0,0 l/m 0,0 km/h (0 Bft) N 0 0 min 0,0 UV-I 0 W/m -4,2 C -3,1 C 0,0 km/h (0 Bft)
14.02.2023 04:26 -3,1 C -4,4 C 92 % 1037,0 hPa 0,0 l/m 0,0 km/h (0 Bft) N 0 0 min 0,0 UV-I 0 W/m -4,2 C -3,1 C 0,0 km/h (0 Bft)
14.02.2023 04:27 -3,1 C -4,4 C 92 % 1037,0 hPa 0,0 l/m 0,0 km/h (0 Bft) N 0 0 min 0,0 UV-I 0 W/m -4,2 C -3,1 C 0,0 km/h (0 Bft)
14.02.2023 04:28 -3,1 C -4,4 C 92 % 1037,1 hPa 0,0 l/m 0,0 km/h (0 Bft) N 0 0 min 0,0 UV-I 0 W/m -4,2 C -3,1 C 0,0 km/h (0 Bft)
14.02.2023 04:29 -3,1 C -4,4 C 92 % 1037,0 hPa 0,0 l/m 0,0 km/h (0 Bft) N 0 0 min 0,0 UV-I 0 W/m -4,2 C -3,1 C 0,0 km/h (0 Bft)
14.02.2023 04:30 -3,0 C -4,4 C 92 % 1037,1 hPa 0,0 l/m 0,0 km/h (0 Bft) N 0 0 min 0,0 UV-I 0 W/m -4,1 C -3,0 C 0,0 km/h (0 Bft)
14.02.2023 04:31 -2,9 C -4,4 C 92 % 1037,0 hPa 0,0 l/m 0,0 km/h (0 Bft) N 0 0 min 0,0 UV-I 0 W/m -4,0 C -2,9 C 0,0 km/h (0 Bft)
14.02.2023 04:32 -2,8 C -4,4 C 92 % 1037,0 hPa 0,0 l/m 0,0 km/h (0 Bft) N 0 0 min 0,0 UV-I 0 W/m -3,9 C -2,8 C 0,0 km/h (0 Bft)
14.02.2023 04:33 -2,8 C -4,4 C 92 % 1036,9 hPa 0,0 l/m 0,0 km/h (0 Bft) N 0 0 min 0,0 UV-I 0 W/m -3,9 C -2,8 C 0,0 km/h (0 Bft)
14.02.2023 04:34 -2,9 C -4,4 C 92 % 1037,0 hPa 0,0 l/m 0,0 km/h (0 Bft) N 0 0 min 0,0 UV-I 0 W/m -4,0 C -2,9 C 0,0 km/h (0 Bft)
14.02.2023 04:35 -2,9 C -4,4 C 92 % 1036,9 hPa 0,0 l/m 0,0 km/h (0 Bft) N 0 0 min 0,0 UV-I 0 W/m -4,0 C -2,9 C 0,0 km/h (0 Bft)
14.02.2023 04:36 -3,0 C -4,4 C 92 % 1036,9 hPa 0,0 l/m 0,0 km/h (0 Bft) N 0 0 min 0,0 UV-I 0 W/m -4,1 C -3,0 C 0,0 km/h (0 Bft)
14.02.2023 04:37 -3,1 C -4,4 C 92 % 1036,9 hPa 0,0 l/m 0,0 km/h (0 Bft) N 0 0 min 0,0 UV-I 0 W/m -4,2 C -3,1 C 0,0 km/h (0 Bft)
14.02.2023 04:38 -3,1 C -4,4 C 92 % 1037,0 hPa 0,0 l/m 0,0 km/h (0 Bft) N 0 0 min 0,0 UV-I 0 W/m -4,2 C -3,1 C 0,0 km/h (0 Bft)
14.02.2023 04:39 -3,2 C -4,4 C 92 % 1037,0 hPa 0,0 l/m 0,0 km/h (0 Bft) N 0 0 min 0,0 UV-I 0 W/m -4,3 C -3,2 C 0,0 km/h (0 Bft)
14.02.2023 04:40 -3,2 C -4,4 C 92 % 1036,9 hPa 0,0 l/m 0,0 km/h (0 Bft) N 0 0 min 0,0 UV-I 0 W/m -4,3 C -3,2 C 0,0 km/h (0 Bft)
14.02.2023 04:41 -3,2 C -4,4 C 92 % 1036,9 hPa 0,0 l/m 0,0 km/h (0 Bft) N 0 0 min 0,0 UV-I 0 W/m -4,3 C -3,2 C 0,0 km/h (0 Bft)
14.02.2023 04:42 -3,2 C -4,4 C 92 % 1036,9 hPa 0,0 l/m 0,0 km/h (0 Bft) N 0 0 min 0,0 UV-I 0 W/m -4,3 C -3,2 C 0,0 km/h (0 Bft)
14.02.2023 04:43 -3,2 C -4,4 C 92 % 1036,9 hPa 0,0 l/m 0,0 km/h (0 Bft) N 0 0 min 0,0 UV-I 0 W/m -4,3 C -3,2 C 0,0 km/h (0 Bft)
14.02.2023 04:44 -3,2 C -4,4 C 92 % 1036,9 hPa 0,0 l/m 0,0 km/h (0 Bft) N 0 0 min 0,0 UV-I 0 W/m -4,3 C -3,2 C 0,0 km/h (0 Bft)
14.02.2023 04:45 -3,2 C -4,4 C 92 % 1036,9 hPa 0,0 l/m 0,0 km/h (0 Bft) N 0 0 min 0,0 UV-I 0 W/m -4,3 C -3,2 C 0,0 km/h (0 Bft)
14.02.2023 04:46 -3,2 C -4,4 C 92 % 1036,9 hPa 0,0 l/m 0,0 km/h (0 Bft) N 0 0 min 0,0 UV-I 0 W/m -4,3 C -3,2 C 0,0 km/h (0 Bft)
14.02.2023 04:47 -3,2 C -4,4 C 92 % 1036,9 hPa 0,0 l/m 0,0 km/h (0 Bft) N 0 0 min 0,0 UV-I 0 W/m -4,3 C -3,2 C 0,0 km/h (0 Bft)
14.02.2023 04:48 -3,1 C -4,4 C 92 % 1036,9 hPa 0,0 l/m 0,0 km/h (0 Bft) N 0 0 min 0,0 UV-I 0 W/m -4,2 C -3,1 C 0,0 km/h (0 Bft)
14.02.2023 04:49 -3,1 C -4,4 C 92 % 1037,0 hPa 0,0 l/m 0,0 km/h (0 Bft) N 0 0 min 0,0 UV-I 0 W/m -4,2 C -3,1 C 0,0 km/h (0 Bft)
14.02.2023 04:50 -3,0 C -4,4 C 93 % 1036,9 hPa 0,0 l/m 0,0 km/h (0 Bft) N 0 0 min 0,0 UV-I 0 W/m -4,0 C -3,0 C 0,0 km/h (0 Bft)
14.02.2023 04:51 -3,0 C -4,4 C 93 % 1036,9 hPa 0,0 l/m 0,0 km/h (0 Bft) N 0 0 min 0,0 UV-I 0 W/m -4,0 C -3,0 C 0,0 km/h (0 Bft)
14.02.2023 04:52 -2,9 C -5,0 C 93 % 1036,8 hPa 0,0 l/m 0,0 km/h (0 Bft) N 0 0 min 0,0 UV-I 0 W/m -3,9 C -2,9 C 0,0 km/h (0 Bft)
14.02.2023 04:53 -2,9 C -5,0 C 92 % 1036,9 hPa 0,0 l/m 0,0 km/h (0 Bft) N 0 0 min 0,0 UV-I 0 W/m -4,0 C -2,9 C 0,0 km/h (0 Bft)
14.02.2023 04:54 -2,9 C -5,0 C 92 % 1036,9 hPa 0,0 l/m 0,0 km/h (0 Bft) N 0 0 min 0,0 UV-I 0 W/m -4,0 C -2,9 C 0,0 km/h (0 Bft)
14.02.2023 04:55 -3,0 C -5,0 C 92 % 1036,9 hPa 0,0 l/m 0,0 km/h (0 Bft) N 0 0 min 0,0 UV-I 0 W/m -4,1 C -3,0 C 0,0 km/h (0 Bft)
14.02.2023 04:56 -3,0 C -5,0 C 92 % 1036,9 hPa 0,0 l/m 0,0 km/h (0 Bft) N 0 0 min 0,0 UV-I 0 W/m -4,1 C -3,0 C 0,0 km/h (0 Bft)
14.02.2023 04:57 -3,1 C -5,0 C 92 % 1036,9 hPa 0,0 l/m 0,0 km/h (0 Bft) N 0 0 min 0,0 UV-I 0 W/m -4,2 C -3,1 C 0,0 km/h (0 Bft)
14.02.2023 04:58 -3,1 C -5,0 C 92 % 1036,8 hPa 0,0 l/m 0,0 km/h (0 Bft) N 0 0 min 0,0 UV-I 0 W/m -4,2 C -3,1 C 0,0 km/h (0 Bft)
14.02.2023 04:59 -3,1 C -5,0 C 92 % 1036,9 hPa 0,0 l/m 0,0 km/h (0 Bft) N 0 0 min 0,0 UV-I 0 W/m -4,2 C -3,1 C 0,0 km/h (0 Bft)
14.02.2023 05:00 -3,1 C -5,0 C 92 % 1036,8 hPa 0,0 l/m 0,0 km/h (0 Bft) N 0 0 min 0,0 UV-I 0 W/m -4,2 C -3,1 C 0,0 km/h (0 Bft)
14.02.2023 05:01 -3,2 C -5,0 C 92 % 1036,9 hPa 0,0 l/m 0,0 km/h (0 Bft) N 0 0 min 0,0 UV-I 0 W/m -4,3 C -3,2 C 0,0 km/h (0 Bft)
14.02.2023 05:02 -3,3 C -5,0 C 92 % 1036,9 hPa 0,0 l/m 0,0 km/h (0 Bft) N 0 0 min 0,0 UV-I 0 W/m -4,4 C -3,3 C 0,0 km/h (0 Bft)
14.02.2023 05:03 -3,3 C -5,0 C 92 % 1036,9 hPa 0,0 l/m 0,0 km/h (0 Bft) N 0 0 min 0,0 UV-I 0 W/m -4,4 C -3,3 C 0,0 km/h (0 Bft)
14.02.2023 05:04 -3,4 C -5,0 C 92 % 1037,0 hPa 0,0 l/m 0,0 km/h (0 Bft) N 0 0 min 0,0 UV-I 0 W/m -4,5 C -3,4 C 0,0 km/h (0 Bft)
14.02.2023 05:05 -3,4 C -5,0 C 92 % 1037,0 hPa 0,0 l/m 0,0 km/h (0 Bft) N 0 0 min 0,0 UV-I 0 W/m -4,5 C -3,4 C 0,0 km/h (0 Bft)
14.02.2023 05:06 -3,4 C -5,0 C 92 % 1037,0 hPa 0,0 l/m 0,0 km/h (0 Bft) N 0 0 min 0,0 UV-I 0 W/m -4,5 C -3,4 C 0,0 km/h (0 Bft)
14.02.2023 05:07 -3,4 C -5,0 C 92 % 1036,9 hPa 0,0 l/m 0,0 km/h (0 Bft) N 0 0 min 0,0 UV-I 0 W/m -4,5 C -3,4 C 0,0 km/h (0 Bft)
14.02.2023 05:08 -3,4 C -5,0 C 92 % 1037,0 hPa 0,0 l/m 0,0 km/h (0 Bft) N 0 0 min 0,0 UV-I 0 W/m -4,5 C -3,4 C 0,0 km/h (0 Bft)
14.02.2023 05:09 -3,4 C -5,0 C 92 % 1036,9 hPa 0,0 l/m 0,0 km/h (0 Bft) N 0 0 min 0,0 UV-I 0 W/m -4,5 C -3,4 C 0,0 km/h (0 Bft)
14.02.2023 05:10 -3,4 C -5,0 C 92 % 1037,0 hPa 0,0 l/m 0,0 km/h (0 Bft) N 0 0 min 0,0 UV-I 0 W/m -4,5 C -3,4 C 0,0 km/h (0 Bft)
14.02.2023 05:11 -3,4 C -5,0 C 92 % 1036,9 hPa 0,0 l/m 0,0 km/h (0 Bft) N 0 0 min 0,0 UV-I 0 W/m -4,5 C -3,4 C 0,0 km/h (0 Bft)
14.02.2023 05:12 -3,3 C -5,0 C 92 % 1036,9 hPa 0,0 l/m 0,0 km/h (0 Bft) N 0 0 min 0,0 UV-I 0 W/m -4,4 C -3,3 C 0,0 km/h (0 Bft)
14.02.2023 05:13 -3,4 C -5,0 C 92 % 1037,0 hPa 0,0 l/m 0,0 km/h (0 Bft) N 0 0 min 0,0 UV-I 0 W/m -4,5 C -3,4 C 0,0 km/h (0 Bft)
14.02.2023 05:14 -3,4 C -5,0 C 92 % 1036,9 hPa 0,0 l/m 0,0 km/h (0 Bft) N 0 0 min 0,0 UV-I 0 W/m -4,5 C -3,4 C 0,0 km/h (0 Bft)
14.02.2023 05:15 -3,4 C -5,0 C 92 % 1036,9 hPa 0,0 l/m 0,0 km/h (0 Bft) N 0 0 min 0,0 UV-I 0 W/m -4,5 C -3,4 C 0,0 km/h (0 Bft)
14.02.2023 05:16 -3,4 C -5,0 C 92 % 1037,0 hPa 0,0 l/m 0,0 km/h (0 Bft) N 0 0 min 0,0 UV-I 0 W/m -4,5 C -3,4 C 0,0 km/h (0 Bft)
14.02.2023 05:17 -3,5 C -5,0 C 92 % 1037,0 hPa 0,0 l/m 0,0 km/h (0 Bft) N 0 0 min 0,0 UV-I 0 W/m -4,6 C -3,5 C 0,0 km/h (0 Bft)
14.02.2023 05:18 -3,6 C -5,0 C 92 % 1037,0 hPa 0,0 l/m 0,0 km/h (0 Bft) N 0 0 min 0,0 UV-I 0 W/m -4,7 C -3,6 C 0,0 km/h (0 Bft)
14.02.2023 05:19 -3,6 C -5,0 C 92 % 1037,0 hPa 0,0 l/m 0,0 km/h (0 Bft) N 0 0 min 0,0 UV-I 0 W/m -4,7 C -3,6 C 0,0 km/h (0 Bft)
14.02.2023 05:20 -3,6 C -5,0 C 92 % 1036,9 hPa 0,0 l/m 0,0 km/h (0 Bft) N 0 0 min 0,0 UV-I 0 W/m -4,7 C -3,6 C 0,0 km/h (0 Bft)
14.02.2023 05:21 -3,6 C -5,0 C 92 % 1037,0 hPa 0,0 l/m 0,0 km/h (0 Bft) N 0 0 min 0,0 UV-I 0 W/m -4,7 C -3,6 C 0,0 km/h (0 Bft)
14.02.2023 05:22 -3,6 C -5,0 C 92 % 1036,9 hPa 0,0 l/m 0,0 km/h (0 Bft) N 0 0 min 0,0 UV-I 0 W/m -4,7 C -3,6 C 0,0 km/h (0 Bft)
14.02.2023 05:23 -3,6 C -5,0 C 92 % 1036,9 hPa 0,0 l/m 0,0 km/h (0 Bft) N 0 0 min 0,0 UV-I 0 W/m -4,7 C -3,6 C 0,0 km/h (0 Bft)
14.02.2023 05:24 -3,5 C -5,0 C 92 % 1036,9 hPa 0,0 l/m 0,0 km/h (0 Bft) N 0 0 min 0,0 UV-I 0 W/m -4,6 C -3,5 C 0,0 km/h (0 Bft)
14.02.2023 05:25 -3,4 C -5,0 C 92 % 1036,9 hPa 0,0 l/m 0,0 km/h (0 Bft) N 0 0 min 0,0 UV-I 0 W/m -4,5 C -3,4 C 0,0 km/h (0 Bft)
14.02.2023 05:26 -3,4 C -5,0 C 92 % 1036,9 hPa 0,0 l/m 0,0 km/h (0 Bft) N 0 0 min 0,0 UV-I 0 W/m -4,5 C -3,4 C 0,0 km/h (0 Bft)
14.02.2023 05:27 -3,4 C -5,0 C 92 % 1036,8 hPa 0,0 l/m 0,0 km/h (0 Bft) N 0 0 min 0,0 UV-I 0 W/m -4,5 C -3,4 C 0,0 km/h (0 Bft)
14.02.2023 05:28 -3,4 C -5,0 C 92 % 1036,9 hPa 0,0 l/m 0,0 km/h (0 Bft) N 0 0 min 0,0 UV-I 0 W/m -4,5 C -3,4 C 0,0 km/h (0 Bft)
14.02.2023 05:29 -3,5 C -5,0 C 92 % 1036,9 hPa 0,0 l/m 0,0 km/h (0 Bft) N 0 0 min 0,0 UV-I 0 W/m -4,6 C -3,5 C 0,0 km/h (0 Bft)
14.02.2023 05:30 -3,6 C -5,0 C 92 % 1036,8 hPa 0,0 l/m 0,0 km/h (0 Bft) N 0 0 min 0,0 UV-I 0 W/m -4,7 C -3,6 C 0,0 km/h (0 Bft)
14.02.2023 05:31 -3,6 C -5,0 C 92 % 1036,9 hPa 0,0 l/m 0,0 km/h (0 Bft) N 0 0 min 0,0 UV-I 0 W/m -4,7 C -3,6 C 0,0 km/h (0 Bft)
14.02.2023 05:32 -3,6 C -5,0 C 92 % 1036,9 hPa 0,0 l/m 0,0 km/h (0 Bft) N 0 0 min 0,0 UV-I 0 W/m -4,7 C -3,6 C 0,0 km/h (0 Bft)
14.02.2023 05:33 -3,7 C -4,4 C 92 % 1036,9 hPa 0,0 l/m 0,0 km/h (0 Bft) N 0 0 min 0,0 UV-I 0 W/m -4,8 C -3,7 C 0,0 km/h (0 Bft)
14.02.2023 05:34 -3,7 C -4,4 C 92 % 1036,9 hPa 0,0 l/m 0,0 km/h (0 Bft) N 0 0 min 0,0 UV-I 0 W/m -4,8 C -3,7 C 0,0 km/h (0 Bft)
14.02.2023 05:35 -3,7 C -5,0 C 92 % 1036,9 hPa 0,0 l/m 0,0 km/h (0 Bft) N 0 0 min 0,0 UV-I 0 W/m -4,8 C -3,7 C 0,0 km/h (0 Bft)
14.02.2023 05:36 -3,6 C -5,0 C 92 % 1037,0 hPa 0,0 l/m 0,0 km/h (0 Bft) N 0 0 min 0,0 UV-I 0 W/m -4,7 C -3,6 C 0,0 km/h (0 Bft)
14.02.2023 05:37 -3,6 C -5,0 C 92 % 1036,9 hPa 0,0 l/m 0,0 km/h (0 Bft) N 0 0 min 0,0 UV-I 0 W/m -4,7 C -3,6 C 0,0 km/h (0 Bft)
14.02.2023 05:38 -3,4 C -5,0 C 92 % 1036,9 hPa 0,0 l/m 0,0 km/h (0 Bft) N 0 0 min 0,0 UV-I 0 W/m -4,5 C -3,4 C 0,0 km/h (0 Bft)
14.02.2023 05:39 -3,4 C -5,0 C 92 % 1036,8 hPa 0,0 l/m 0,0 km/h (0 Bft) N 0 0 min 0,0 UV-I 0 W/m -4,5 C -3,4 C 0,0 km/h (0 Bft)
14.02.2023 05:40 -3,3 C -5,0 C 93 % 1036,8 hPa 0,0 l/m 0,0 km/h (0 Bft) N 0 0 min 0,0 UV-I 0 W/m -4,3 C -3,3 C 0,0 km/h (0 Bft)
14.02.2023 05:41 -3,3 C -5,0 C 93 % 1036,9 hPa 0,0 l/m 0,0 km/h (0 Bft) N 0 0 min 0,0 UV-I 0 W/m -4,3 C -3,3 C 0,0 km/h (0 Bft)
14.02.2023 05:42 -3,3 C -4,4 C 93 % 1036,9 hPa 0,0 l/m 0,0 km/h (0 Bft) N 0 0 min 0,0 UV-I 0 W/m -4,3 C -3,3 C 0,0 km/h (0 Bft)
14.02.2023 05:43 -3,3 C -5,0 C 93 % 1036,9 hPa 0,0 l/m 0,0 km/h (0 Bft) N 0 0 min 0,0 UV-I 0 W/m -4,3 C -3,3 C 0,0 km/h (0 Bft)
14.02.2023 05:44 -3,2 C -5,0 C 93 % 1036,9 hPa 0,0 l/m 0,0 km/h (0 Bft) N 0 0 min 0,0 UV-I 0 W/m -4,2 C -3,2 C 0,0 km/h (0 Bft)
14.02.2023 05:45 -3,2 C -5,0 C 93 % 1036,9 hPa 0,0 l/m 0,0 km/h (0 Bft) N 0 0 min 0,0 UV-I 0 W/m -4,2 C -3,2 C 0,0 km/h (0 Bft)
14.02.2023 05:46 -3,1 C -4,4 C 93 % 1036,9 hPa 0,0 l/m 0,0 km/h (0 Bft) N 0 0 min 0,0 UV-I 0 W/m -4,1 C -3,1 C 0,0 km/h (0 Bft)
14.02.2023 05:47 -3,1 C -4,4 C 92 % 1036,9 hPa 0,0 l/m 0,0 km/h (0 Bft) N 0 0 min 0,0 UV-I 0 W/m -4,2 C -3,1 C 0,0 km/h (0 Bft)
14.02.2023 05:48 -3,1 C -4,4 C 92 % 1036,9 hPa 0,0 l/m 0,0 km/h (0 Bft) N 0 0 min 0,0 UV-I 0 W/m -4,2 C -3,1 C 0,0 km/h (0 Bft)
14.02.2023 05:49 -3,1 C -5,0 C 92 % 1036,9 hPa 0,0 l/m 0,0 km/h (0 Bft) N 0 0 min 0,0 UV-I 0 W/m -4,2 C -3,1 C 0,0 km/h (0 Bft)
14.02.2023 05:50 -3,2 C -5,0 C 92 % 1036,9 hPa 0,0 l/m 0,0 km/h (0 Bft) N 0 0 min 0,0 UV-I 0 W/m -4,3 C -3,2 C 0,0 km/h (0 Bft)
14.02.2023 05:51 -3,2 C -5,0 C 92 % 1036,9 hPa 0,0 l/m 0,0 km/h (0 Bft) N 0 0 min 0,0 UV-I 0 W/m -4,3 C -3,2 C 0,0 km/h (0 Bft)
14.02.2023 05:52 -3,2 C -5,0 C 92 % 1036,9 hPa 0,0 l/m 0,0 km/h (0 Bft) N 0 0 min 0,0 UV-I 0 W/m -4,3 C -3,2 C 0,0 km/h (0 Bft)
14.02.2023 05:53 -3,3 C -5,0 C 92 % 1036,9 hPa 0,0 l/m 0,0 km/h (0 Bft) N 0 0 min 0,0 UV-I 0 W/m -4,4 C -3,3 C 0,0 km/h (0 Bft)
14.02.2023 05:54 -3,3 C -5,0 C 92 % 1036,9 hPa 0,0 l/m 0,0 km/h (0 Bft) N 0 0 min 0,0 UV-I 0 W/m -4,4 C -3,3 C 0,0 km/h (0 Bft)
14.02.2023 05:55 -3,4 C -5,0 C 92 % 1036,9 hPa 0,0 l/m 0,0 km/h (0 Bft) N 0 0 min 0,0 UV-I 0 W/m -4,5 C -3,4 C 0,0 km/h (0 Bft)
14.02.2023 05:56 -3,4 C -5,0 C 92 % 1036,9 hPa 0,0 l/m 0,0 km/h (0 Bft) N 0 0 min 0,0 UV-I 0 W/m -4,5 C -3,4 C 0,0 km/h (0 Bft)
14.02.2023 05:57 -3,4 C -5,0 C 92 % 1036,8 hPa 0,0 l/m 0,0 km/h (0 Bft) N 0 0 min 0,0 UV-I 0 W/m -4,5 C -3,4 C 0,0 km/h (0 Bft)
14.02.2023 05:58 -3,4 C -4,4 C 92 % 1036,8 hPa 0,0 l/m 0,0 km/h (0 Bft) N 0 0 min 0,0 UV-I 0 W/m -4,5 C -3,4 C 0,0 km/h (0 Bft)
14.02.2023 05:59 -3,4 C -4,4 C 92 % 1036,9 hPa 0,0 l/m 0,0 km/h (0 Bft) N 0 0 min 0,0 UV-I 0 W/m -4,5 C -3,4 C 0,0 km/h (0 Bft)
14.02.2023 06:00 -3,4 C -4,4 C 92 % 1036,9 hPa 0,0 l/m 0,0 km/h (0 Bft) N 0 0 min 0,0 UV-I 0 W/m -4,5 C -3,4 C 0,0 km/h (0 Bft)
14.02.2023 06:01 -3,3 C -4,4 C 92 % 1036,8 hPa 0,0 l/m 0,0 km/h (0 Bft) N 0 0 min 0,0 UV-I 0 W/m -4,4 C -3,3 C 0,0 km/h (0 Bft)
14.02.2023 06:02 -3,3 C -4,4 C 92 % 1036,9 hPa 0,0 l/m 0,0 km/h (0 Bft) N 0 0 min 0,0 UV-I 0 W/m -4,4 C -3,3 C 0,0 km/h (0 Bft)
14.02.2023 06:03 -3,2 C -4,4 C 92 % 1036,8 hPa 0,0 l/m 0,0 km/h (0 Bft) N 0 0 min 0,0 UV-I 0 W/m -4,3 C -3,2 C 0,0 km/h (0 Bft)
14.02.2023 06:04 -3,2 C -5,0 C 93 % 1036,8 hPa 0,0 l/m 0,0 km/h (0 Bft) N 0 0 min 0,0 UV-I 0 W/m -4,2 C -3,2 C 0,0 km/h (0 Bft)
14.02.2023 06:05 -3,3 C -5,0 C 92 % 1036,8 hPa 0,0 l/m 0,0 km/h (0 Bft) N 0 0 min 0,0 UV-I 0 W/m -4,4 C -3,3 C 0,0 km/h (0 Bft)
14.02.2023 06:06 -3,4 C -5,0 C 92 % 1036,8 hPa 0,0 l/m 0,0 km/h (0 Bft) N 0 0 min 0,0 UV-I 0 W/m -4,5 C -3,4 C 0,0 km/h (0 Bft)
14.02.2023 06:07 -3,4 C -5,0 C 92 % 1036,9 hPa 0,0 l/m 0,0 km/h (0 Bft) N 0 0 min 0,0 UV-I 0 W/m -4,5 C -3,4 C 0,0 km/h (0 Bft)
14.02.2023 06:08 -3,5 C -5,0 C 92 % 1036,8 hPa 0,0 l/m 0,0 km/h (0 Bft) N 0 0 min 0,0 UV-I 0 W/m -4,6 C -3,5 C 0,0 km/h (0 Bft)
14.02.2023 06:09 -3,6 C -5,0 C 92 % 1036,8 hPa 0,0 l/m 0,0 km/h (0 Bft) N 0 0 min 0,0 UV-I 0 W/m -4,7 C -3,6 C 0,0 km/h (0 Bft)
14.02.2023 06:10 -3,6 C -5,0 C 92 % 1036,8 hPa 0,0 l/m 0,0 km/h (0 Bft) N 0 0 min 0,0 UV-I 0 W/m -4,7 C -3,6 C 0,0 km/h (0 Bft)
14.02.2023 06:11 -3,6 C -5,0 C 92 % 1036,9 hPa 0,0 l/m 0,0 km/h (0 Bft) N 0 0 min 0,0 UV-I 0 W/m -4,7 C -3,6 C 0,0 km/h (0 Bft)
14.02.2023 06:12 -3,7 C -5,0 C 92 % 1036,9 hPa 0,0 l/m 0,0 km/h (0 Bft) N 0 0 min 0,0 UV-I 0 W/m -4,8 C -3,7 C 0,0 km/h (0 Bft)
14.02.2023 06:13 -3,7 C -5,6 C 92 % 1036,8 hPa 0,0 l/m 0,0 km/h (0 Bft) N 0 0 min 0,0 UV-I 0 W/m -4,8 C -3,7 C 0,0 km/h (0 Bft)
14.02.2023 06:14 -3,7 C -5,6 C 92 % 1036,9 hPa 0,0 l/m 0,0 km/h (0 Bft) N 0 0 min 0,0 UV-I 0 W/m -4,8 C -3,7 C 0,0 km/h (0 Bft)
14.02.2023 06:15 -3,8 C -5,6 C 92 % 1036,9 hPa 0,0 l/m 0,0 km/h (0 Bft) N 0 0 min 0,0 UV-I 0 W/m -4,9 C -3,8 C 0,0 km/h (0 Bft)
14.02.2023 06:16 -3,9 C -5,6 C 92 % 1036,9 hPa 0,0 l/m 0,0 km/h (0 Bft) N 0 0 min 0,0 UV-I 0 W/m -5,0 C -3,9 C 0,0 km/h (0 Bft)
14.02.2023 06:17 -3,9 C -5,6 C 92 % 1036,9 hPa 0,0 l/m 0,0 km/h (0 Bft) N 0 0 min 0,0 UV-I 0 W/m -5,0 C -3,9 C 0,0 km/h (0 Bft)
14.02.2023 06:18 -3,9 C -5,6 C 92 % 1036,9 hPa 0,0 l/m 0,0 km/h (0 Bft) N 0 0 min 0,0 UV-I 0 W/m -5,0 C -3,9 C 0,0 km/h (0 Bft)
14.02.2023 06:19 -4,0 C -5,6 C 92 % 1036,9 hPa 0,0 l/m 0,0 km/h (0 Bft) N 0 0 min 0,0 UV-I 0 W/m -5,1 C -4,0 C 0,0 km/h (0 Bft)
14.02.2023 06:20 -4,0 C -5,6 C 92 % 1036,9 hPa 0,0 l/m 0,0 km/h (0 Bft) N 0 0 min 0,0 UV-I 0 W/m -5,1 C -4,0 C 0,0 km/h (0 Bft)
14.02.2023 06:21 -4,0 C -5,6 C 92 % 1036,9 hPa 0,0 l/m 0,0 km/h (0 Bft) N 0 0 min 0,0 UV-I 0 W/m -5,1 C -4,0 C 0,0 km/h (0 Bft)
14.02.2023 06:22 -3,9 C -5,0 C 92 % 1036,8 hPa 0,0 l/m 0,0 km/h (0 Bft) N 0 0 min 0,0 UV-I 0 W/m -5,0 C -3,9 C 0,0 km/h (0 Bft)
14.02.2023 06:23 -4,0 C -5,0 C 92 % 1036,9 hPa 0,0 l/m 0,0 km/h (0 Bft) N 0 0 min 0,0 UV-I 0 W/m -5,1 C -4,0 C 0,0 km/h (0 Bft)
14.02.2023 06:24 -3,9 C -5,0 C 92 % 1036,8 hPa 0,0 l/m 0,0 km/h (0 Bft) N 0 0 min 0,0 UV-I 0 W/m -5,0 C -3,9 C 0,0 km/h (0 Bft)
14.02.2023 06:25 -3,9 C -5,0 C 92 % 1036,8 hPa 0,0 l/m 0,0 km/h (0 Bft) N 0 0 min 0,0 UV-I 0 W/m -5,0 C -3,9 C 0,0 km/h (0 Bft)
14.02.2023 06:26 -3,9 C -5,0 C 92 % 1036,9 hPa 0,0 l/m 0,0 km/h (0 Bft) N 0 0 min 0,0 UV-I 0 W/m -5,0 C -3,9 C 0,0 km/h (0 Bft)
14.02.2023 06:27 -3,9 C -5,0 C 92 % 1036,9 hPa 0,0 l/m 0,0 km/h (0 Bft) N 0 0 min 0,0 UV-I 0 W/m -5,0 C -3,9 C 0,0 km/h (0 Bft)
14.02.2023 06:28 -3,9 C -5,0 C 92 % 1036,9 hPa 0,0 l/m 0,0 km/h (0 Bft) N 0 0 min 0,0 UV-I 0 W/m -5,0 C -3,9 C 0,0 km/h (0 Bft)
14.02.2023 06:29 -3,8 C -5,0 C 92 % 1036,9 hPa 0,0 l/m 0,0 km/h (0 Bft) N 0 0 min 0,0 UV-I 0 W/m -4,9 C -3,8 C 0,0 km/h (0 Bft)
14.02.2023 06:30 -3,8 C -5,0 C 92 % 1036,9 hPa 0,0 l/m 0,0 km/h (0 Bft) N 0 0 min 0,0 UV-I 0 W/m -4,9 C -3,8 C 0,0 km/h (0 Bft)
14.02.2023 06:31 -3,8 C -5,0 C 92 % 1036,9 hPa 0,0 l/m 0,0 km/h (0 Bft) N 0 0 min 0,0 UV-I 0 W/m -4,9 C -3,8 C 0,0 km/h (0 Bft)
14.02.2023 06:32 -3,7 C -5,0 C 92 % 1036,8 hPa 0,0 l/m 0,0 km/h (0 Bft) N 0 0 min 0,0 UV-I 0 W/m -4,8 C -3,7 C 0,0 km/h (0 Bft)
14.02.2023 06:33 -3,7 C -5,0 C 92 % 1036,8 hPa 0,0 l/m 0,0 km/h (0 Bft) N 0 0 min 0,0 UV-I 0 W/m -4,8 C -3,7 C 0,0 km/h (0 Bft)
14.02.2023 06:34 -3,7 C -5,0 C 92 % 1036,8 hPa 0,0 l/m 0,0 km/h (0 Bft) N 0 0 min 0,0 UV-I 0 W/m -4,8 C -3,7 C 0,0 km/h (0 Bft)
14.02.2023 06:35 -3,8 C -5,0 C 92 % 1036,8 hPa 0,0 l/m 0,0 km/h (0 Bft) N 0 0 min 0,0 UV-I 0 W/m -4,9 C -3,8 C 0,0 km/h (0 Bft)
14.02.2023 06:36 -3,8 C -5,0 C 92 % 1036,8 hPa 0,0 l/m 0,0 km/h (0 Bft) N 0 0 min 0,0 UV-I 0 W/m -4,9 C -3,8 C 0,0 km/h (0 Bft)
14.02.2023 06:37 -3,8 C -5,0 C 92 % 1036,8 hPa 0,0 l/m 0,0 km/h (0 Bft) N 0 0 min 0,0 UV-I 0 W/m -4,9 C -3,8 C 0,0 km/h (0 Bft)
14.02.2023 06:38 -3,8 C -5,0 C 92 % 1036,8 hPa 0,0 l/m 0,0 km/h (0 Bft) N 0 0 min 0,0 UV-I 0 W/m -4,9 C -3,8 C 0,0 km/h (0 Bft)
14.02.2023 06:39 -3,8 C -5,0 C 92 % 1036,8 hPa 0,0 l/m 0,0 km/h (0 Bft) N 0 0 min 0,0 UV-I 0 W/m -4,9 C -3,8 C 0,0 km/h (0 Bft)
14.02.2023 06:40 -3,8 C -5,6 C 92 % 1036,8 hPa 0,0 l/m 0,0 km/h (0 Bft) N 0 0 min 0,0 UV-I 0 W/m -4,9 C -3,8 C 0,0 km/h (0 Bft)
14.02.2023 06:41 -3,8 C -5,6 C 92 % 1036,8 hPa 0,0 l/m 0,0 km/h (0 Bft) N 0 0 min 0,0 UV-I 0 W/m -4,9 C -3,8 C 0,0 km/h (0 Bft)
14.02.2023 06:42 -3,9 C -5,0 C 92 % 1036,8 hPa 0,0 l/m 0,0 km/h (0 Bft) N 0 0 min 0,0 UV-I 0 W/m -5,0 C -3,9 C 0,0 km/h (0 Bft)
14.02.2023 06:43 -3,9 C -5,0 C 92 % 1036,8 hPa 0,0 l/m 0,0 km/h (0 Bft) N 0 0 min 0,0 UV-I 0 W/m -5,0 C -3,9 C 0,0 km/h (0 Bft)
14.02.2023 06:44 -3,8 C -5,0 C 92 % 1036,8 hPa 0,0 l/m 0,0 km/h (0 Bft) N 0 0 min 0,0 UV-I 0 W/m -4,9 C -3,8 C 0,0 km/h (0 Bft)
14.02.2023 06:45 -3,9 C -5,0 C 92 % 1036,8 hPa 0,0 l/m 0,0 km/h (0 Bft) N 0 0 min 0,0 UV-I 0 W/m -5,0 C -3,9 C 0,0 km/h (0 Bft)
14.02.2023 06:46 -3,9 C -5,0 C 92 % 1036,8 hPa 0,0 l/m 0,0 km/h (0 Bft) N 0 0 min 0,0 UV-I 0 W/m -5,0 C -3,9 C 0,0 km/h (0 Bft)
14.02.2023 06:47 -3,9 C -5,0 C 92 % 1036,8 hPa 0,0 l/m 0,0 km/h (0 Bft) N 0 0 min 0,0 UV-I 0 W/m -5,0 C -3,9 C 0,0 km/h (0 Bft)
14.02.2023 06:48 -3,9 C -5,6 C 92 % 1036,7 hPa 0,0 l/m 0,0 km/h (0 Bft) N 0 0 min 0,0 UV-I 0 W/m -5,0 C -3,9 C 0,0 km/h (0 Bft)
14.02.2023 06:49 -3,9 C -5,6 C 92 % 1036,7 hPa 0,0 l/m 0,0 km/h (0 Bft) N 0 0 min 0,0 UV-I 0 W/m -5,0 C -3,9 C 0,0 km/h (0 Bft)
14.02.2023 06:50 -3,9 C -5,6 C 92 % 1036,8 hPa 0,0 l/m 0,0 km/h (0 Bft) N 0 0 min 0,0 UV-I 0 W/m -5,0 C -3,9 C 0,0 km/h (0 Bft)
14.02.2023 06:51 -3,9 C -5,6 C 92 % 1036,8 hPa 0,0 l/m 0,0 km/h (0 Bft) N 0 0 min 0,0 UV-I 0 W/m -5,0 C -3,9 C 0,0 km/h (0 Bft)
14.02.2023 06:52 -4,0 C -5,6 C 92 % 1036,8 hPa 0,0 l/m 0,0 km/h (0 Bft) N 0 0 min 0,0 UV-I 0 W/m -5,1 C -4,0 C 0,0 km/h (0 Bft)
14.02.2023 06:53 -3,9 C -5,6 C 92 % 1036,8 hPa 0,0 l/m 0,0 km/h (0 Bft) N 0 0 min 0,0 UV-I 0 W/m -5,0 C -3,9 C 0,0 km/h (0 Bft)
14.02.2023 06:54 -3,9 C -5,6 C 92 % 1036,9 hPa 0,0 l/m 0,0 km/h (0 Bft) N 0 0 min 0,0 UV-I 0 W/m -5,0 C -3,9 C 0,0 km/h (0 Bft)
14.02.2023 06:55 -4,0 C -5,6 C 92 % 1036,8 hPa 0,0 l/m 0,0 km/h (0 Bft) N 0 0 min 0,0 UV-I 0 W/m -5,1 C -4,0 C 0,0 km/h (0 Bft)
14.02.2023 06:56 -4,0 C -5,6 C 92 % 1036,8 hPa 0,0 l/m 0,0 km/h (0 Bft) N 0 0 min 0,0 UV-I 0 W/m -5,1 C -4,0 C 0,0 km/h (0 Bft)
14.02.2023 06:57 -4,1 C -5,6 C 92 % 1036,8 hPa 0,0 l/m 0,0 km/h (0 Bft) N 0 0 min 0,0 UV-I 0 W/m -5,2 C -4,1 C 0,0 km/h (0 Bft)
14.02.2023 06:58 -4,0 C -5,6 C 92 % 1036,8 hPa 0,0 l/m 0,0 km/h (0 Bft) N 0 0 min 0,0 UV-I 0 W/m -5,1 C -4,0 C 0,0 km/h (0 Bft)
14.02.2023 06:59 -4,1 C -5,6 C 92 % 1036,8 hPa 0,0 l/m 0,0 km/h (0 Bft) N 0 0 min 0,0 UV-I 0 W/m -5,2 C -4,1 C 0,0 km/h (0 Bft)
14.02.2023 07:00 -4,0 C -5,6 C 92 % 1036,7 hPa 0,0 l/m 0,0 km/h (0 Bft) N 0 0 min 0,0 UV-I 0 W/m -5,1 C -4,0 C 0,0 km/h (0 Bft)
14.02.2023 07:01 -4,0 C -5,6 C 92 % 1036,7 hPa 0,0 l/m 0,0 km/h (0 Bft) N 0 0 min 0,0 UV-I 0 W/m -5,1 C -4,0 C 0,0 km/h (0 Bft)
14.02.2023 07:02 -4,0 C -5,6 C 92 % 1036,7 hPa 0,0 l/m 0,0 km/h (0 Bft) N 0 0 min 0,0 UV-I 0 W/m -5,1 C -4,0 C 0,0 km/h (0 Bft)
14.02.2023 07:03 -4,1 C -5,6 C 92 % 1036,7 hPa 0,0 l/m 0,0 km/h (0 Bft) N 0 0 min 0,0 UV-I 0 W/m -5,2 C -4,1 C 0,0 km/h (0 Bft)
14.02.2023 07:04 -4,1 C -5,6 C 91 % 1036,7 hPa 0,0 l/m 0,0 km/h (0 Bft) N 0 0 min 0,0 UV-I 0 W/m -5,3 C -4,1 C 0,0 km/h (0 Bft)
14.02.2023 07:05 -4,2 C -5,6 C 91 % 1036,8 hPa 0,0 l/m 0,0 km/h (0 Bft) N 0 0 min 0,0 UV-I 0 W/m -5,4 C -4,2 C 0,0 km/h (0 Bft)
14.02.2023 07:06 -4,2 C -5,6 C 91 % 1036,8 hPa 0,0 l/m 0,0 km/h (0 Bft) N 0 0 min 0,0 UV-I 0 W/m -5,4 C -4,2 C 0,0 km/h (0 Bft)
14.02.2023 07:07 -4,3 C -5,6 C 91 % 1036,8 hPa 0,0 l/m 0,0 km/h (0 Bft) N 0 0 min 0,0 UV-I 0 W/m -5,5 C -4,3 C 0,0 km/h (0 Bft)
14.02.2023 07:08 -4,3 C -5,6 C 92 % 1036,8 hPa 0,0 l/m 0,0 km/h (0 Bft) N 0 0 min 0,0 UV-I 0 W/m -5,4 C -4,3 C 0,0 km/h (0 Bft)
14.02.2023 07:09 -4,3 C -5,6 C 92 % 1036,7 hPa 0,0 l/m 0,0 km/h (0 Bft) N 0 0 min 0,0 UV-I 0 W/m -5,4 C -4,3 C 0,0 km/h (0 Bft)
14.02.2023 07:10 -4,4 C -5,6 C 92 % 1036,9 hPa 0,0 l/m 0,0 km/h (0 Bft) N 0 0 min 0,0 UV-I 0 W/m -5,5 C -4,4 C 0,0 km/h (0 Bft)
14.02.2023 07:11 -4,3 C -5,6 C 92 % 1036,8 hPa 0,0 l/m 0,0 km/h (0 Bft) N 0 0 min 0,0 UV-I 0 W/m -5,4 C -4,3 C 0,0 km/h (0 Bft)
14.02.2023 07:12 -4,3 C -5,6 C 92 % 1036,7 hPa 0,0 l/m 0,0 km/h (0 Bft) N 0 0 min 0,0 UV-I 0 W/m -5,4 C -4,3 C 0,0 km/h (0 Bft)
14.02.2023 07:13 -4,3 C -5,6 C 92 % 1036,8 hPa 0,0 l/m 0,0 km/h (0 Bft) N 0 0 min 0,0 UV-I 0 W/m -5,4 C -4,3 C 0,0 km/h (0 Bft)
14.02.2023 07:14 -4,3 C -5,6 C 92 % 1036,8 hPa 0,0 l/m 0,0 km/h (0 Bft) N 0 0 min 0,0 UV-I 0 W/m -5,4 C -4,3 C 0,0 km/h (0 Bft)
14.02.2023 07:15 -4,2 C -5,6 C 92 % 1036,8 hPa 0,0 l/m 0,0 km/h (0 Bft) N 0 0 min 0,0 UV-I 0 W/m -5,3 C -4,2 C 0,0 km/h (0 Bft)
14.02.2023 07:16 -4,2 C -6,1 C 92 % 1036,9 hPa 0,0 l/m 0,0 km/h (0 Bft) N 0 0 min 0,0 UV-I 0 W/m -5,3 C -4,2 C 0,0 km/h (0 Bft)
14.02.2023 07:17 -4,3 C -5,6 C 92 % 1036,8 hPa 0,0 l/m 0,0 km/h (0 Bft) N 0 0 min 0,0 UV-I 0 W/m -5,4 C -4,3 C 0,0 km/h (0 Bft)
14.02.2023 07:18 -4,3 C -6,1 C 92 % 1036,8 hPa 0,0 l/m 0,0 km/h (0 Bft) N 0 0 min 0,0 UV-I 0 W/m -5,4 C -4,3 C 0,0 km/h (0 Bft)
14.02.2023 07:19 -4,3 C -6,1 C 92 % 1036,8 hPa 0,0 l/m 0,0 km/h (0 Bft) N 0 0 min 0,0 UV-I 0 W/m -5,4 C -4,3 C 0,0 km/h (0 Bft)
14.02.2023 07:20 -4,3 C -6,1 C 92 % 1036,8 hPa 0,0 l/m 0,0 km/h (0 Bft) N 0 0 min 0,0 UV-I 0 W/m -5,4 C -4,3 C 0,0 km/h (0 Bft)
14.02.2023 07:21 -4,3 C -6,1 C 92 % 1036,9 hPa 0,0 l/m 0,0 km/h (0 Bft) N 0 0 min 0,0 UV-I 0 W/m -5,4 C -4,3 C 0,0 km/h (0 Bft)
14.02.2023 07:22 -4,3 C -6,1 C 92 % 1036,8 hPa 0,0 l/m 0,0 km/h (0 Bft) N 0 0 min 0,0 UV-I 0 W/m -5,4 C -4,3 C 0,0 km/h (0 Bft)
14.02.2023 07:23 -4,3 C -6,1 C 92 % 1036,8 hPa 0,0 l/m 0,0 km/h (0 Bft) N 0 0 min 0,0 UV-I 0 W/m -5,4 C -4,3 C 0,0 km/h (0 Bft)
14.02.2023 07:24 -4,3 C -5,6 C 92 % 1036,8 hPa 0,0 l/m 0,0 km/h (0 Bft) N 0 0 min 0,0 UV-I 0 W/m -5,4 C -4,3 C 0,0 km/h (0 Bft)
14.02.2023 07:25 -4,2 C -5,6 C 92 % 1036,8 hPa 0,0 l/m 0,0 km/h (0 Bft) N 0 0 min 0,0 UV-I 0 W/m -5,3 C -4,2 C 0,0 km/h (0 Bft)
14.02.2023 07:26 -4,2 C -5,6 C 92 % 1036,8 hPa 0,0 l/m 0,0 km/h (0 Bft) N 0 0 min 0,0 UV-I 0 W/m -5,3 C -4,2 C 0,0 km/h (0 Bft)
14.02.2023 07:27 -4,1 C -5,6 C 92 % 1036,9 hPa 0,0 l/m 0,0 km/h (0 Bft) N 0 0 min 0,0 UV-I 0 W/m -5,2 C -4,1 C 0,0 km/h (0 Bft)
14.02.2023 07:28 -4,0 C -5,6 C 92 % 1036,9 hPa 0,0 l/m 0,0 km/h (0 Bft) N 0 0 min 0,0 UV-I 0 W/m -5,1 C -4,0 C 0,0 km/h (0 Bft)
14.02.2023 07:29 -4,0 C -5,6 C 92 % 1036,8 hPa 0,0 l/m 0,0 km/h (0 Bft) N 0 0 min 0,0 UV-I 0 W/m -5,1 C -4,0 C 0,0 km/h (0 Bft)
14.02.2023 07:30 -3,9 C -5,6 C 92 % 1036,9 hPa 0,0 l/m 0,0 km/h (0 Bft) N 0 0 min 0,0 UV-I 0 W/m -5,0 C -3,9 C 0,0 km/h (0 Bft)
14.02.2023 07:31 -3,9 C -5,6 C 92 % 1036,9 hPa 0,0 l/m 0,0 km/h (0 Bft) N 0 0 min 0,0 UV-I 0 W/m -5,0 C -3,9 C 0,0 km/h (0 Bft)
14.02.2023 07:32 -3,9 C -5,6 C 92 % 1036,8 hPa 0,0 l/m 0,0 km/h (0 Bft) N 0 0 min 0,0 UV-I 0 W/m -5,0 C -3,9 C 0,0 km/h (0 Bft)
14.02.2023 07:33 -3,9 C -5,6 C 92 % 1036,8 hPa 0,0 l/m 0,0 km/h (0 Bft) N 0 0 min 0,0 UV-I 0 W/m -5,0 C -3,9 C 0,0 km/h (0 Bft)
14.02.2023 07:34 -3,9 C -6,1 C 92 % 1036,8 hPa 0,0 l/m 0,0 km/h (0 Bft) N 0 0 min 0,0 UV-I 0 W/m -5,0 C -3,9 C 0,0 km/h (0 Bft)
14.02.2023 07:35 -3,9 C -6,1 C 92 % 1036,8 hPa 0,0 l/m 0,0 km/h (0 Bft) N 0 0 min 0,0 UV-I 0 W/m -5,0 C -3,9 C 0,0 km/h (0 Bft)
14.02.2023 07:36 -3,8 C -6,1 C 92 % 1036,8 hPa 0,0 l/m 0,0 km/h (0 Bft) N 0 0 min 0,0 UV-I 0 W/m -4,9 C -3,8 C 0,0 km/h (0 Bft)
14.02.2023 07:37 -3,9 C -5,6 C 92 % 1036,8 hPa 0,0 l/m 0,0 km/h (0 Bft) N 0 0 min 0,0 UV-I 0 W/m -5,0 C -3,9 C 0,0 km/h (0 Bft)
14.02.2023 07:38 -3,9 C -6,1 C 92 % 1036,8 hPa 0,0 l/m 0,0 km/h (0 Bft) N 0 0 min 0,0 UV-I 0 W/m -5,0 C -3,9 C 0,0 km/h (0 Bft)
14.02.2023 07:39 -3,9 C -6,1 C 92 % 1036,8 hPa 0,0 l/m 0,0 km/h (0 Bft) N 0 0 min 0,0 UV-I 0 W/m -5,0 C -3,9 C 0,0 km/h (0 Bft)
14.02.2023 07:40 -3,9 C -6,1 C 92 % 1036,9 hPa 0,0 l/m 0,0 km/h (0 Bft) N 0 0 min 0,0 UV-I 0 W/m -5,0 C -3,9 C 0,0 km/h (0 Bft)
14.02.2023 07:41 -3,9 C -5,6 C 92 % 1036,9 hPa 0,0 l/m 0,0 km/h (0 Bft) N 0 0 min 0,0 UV-I 0 W/m -5,0 C -3,9 C 0,0 km/h (0 Bft)
14.02.2023 07:42 -3,9 C -5,6 C 92 % 1036,8 hPa 0,0 l/m 0,0 km/h (0 Bft) N 0 0 min 0,0 UV-I 0 W/m -5,0 C -3,9 C 0,0 km/h (0 Bft)
14.02.2023 07:43 -3,9 C -5,6 C 92 % 1036,8 hPa 0,0 l/m 0,0 km/h (0 Bft) N 0 0 min 0,0 UV-I 0 W/m -5,0 C -3,9 C 0,0 km/h (0 Bft)
14.02.2023 07:44 -3,9 C -5,6 C 92 % 1036,7 hPa 0,0 l/m 0,0 km/h (0 Bft) N 0 0 min 0,0 UV-I 0 W/m -5,0 C -3,9 C 0,0 km/h (0 Bft)
14.02.2023 07:45 -3,9 C -5,6 C 92 % 1036,8 hPa 0,0 l/m 0,0 km/h (0 Bft) N 0 0 min 0,0 UV-I 0 W/m -5,0 C -3,9 C 0,0 km/h (0 Bft)
14.02.2023 07:46 -3,9 C -5,6 C 92 % 1036,8 hPa 0,0 l/m 0,0 km/h (0 Bft) N 0 0 min 0,0 UV-I 0 W/m -5,0 C -3,9 C 0,0 km/h (0 Bft)
14.02.2023 07:47 -3,9 C -5,6 C 92 % 1036,7 hPa 0,0 l/m 0,0 km/h (0 Bft) N 0 0 min 0,0 UV-I 0 W/m -5,0 C -3,9 C 0,0 km/h (0 Bft)
14.02.2023 07:48 -3,8 C -5,6 C 92 % 1036,8 hPa 0,0 l/m 0,0 km/h (0 Bft) N 0 0 min 0,0 UV-I 0 W/m -4,9 C -3,8 C 0,0 km/h (0 Bft)
14.02.2023 07:49 -3,8 C -5,6 C 92 % 1036,8 hPa 0,0 l/m 0,0 km/h (0 Bft) N 0 0 min 0,0 UV-I 0 W/m -4,9 C -3,8 C 0,0 km/h (0 Bft)
14.02.2023 07:50 -3,8 C -5,6 C 92 % 1036,8 hPa 0,0 l/m 0,0 km/h (0 Bft) N 0 0 min 0,0 UV-I 5 W/m -4,9 C -3,8 C 0,0 km/h (0 Bft)
14.02.2023 07:51 -3,8 C -5,6 C 92 % 1036,8 hPa 0,0 l/m 0,0 km/h (0 Bft) N 0 0 min 0,0 UV-I 5 W/m -4,9 C -3,8 C 0,0 km/h (0 Bft)
14.02.2023 07:52 -3,8 C -5,6 C 92 % 1036,8 hPa 0,0 l/m 0,0 km/h (0 Bft) N 0 0 min 0,0 UV-I 5 W/m -4,9 C -3,8 C 0,0 km/h (0 Bft)
14.02.2023 07:53 -3,9 C -5,6 C 92 % 1036,9 hPa 0,0 l/m 0,0 km/h (0 Bft) N 0 0 min 0,0 UV-I 5 W/m -5,0 C -3,9 C 0,0 km/h (0 Bft)
14.02.2023 07:54 -3,9 C -5,6 C 92 % 1036,8 hPa 0,0 l/m 0,0 km/h (0 Bft) N 0 0 min 0,0 UV-I 5 W/m -5,0 C -3,9 C 0,0 km/h (0 Bft)
14.02.2023 07:55 -3,9 C -5,6 C 92 % 1036,8 hPa 0,0 l/m 0,0 km/h (0 Bft) N 0 0 min 0,0 UV-I 5 W/m -5,0 C -3,9 C 0,0 km/h (0 Bft)
14.02.2023 07:56 -3,9 C -5,6 C 92 % 1036,8 hPa 0,0 l/m 0,0 km/h (0 Bft) N 0 0 min 0,0 UV-I 5 W/m -5,0 C -3,9 C 0,0 km/h (0 Bft)
14.02.2023 07:57 -3,9 C -5,6 C 92 % 1036,8 hPa 0,0 l/m 0,0 km/h (0 Bft) N 0 0 min 0,0 UV-I 7 W/m -5,0 C -3,9 C 0,0 km/h (0 Bft)
14.02.2023 07:58 -3,9 C -5,6 C 92 % 1036,8 hPa 0,0 l/m 0,0 km/h (0 Bft) N 0 0 min 0,0 UV-I 7 W/m -5,0 C -3,9 C 0,0 km/h (0 Bft)
14.02.2023 07:59 -3,9 C -5,6 C 92 % 1036,9 hPa 0,0 l/m 0,0 km/h (0 Bft) N 0 0 min 0,0 UV-I 7 W/m -5,0 C -3,9 C 0,0 km/h (0 Bft)
14.02.2023 08:00 -3,9 C -5,6 C 92 % 1036,8 hPa 0,0 l/m 0,0 km/h (0 Bft) N 0 0 min 0,0 UV-I 7 W/m -5,0 C -3,9 C 0,0 km/h (0 Bft)
14.02.2023 08:01 -3,9 C -5,6 C 92 % 1036,8 hPa 0,0 l/m 0,0 km/h (0 Bft) N 0 0 min 0,0 UV-I 7 W/m -5,0 C -3,9 C 0,0 km/h (0 Bft)
14.02.2023 08:02 -3,9 C -5,6 C 92 % 1036,8 hPa 0,0 l/m 0,0 km/h (0 Bft) N 0 0 min 0,0 UV-I 7 W/m -5,0 C -3,9 C 0,0 km/h (0 Bft)
14.02.2023 08:03 -3,9 C -5,6 C 92 % 1036,8 hPa 0,0 l/m 0,0 km/h (0 Bft) N 0 0 min 0,0 UV-I 9 W/m -5,0 C -3,9 C 0,0 km/h (0 Bft)
14.02.2023 08:04 -3,9 C -5,6 C 92 % 1036,8 hPa 0,0 l/m 0,0 km/h (0 Bft) N 0 0 min 0,0 UV-I 9 W/m -5,0 C -3,9 C 0,0 km/h (0 Bft)
14.02.2023 08:05 -3,9 C -5,6 C 92 % 1036,9 hPa 0,0 l/m 0,0 km/h (0 Bft) N 0 0 min 0,0 UV-I 9 W/m -5,0 C -3,9 C 0,0 km/h (0 Bft)
14.02.2023 08:06 -3,9 C -5,6 C 92 % 1036,9 hPa 0,0 l/m 0,0 km/h (0 Bft) N 0 0 min 0,0 UV-I 9 W/m -5,0 C -3,9 C 0,0 km/h (0 Bft)
14.02.2023 08:07 -3,9 C -5,6 C 92 % 1036,9 hPa 0,0 l/m 0,0 km/h (0 Bft) N 0 0 min 0,0 UV-I 9 W/m -5,0 C -3,9 C 0,0 km/h (0 Bft)
14.02.2023 08:08 -3,8 C -5,6 C 92 % 1036,8 hPa 0,0 l/m 0,0 km/h (0 Bft) N 0 0 min 0,0 UV-I 11 W/m -4,9 C -3,8 C 0,0 km/h (0 Bft)
14.02.2023 08:09 -3,8 C -5,6 C 92 % 1036,8 hPa 0,0 l/m 0,0 km/h (0 Bft) N 0 0 min 0,0 UV-I 11 W/m -4,9 C -3,8 C 0,0 km/h (0 Bft)
14.02.2023 08:10 -3,8 C -5,6 C 92 % 1036,8 hPa 0,0 l/m 0,0 km/h (0 Bft) N 0 0 min 0,0 UV-I 11 W/m -4,9 C -3,8 C 0,0 km/h (0 Bft)
14.02.2023 08:11 -3,8 C -5,6 C 92 % 1036,8 hPa 0,0 l/m 0,0 km/h (0 Bft) N 0 0 min 0,0 UV-I 11 W/m -4,9 C -3,8 C 0,0 km/h (0 Bft)
14.02.2023 08:12 -3,9 C -5,6 C 92 % 1036,8 hPa 0,0 l/m 0,0 km/h (0 Bft) N 0 0 min 0,0 UV-I 11 W/m -5,0 C -3,9 C 0,0 km/h (0 Bft)
14.02.2023 08:13 -4,0 C -5,6 C 92 % 1036,8 hPa 0,0 l/m 0,0 km/h (0 Bft) N 0 0 min 0,0 UV-I 12 W/m -5,1 C -4,0 C 0,0 km/h (0 Bft)
14.02.2023 08:14 -4,1 C -5,0 C 92 % 1036,8 hPa 0,0 l/m 0,0 km/h (0 Bft) N 0 0 min 0,0 UV-I 12 W/m -5,2 C -4,1 C 0,0 km/h (0 Bft)
14.02.2023 08:15 -4,1 C -5,6 C 92 % 1036,8 hPa 0,0 l/m 0,0 km/h (0 Bft) N 0 0 min 0,0 UV-I 12 W/m -5,2 C -4,1 C 0,0 km/h (0 Bft)
14.02.2023 08:16 -4,2 C -5,6 C 91 % 1036,9 hPa 0,0 l/m 0,0 km/h (0 Bft) N 0 0 min 0,0 UV-I 12 W/m -5,4 C -4,2 C 0,0 km/h (0 Bft)
14.02.2023 08:17 -4,2 C -5,6 C 91 % 1036,7 hPa 0,0 l/m 0,0 km/h (0 Bft) N 0 0 min 0,0 UV-I 14 W/m -5,4 C -4,2 C 0,0 km/h (0 Bft)
14.02.2023 08:18 -4,2 C -5,6 C 92 % 1036,7 hPa 0,0 l/m 0,0 km/h (0 Bft) N 0 0 min 0,0 UV-I 16 W/m -5,3 C -4,2 C 0,0 km/h (0 Bft)
14.02.2023 08:19 -4,1 C -5,0 C 92 % 1036,8 hPa 0,0 l/m 0,0 km/h (0 Bft) N 0 0 min 0,0 UV-I 16 W/m -5,2 C -4,1 C 0,0 km/h (0 Bft)
14.02.2023 08:20 -4,1 C -5,0 C 92 % 1036,8 hPa 0,0 l/m 0,0 km/h (0 Bft) N 0 0 min 0,0 UV-I 18 W/m -5,2 C -4,1 C 0,0 km/h (0 Bft)
14.02.2023 08:21 -4,1 C -5,0 C 92 % 1036,7 hPa 0,0 l/m 0,0 km/h (0 Bft) N 0 0 min 0,0 UV-I 19 W/m -5,2 C -4,1 C 0,0 km/h (0 Bft)
14.02.2023 08:22 -4,1 C -5,0 C 92 % 1036,7 hPa 0,0 l/m 0,0 km/h (0 Bft) N 0 0 min 0,0 UV-I 19 W/m -5,2 C -4,1 C 0,0 km/h (0 Bft)
14.02.2023 08:23 -4,0 C -4,4 C 92 % 1036,9 hPa 0,0 l/m 0,0 km/h (0 Bft) N 0 0 min 0,0 UV-I 19 W/m -5,1 C -4,0 C 0,0 km/h (0 Bft)
14.02.2023 08:24 -4,1 C -4,4 C 92 % 1036,7 hPa 0,0 l/m 0,0 km/h (0 Bft) N 0 0 min 0,0 UV-I 19 W/m -5,2 C -4,1 C 0,0 km/h (0 Bft)
14.02.2023 08:25 -4,1 C -4,4 C 92 % 1036,7 hPa 0,0 l/m 0,0 km/h (0 Bft) N 0 0 min 0,0 UV-I 21 W/m -5,2 C -4,1 C 0,0 km/h (0 Bft)
14.02.2023 08:26 -4,0 C -4,4 C 92 % 1036,7 hPa 0,0 l/m 0,0 km/h (0 Bft) N 0 0 min 0,0 UV-I 21 W/m -5,1 C -4,0 C 0,0 km/h (0 Bft)
14.02.2023 08:27 -4,1 C -3,9 C 92 % 1036,8 hPa 0,0 l/m 0,0 km/h (0 Bft) N 0 0 min 0,0 UV-I 23 W/m -5,2 C -4,1 C 0,0 km/h (0 Bft)
14.02.2023 08:28 -4,0 C -3,9 C 92 % 1036,8 hPa 0,0 l/m 0,0 km/h (0 Bft) N 0 0 min 0,0 UV-I 23 W/m -5,1 C -4,0 C 0,0 km/h (0 Bft)
14.02.2023 08:29 -4,1 C -3,9 C 92 % 1036,7 hPa 0,0 l/m 0,0 km/h (0 Bft) N 0 0 min 0,0 UV-I 25 W/m -5,2 C -4,1 C 0,0 km/h (0 Bft)
14.02.2023 08:30 -4,0 C -3,9 C 92 % 1036,8 hPa 0,0 l/m 0,0 km/h (0 Bft) N 0 0 min 0,0 UV-I 25 W/m -5,1 C -4,0 C 0,0 km/h (0 Bft)
14.02.2023 08:31 -4,0 C -3,3 C 92 % 1036,7 hPa 0,0 l/m 0,0 km/h (0 Bft) N 0 0 min 0,0 UV-I 23 W/m -5,1 C -4,0 C 0,0 km/h (0 Bft)
14.02.2023 08:32 -3,9 C -3,3 C 92 % 1036,7 hPa 0,0 l/m 0,0 km/h (0 Bft) N 0 0 min 0,0 UV-I 25 W/m -5,0 C -3,9 C 0,0 km/h (0 Bft)
14.02.2023 08:33 -3,8 C -3,3 C 92 % 1036,7 hPa 0,0 l/m 0,0 km/h (0 Bft) N 0 0 min 0,0 UV-I 26 W/m -4,9 C -3,8 C 0,0 km/h (0 Bft)
14.02.2023 08:34 -3,8 C -3,3 C 92 % 1036,7 hPa 0,0 l/m 0,0 km/h (0 Bft) N 0 0 min 0,0 UV-I 29 W/m -4,9 C -3,8 C 0,0 km/h (0 Bft)
14.02.2023 08:35 -3,7 C -3,3 C 92 % 1036,7 hPa 0,0 l/m 0,0 km/h (0 Bft) N 0 0 min 0,0 UV-I 30 W/m -4,8 C -3,7 C 0,0 km/h (0 Bft)
14.02.2023 08:36 -3,6 C -2,8 C 92 % 1036,7 hPa 0,0 l/m 0,0 km/h (0 Bft) N 0 0 min 0,0 UV-I 30 W/m -4,7 C -3,6 C 0,0 km/h (0 Bft)
14.02.2023 08:37 -3,5 C -2,8 C 92 % 1036,7 hPa 0,0 l/m 0,0 km/h (0 Bft) N 0 0 min 0,0 UV-I 28 W/m -4,6 C -3,5 C 0,0 km/h (0 Bft)
14.02.2023 08:38 -3,4 C -2,8 C 92 % 1036,8 hPa 0,0 l/m 0,0 km/h (0 Bft) N 0 0 min 0,0 UV-I 28 W/m -4,5 C -3,4 C 0,0 km/h (0 Bft)
14.02.2023 08:39 -3,3 C -2,2 C 93 % 1036,7 hPa 0,0 l/m 0,0 km/h (0 Bft) N 0 0 min 0,0 UV-I 28 W/m -4,3 C -3,3 C 0,0 km/h (0 Bft)
14.02.2023 08:40 -3,2 C -2,2 C 93 % 1036,8 hPa 0,0 l/m 0,0 km/h (0 Bft) N 0 0 min 0,0 UV-I 25 W/m -4,2 C -3,2 C 0,0 km/h (0 Bft)
14.02.2023 08:41 -3,1 C -1,7 C 92 % 1036,8 hPa 0,0 l/m 0,0 km/h (0 Bft) N 0 0 min 0,0 UV-I 26 W/m -4,2 C -3,1 C 0,0 km/h (0 Bft)
14.02.2023 08:42 -3,0 C -1,7 C 93 % 1036,8 hPa 0,0 l/m 0,0 km/h (0 Bft) N 0 0 min 0,0 UV-I 28 W/m -4,0 C -3,0 C 0,0 km/h (0 Bft)
14.02.2023 08:43 -3,0 C -1,1 C 93 % 1036,9 hPa 0,0 l/m 0,0 km/h (0 Bft) N 0 0 min 0,0 UV-I 32 W/m -4,0 C -3,0 C 0,0 km/h (0 Bft)
14.02.2023 08:44 -2,9 C -1,1 C 93 % 1036,8 hPa 0,0 l/m 0,0 km/h (0 Bft) N 0 0 min 0,0 UV-I 33 W/m -3,9 C -2,9 C 0,0 km/h (0 Bft)
14.02.2023 08:45 -2,9 C -1,1 C 92 % 1036,8 hPa 0,0 l/m 0,0 km/h (0 Bft) N 0 0 min 0,0 UV-I 35 W/m -4,0 C -2,9 C 0,0 km/h (0 Bft)
14.02.2023 08:46 -2,8 C -0,6 C 92 % 1036,8 hPa 0,0 l/m 0,0 km/h (0 Bft) N 0 0 min 0,0 UV-I 32 W/m -3,9 C -2,8 C 0,0 km/h (0 Bft)
14.02.2023 08:47 -2,9 C -0,6 C 92 % 1036,8 hPa 0,0 l/m 0,0 km/h (0 Bft) N 0 0 min 0,0 UV-I 30 W/m -4,0 C -2,9 C 0,0 km/h (0 Bft)
14.02.2023 08:48 -2,9 C 0,0 C 92 % 1036,8 hPa 0,0 l/m 0,0 km/h (0 Bft) N 0 0 min 0,0 UV-I 28 W/m -4,0 C -2,9 C 0,0 km/h (0 Bft)
14.02.2023 08:49 -2,9 C 0,0 C 92 % 1036,8 hPa 0,0 l/m 0,0 km/h (0 Bft) N 0 0 min 0,0 UV-I 26 W/m -4,0 C -2,9 C 0,0 km/h (0 Bft)
14.02.2023 08:50 -2,9 C 0,6 C 92 % 1036,8 hPa 0,0 l/m 0,0 km/h (0 Bft) N 0 0 min 0,0 UV-I 28 W/m -4,0 C -2,9 C 0,0 km/h (0 Bft)
14.02.2023 08:51 -2,9 C 0,6 C 92 % 1036,9 hPa 0,0 l/m 0,0 km/h (0 Bft) N 0 0 min 0,0 UV-I 40 W/m -4,0 C -2,9 C 0,0 km/h (0 Bft)
14.02.2023 08:52 -2,8 C 0,6 C 92 % 1036,9 hPa 0,0 l/m 0,0 km/h (0 Bft) N 0 0 min 0,0 UV-I 40 W/m -3,9 C -2,8 C 0,0 km/h (0 Bft)
14.02.2023 08:53 -2,9 C 0,6 C 92 % 1036,9 hPa 0,0 l/m 0,0 km/h (0 Bft) N 0 0 min 0,0 UV-I 42 W/m -4,0 C -2,9 C 0,0 km/h (0 Bft)
14.02.2023 08:54 -2,8 C 0,6 C 92 % 1036,9 hPa 0,0 l/m 0,0 km/h (0 Bft) N 0 0 min 0,0 UV-I 53 W/m -3,9 C -2,8 C 0,0 km/h (0 Bft)
14.02.2023 08:55 -2,8 C 1,1 C 92 % 1036,9 hPa 0,0 l/m 0,0 km/h (0 Bft) N 0 0 min 0,0 UV-I 62 W/m -3,9 C -2,8 C 0,0 km/h (0 Bft)
14.02.2023 08:56 -2,8 C 1,1 C 92 % 1036,8 hPa 0,0 l/m 0,0 km/h (0 Bft) N 0 0 min 0,0 UV-I 79 W/m -3,9 C -2,8 C 0,0 km/h (0 Bft)
14.02.2023 08:57 -2,8 C 1,1 C 92 % 1036,9 hPa 0,0 l/m 0,0 km/h (0 Bft) N 0 0 min 0,0 UV-I 86 W/m -3,9 C -2,8 C 0,0 km/h (0 Bft)
14.02.2023 08:58 -2,8 C 1,1 C 92 % 1037,0 hPa 0,0 l/m 0,0 km/h (0 Bft) N 0 0 min 0,0 UV-I 88 W/m -3,9 C -2,8 C 0,0 km/h (0 Bft)
14.02.2023 08:59 -2,8 C 1,7 C 92 % 1036,9 hPa 0,0 l/m 0,0 km/h (0 Bft) N 0 0 min 0,0 UV-I 81 W/m -3,9 C -2,8 C 0,0 km/h (0 Bft)
14.02.2023 09:00 -2,7 C 1,7 C 92 % 1036,8 hPa 0,0 l/m 0,0 km/h (0 Bft) N 0 0 min 0,0 UV-I 56 W/m -3,8 C -2,7 C 0,0 km/h (0 Bft)
14.02.2023 09:01 -2,7 C 2,2 C 93 % 1037,0 hPa 0,0 l/m 0,0 km/h (0 Bft) N 0 0 min 0,0 UV-I 62 W/m -3,7 C -2,7 C 0,0 km/h (0 Bft)
14.02.2023 09:02 -2,6 C 2,8 C 93 % 1036,9 hPa 0,0 l/m 0,0 km/h (0 Bft) N 0 0 min 0,0 UV-I 100 W/m -3,6 C -2,6 C 0,0 km/h (0 Bft)
14.02.2023 09:03 -2,6 C 2,8 C 93 % 1036,9 hPa 0,0 l/m 0,0 km/h (0 Bft) N 0 0 min 0,0 UV-I 99 W/m -3,6 C -2,6 C 0,0 km/h (0 Bft)
14.02.2023 09:04 -2,4 C 2,8 C 92 % 1036,9 hPa 0,0 l/m 0,0 km/h (0 Bft) N 0 0 min 0,0 UV-I 86 W/m -3,5 C -2,4 C 0,0 km/h (0 Bft)
14.02.2023 09:05 -2,4 C 2,8 C 93 % 1036,9 hPa 0,0 l/m 0,0 km/h (0 Bft) N 0 0 min 0,0 UV-I 60 W/m -3,4 C -2,4 C 0,0 km/h (0 Bft)
14.02.2023 09:06 -2,3 C 2,8 C 93 % 1036,9 hPa 0,0 l/m 0,0 km/h (0 Bft) N 0 0 min 0,0 UV-I 37 W/m -3,3 C -2,3 C 0,0 km/h (0 Bft)
14.02.2023 09:07 -2,3 C 3,3 C 93 % 1037,0 hPa 0,0 l/m 0,0 km/h (0 Bft) N 0 0 min 0,0 UV-I 46 W/m -3,3 C -2,3 C 0,0 km/h (0 Bft)
14.02.2023 09:08 -2,2 C 3,3 C 93 % 1036,9 hPa 0,0 l/m 0,0 km/h (0 Bft) N 0 0 min 0,0 UV-I 62 W/m -3,2 C -2,2 C 0,0 km/h (0 Bft)
14.02.2023 09:09 -2,2 C 3,9 C 93 % 1036,9 hPa 0,0 l/m 0,0 km/h (0 Bft) N 0 0 min 0,0 UV-I 67 W/m -3,2 C -2,2 C 0,0 km/h (0 Bft)
14.02.2023 09:10 -2,1 C 3,9 C 93 % 1036,9 hPa 0,0 l/m 0,0 km/h (0 Bft) N 0 0 min 0,0 UV-I 74 W/m -3,1 C -2,1 C 0,0 km/h (0 Bft)
14.02.2023 09:11 -2,0 C 3,9 C 93 % 1036,8 hPa 0,0 l/m 0,0 km/h (0 Bft) N 0 0 min 0,0 UV-I 70 W/m -3,0 C -2,0 C 0,0 km/h (0 Bft)
14.02.2023 09:12 -1,9 C 3,9 C 93 % 1036,9 hPa 0,0 l/m 0,0 km/h (0 Bft) N 0 0 min 0,0 UV-I 74 W/m -2,9 C -1,9 C 0,0 km/h (0 Bft)
14.02.2023 09:13 -1,9 C 3,3 C 93 % 1036,9 hPa 0,0 l/m 0,0 km/h (0 Bft) N 0 0 min 0,0 UV-I 109 W/m -2,9 C -1,9 C 0,0 km/h (0 Bft)
14.02.2023 09:14 -1,8 C 3,3 C 93 % 1036,9 hPa 0,0 l/m 0,0 km/h (0 Bft) N 0 0 min 0,5 UV-I 116 W/m -2,8 C -1,8 C 0,0 km/h (0 Bft)
14.02.2023 09:15 -1,8 C 3,9 C 93 % 1036,9 hPa 0,0 l/m 0,0 km/h (0 Bft) N 0 0 min 0,0 UV-I 74 W/m -2,8 C -1,8 C 0,0 km/h (0 Bft)
14.02.2023 09:16 -1,7 C 3,9 C 93 % 1036,8 hPa 0,0 l/m 0,0 km/h (0 Bft) N 0 0 min 0,3 UV-I 58 W/m -2,7 C -1,7 C 0,0 km/h (0 Bft)
14.02.2023 09:17 -1,7 C 3,9 C 93 % 1036,9 hPa 0,0 l/m 0,0 km/h (0 Bft) N 0 0 min 0,0 UV-I 44 W/m -2,7 C -1,7 C 0,0 km/h (0 Bft)
14.02.2023 09:18 -1,6 C 3,3 C 93 % 1036,9 hPa 0,0 l/m 0,0 km/h (0 Bft) N 0 0 min 0,0 UV-I 58 W/m -2,6 C -1,6 C 0,0 km/h (0 Bft)
14.02.2023 09:19 -1,6 C 3,3 C 93 % 1036,9 hPa 0,0 l/m 0,0 km/h (0 Bft) N 0 0 min 0,5 UV-I 88 W/m -2,6 C -1,6 C 0,0 km/h (0 Bft)
14.02.2023 09:20 -1,6 C 2,8 C 93 % 1036,9 hPa 0,0 l/m 0,0 km/h (0 Bft) N 0 0 min 0,5 UV-I 125 W/m -2,6 C -1,6 C 0,0 km/h (0 Bft)
14.02.2023 09:21 -1,4 C 3,3 C 93 % 1036,8 hPa 0,0 l/m 0,0 km/h (0 Bft) N 0 0 min 0,5 UV-I 166 W/m -2,4 C -1,4 C 0,0 km/h (0 Bft)
14.02.2023 09:22 -1,3 C 4,4 C 93 % 1036,8 hPa 0,0 l/m 0,0 km/h (0 Bft) N 0 0 min 0,5 UV-I 165 W/m -2,3 C -1,3 C 0,0 km/h (0 Bft)
14.02.2023 09:23 -1,3 C 4,4 C 93 % 1036,9 hPa 0,0 l/m 0,0 km/h (0 Bft) N 0 0 min 0,6 UV-I 144 W/m -2,3 C -1,3 C 0,0 km/h (0 Bft)
14.02.2023 09:24 -1,2 C 5,0 C 93 % 1036,9 hPa 0,0 l/m 0,0 km/h (0 Bft) N 0 0 min 0,5 UV-I 100 W/m -2,2 C -1,2 C 0,0 km/h (0 Bft)
14.02.2023 09:25 -1,2 C 4,4 C 93 % 1036,8 hPa 0,0 l/m 0,0 km/h (0 Bft) N 0 0 min 0,5 UV-I 121 W/m -2,2 C -1,2 C 0,0 km/h (0 Bft)
14.02.2023 09:26 -1,2 C 4,4 C 93 % 1036,9 hPa 0,0 l/m 0,0 km/h (0 Bft) N 0 0 min 0,6 UV-I 162 W/m -2,2 C -1,2 C 0,0 km/h (0 Bft)
14.02.2023 09:27 -1,1 C 4,4 C 93 % 1036,9 hPa 0,0 l/m 0,0 km/h (0 Bft) N 0 0 min 0,6 UV-I 181 W/m -2,1 C -1,1 C 0,0 km/h (0 Bft)
14.02.2023 09:28 -1,1 C 4,4 C 93 % 1036,9 hPa 0,0 l/m 0,0 km/h (0 Bft) N 0 0 min 0,6 UV-I 181 W/m -2,1 C -1,1 C 0,0 km/h (0 Bft)
14.02.2023 09:29 -0,9 C 5,0 C 93 % 1036,9 hPa 0,0 l/m 0,0 km/h (0 Bft) N 0 0 min 0,6 UV-I 144 W/m -1,9 C -0,9 C 0,0 km/h (0 Bft)
14.02.2023 09:30 -0,8 C 5,0 C 93 % 1036,9 hPa 0,0 l/m 0,0 km/h (0 Bft) N 0 0 min 0,6 UV-I 83 W/m -1,8 C -0,8 C 0,0 km/h (0 Bft)
14.02.2023 09:31 -0,8 C 4,4 C 93 % 1036,9 hPa 0,0 l/m 0,0 km/h (0 Bft) N 0 0 min 0,0 UV-I 53 W/m -1,8 C -0,8 C 0,0 km/h (0 Bft)
14.02.2023 09:32 -0,8 C 3,9 C 93 % 1036,9 hPa 0,0 l/m 0,0 km/h (0 Bft) N 0 0 min 0,6 UV-I 79 W/m -1,8 C -0,8 C 0,0 km/h (0 Bft)
14.02.2023 09:33 -0,7 C 3,3 C 93 % 1037,0 hPa 0,0 l/m 0,0 km/h (0 Bft) N 0 0 min 0,6 UV-I 107 W/m -1,7 C -0,7 C 0,0 km/h (0 Bft)
14.02.2023 09:34 -0,7 C 3,3 C 93 % 1036,9 hPa 0,0 l/m 0,0 km/h (0 Bft) N 0 0 min 0,6 UV-I 148 W/m -1,7 C -0,7 C 0,0 km/h (0 Bft)
14.02.2023 09:35 -0,6 C 3,3 C 93 % 1036,9 hPa 0,0 l/m 0,0 km/h (0 Bft) N 0 0 min 0,6 UV-I 179 W/m -1,6 C -0,6 C 0,0 km/h (0 Bft)
14.02.2023 09:36 -0,6 C 2,8 C 93 % 1037,0 hPa 0,0 l/m 0,0 km/h (0 Bft) N 0 0 min 0,7 UV-I 186 W/m -1,6 C -0,6 C 0,0 km/h (0 Bft)
14.02.2023 09:37 -0,6 C 2,2 C 93 % 1036,9 hPa 0,0 l/m 0,0 km/h (0 Bft) N 0 0 min 0,7 UV-I 186 W/m -1,6 C -0,6 C 0,0 km/h (0 Bft)
14.02.2023 09:38 -0,5 C 1,7 C 93 % 1037,0 hPa 0,0 l/m 0,0 km/h (0 Bft) N 0 0 min 0,7 UV-I 171 W/m -1,5 C -0,5 C 0,0 km/h (0 Bft)
14.02.2023 09:39 -0,4 C 1,7 C 93 % 1036,9 hPa 0,0 l/m 0,0 km/h (0 Bft) N 0 0 min 0,7 UV-I 121 W/m -1,4 C -0,4 C 0,0 km/h (0 Bft)
14.02.2023 09:40 -0,3 C 1,7 C 93 % 1036,9 hPa 0,0 l/m 0,0 km/h (0 Bft) N 0 0 min 0,7 UV-I 104 W/m -1,3 C -0,3 C 0,0 km/h (0 Bft)
14.02.2023 09:41 -0,2 C 1,7 C 93 % 1036,9 hPa 0,0 l/m 0,0 km/h (0 Bft) N 0 0 min 0,7 UV-I 141 W/m -1,2 C -0,2 C 0,0 km/h (0 Bft)
14.02.2023 09:42 -0,1 C 2,2 C 93 % 1036,9 hPa 0,0 l/m 0,0 km/h (0 Bft) N 0 0 min 0,7 UV-I 181 W/m -1,1 C -0,1 C 0,0 km/h (0 Bft)
14.02.2023 09:43 -0,1 C 2,8 C 93 % 1037,0 hPa 0,0 l/m 0,0 km/h (0 Bft) N 0 0 min 0,7 UV-I 190 W/m -1,1 C -0,1 C 0,0 km/h (0 Bft)
14.02.2023 09:44 -0,1 C 3,3 C 93 % 1037,0 hPa 0,0 l/m 0,0 km/h (0 Bft) N 0 0 min 0,7 UV-I 195 W/m -1,1 C -0,1 C 0,0 km/h (0 Bft)
14.02.2023 09:45 0,1 C 3,9 C 93 % 1037,0 hPa 0,0 l/m 0,0 km/h (0 Bft) N 0 0 min 0,8 UV-I 169 W/m -0,9 C 0,1 C 0,0 km/h (0 Bft)
14.02.2023 09:46 0,1 C 5,0 C 93 % 1037,0 hPa 0,0 l/m 0,0 km/h (0 Bft) N 0 0 min 0,8 UV-I 127 W/m -0,9 C 0,1 C 0,0 km/h (0 Bft)
14.02.2023 09:47 0,2 C 5,0 C 93 % 1036,9 hPa 0,0 l/m 0,0 km/h (0 Bft) N 0 0 min 0,8 UV-I 114 W/m -0,8 C 0,2 C 0,0 km/h (0 Bft)
14.02.2023 09:48 0,4 C 5,6 C 93 % 1037,0 hPa 0,0 l/m 0,0 km/h (0 Bft) N 0 0 min 0,7 UV-I 142 W/m -0,6 C 0,4 C 0,0 km/h (0 Bft)
14.02.2023 09:49 0,6 C 5,6 C 93 % 1037,0 hPa 0,0 l/m 0,0 km/h (0 Bft) N 0 0 min 0,7 UV-I 190 W/m -0,4 C 0,6 C 0,0 km/h (0 Bft)
14.02.2023 09:50 0,6 C 6,7 C 93 % 1036,9 hPa 0,0 l/m 0,0 km/h (0 Bft) N 0 0 min 0,8 UV-I 194 W/m -0,4 C 0,6 C 0,0 km/h (0 Bft)
14.02.2023 09:51 0,7 C 6,7 C 93 % 1036,9 hPa 0,0 l/m 0,0 km/h (0 Bft) N 0 0 min 0,8 UV-I 183 W/m -0,3 C 0,7 C 0,0 km/h (0 Bft)
14.02.2023 09:52 0,8 C 7,2 C 93 % 1036,9 hPa 0,0 l/m 0,0 km/h (0 Bft) N 0 0 min 0,8 UV-I 195 W/m -0,2 C 0,8 C 0,0 km/h (0 Bft)
14.02.2023 09:53 0,9 C 7,8 C 94 % 1036,9 hPa 0,0 l/m 0,0 km/h (0 Bft) N 0 0 min 0,8 UV-I 200 W/m 0,0 C 0,9 C 0,0 km/h (0 Bft)
14.02.2023 09:54 1,0 C 7,8 C 93 % 1036,9 hPa 0,0 l/m 0,0 km/h (0 Bft) N 0 0 min 0,8 UV-I 213 W/m -0,0 C 1,0 C 0,0 km/h (0 Bft)
14.02.2023 09:55 1,0 C 7,8 C 93 % 1036,8 hPa 0,0 l/m 0,0 km/h (0 Bft) N 0 0 min 0,9 UV-I 229 W/m -0,0 C 1,0 C 0,0 km/h (0 Bft)
14.02.2023 09:56 1,1 C 7,8 C 93 % 1036,8 hPa 0,0 l/m 0,0 km/h (0 Bft) N 0 0 min 0,9 UV-I 233 W/m 0,1 C 1,1 C 0,0 km/h (0 Bft)
14.02.2023 09:57 1,2 C 7,8 C 93 % 1036,8 hPa 0,0 l/m 0,0 km/h (0 Bft) N 0 0 min 0,9 UV-I 241 W/m 0,2 C 1,2 C 0,0 km/h (0 Bft)
14.02.2023 10:00 1,3 C 7,8 C 93 % 1036,7 hPa 0,0 l/m 0,0 km/h (0 Bft) SO 126 0 min 0,9 UV-I 232 W/m 0,3 C 1,3 C 0,0 km/h (0 Bft)
14.02.2023 10:03 1,6 C 8,3 C 93 % 1036,8 hPa 0,0 l/m 0,0 km/h (0 Bft) SO 126 0 min 1,0 UV-I 247 W/m 0,6 C 1,6 C 0,0 km/h (0 Bft)
14.02.2023 10:06 1,8 C 8,3 C 93 % 1036,9 hPa 0,0 l/m 0,0 km/h (0 Bft) SO 126 3 min 1,0 UV-I 256 W/m 0,8 C 1,8 C 0,0 km/h (0 Bft)
14.02.2023 10:09 2,1 C 8,9 C 93 % 1037,0 hPa 0,0 l/m 0,0 km/h (0 Bft) SO 126 3 min 1,0 UV-I 262 W/m 1,1 C 2,1 C 0,0 km/h (0 Bft)
14.02.2023 10:12 2,4 C 9,4 C 93 % 1037,0 hPa 0,0 l/m 0,0 km/h (0 Bft) SO 126 3 min 1,1 UV-I 268 W/m 1,4 C 2,4 C 0,0 km/h (0 Bft)
14.02.2023 10:15 2,7 C 10,0 C 92 % 1036,8 hPa 0,0 l/m 0,0 km/h (0 Bft) SO 126 3 min 1,1 UV-I 273 W/m 1,5 C 2,7 C 0,0 km/h (0 Bft)
14.02.2023 10:18 2,7 C 9,4 C 91 % 1036,9 hPa 0,0 l/m 0,0 km/h (0 Bft) SO 126 3 min 1,1 UV-I 280 W/m 1,4 C 2,7 C 0,0 km/h (0 Bft)
14.02.2023 10:21 3,1 C 10,6 C 91 % 1036,9 hPa 0,0 l/m 0,0 km/h (0 Bft) SO 126 3 min 1,2 UV-I 288 W/m 1,8 C 3,1 C 0,0 km/h (0 Bft)
14.02.2023 10:24 3,3 C 10,6 C 90 % 1036,8 hPa 0,0 l/m 0,0 km/h (0 Bft) SO 126 3 min 1,2 UV-I 297 W/m 1,8 C 3,3 C 0,0 km/h (0 Bft)
14.02.2023 10:27 3,6 C 11,1 C 89 % 1036,8 hPa 0,0 l/m 0,0 km/h (0 Bft) SO 126 3 min 1,3 UV-I 307 W/m 2,0 C 3,6 C 0,0 km/h (0 Bft)
14.02.2023 10:30 3,9 C 11,7 C 88 % 1036,8 hPa 0,0 l/m 0,0 km/h (0 Bft) SO 126 3 min 1,3 UV-I 313 W/m 2,1 C 3,9 C 0,0 km/h (0 Bft)
14.02.2023 10:33 4,3 C 11,1 C 88 % 1036,7 hPa 0,0 l/m 0,0 km/h (0 Bft) SO 126 3 min 1,3 UV-I 319 W/m 2,5 C 4,3 C 0,0 km/h (0 Bft)
14.02.2023 10:36 4,8 C 12,8 C 87 % 1036,6 hPa 0,0 l/m 0,0 km/h (0 Bft) SO 126 3 min 1,3 UV-I 325 W/m 2,8 C 4,8 C 0,0 km/h (0 Bft)
14.02.2023 10:39 5,1 C 12,2 C 86 % 1036,7 hPa 0,0 l/m 0,0 km/h (0 Bft) SO 126 3 min 1,4 UV-I 330 W/m 3,0 C 5,1 C 0,0 km/h (0 Bft)
14.02.2023 10:42 5,3 C 12,2 C 84 % 1036,6 hPa 0,0 l/m 0,0 km/h (0 Bft) SO 126 3 min 1,4 UV-I 337 W/m 2,8 C 5,3 C 0,0 km/h (0 Bft)
14.02.2023 10:45 5,8 C 13,3 C 84 % 1036,6 hPa 0,0 l/m 0,0 km/h (0 Bft) SO 126 3 min 1,4 UV-I 343 W/m 3,3 C 5,8 C 0,0 km/h (0 Bft)
14.02.2023 10:48 6,1 C 13,3 C 83 % 1036,6 hPa 0,0 l/m 0,1 km/h (0 Bft) SO 126 3 min 1,5 UV-I 348 W/m 3,4 C 6,1 C 1,6 km/h (1 Bft)
14.02.2023 10:51 6,6 C 13,3 C 83 % 1036,6 hPa 0,0 l/m 0,0 km/h (0 Bft) SO 126 3 min 1,5 UV-I 353 W/m 3,9 C 6,6 C 0,0 km/h (0 Bft)
14.02.2023 10:54 6,6 C 12,8 C 81 % 1036,6 hPa 0,0 l/m 0,0 km/h (0 Bft) SO 126 3 min 1,6 UV-I 358 W/m 3,6 C 6,6 C 1,6 km/h (1 Bft)
14.02.2023 10:57 7,1 C 14,4 C 81 % 1036,6 hPa 0,0 l/m 0,0 km/h (0 Bft) SO 126 3 min 1,6 UV-I 363 W/m 4,1 C 7,1 C 0,0 km/h (0 Bft)
14.02.2023 11:00 7,2 C 13,9 C 79 % 1036,7 hPa 0,0 l/m 0,0 km/h (0 Bft) SO 126 3 min 1,6 UV-I 367 W/m 3,8 C 7,2 C 1,6 km/h (1 Bft)
14.02.2023 11:03 7,3 C 14,4 C 78 % 1036,6 hPa 0,0 l/m 0,0 km/h (0 Bft) SO 126 3 min 1,7 UV-I 373 W/m 3,7 C 7,3 C 0,0 km/h (0 Bft)
14.02.2023 11:06 7,6 C 15,6 C 78 % 1036,5 hPa 0,0 l/m 0,0 km/h (0 Bft) SO 126 3 min 1,7 UV-I 376 W/m 4,0 C 7,6 C 0,0 km/h (0 Bft)
14.02.2023 11:09 7,8 C 16,1 C 76 % 1036,6 hPa 0,0 l/m 0,0 km/h (0 Bft) SO 126 3 min 1,7 UV-I 380 W/m 3,8 C 7,8 C 0,0 km/h (0 Bft)
14.02.2023 11:12 8,2 C 16,1 C 75 % 1036,6 hPa 0,0 l/m 1,1 km/h (1 Bft) SO 126 3 min 1,8 UV-I 383 W/m 4,0 C 8,2 C 4,8 km/h (1 Bft)
14.02.2023 11:15 8,3 C 16,1 C 74 % 1036,6 hPa 0,0 l/m 1,4 km/h (1 Bft) SO 126 3 min 1,8 UV-I 389 W/m 3,9 C 8,3 C 4,8 km/h (1 Bft)
14.02.2023 11:18 8,6 C 17,2 C 75 % 1036,6 hPa 0,0 l/m 2,2 km/h (1 Bft) SO 126 3 min 1,8 UV-I 394 W/m 4,4 C 8,6 C 3,2 km/h (1 Bft)
14.02.2023 11:21 8,8 C 17,8 C 74 % 1036,6 hPa 0,0 l/m 1,5 km/h (1 Bft) SO 126 3 min 1,9 UV-I 397 W/m 4,4 C 8,8 C 3,2 km/h (1 Bft)
14.02.2023 11:24 8,7 C 16,7 C 73 % 1036,6 hPa 0,0 l/m 3,2 km/h (1 Bft) SO 127 3 min 1,9 UV-I 402 W/m 4,1 C 8,7 C 4,8 km/h (1 Bft)
14.02.2023 11:27 8,8 C 17,8 C 72 % 1036,5 hPa 0,0 l/m 2,4 km/h (1 Bft) SO 127 3 min 1,9 UV-I 404 W/m 4,0 C 8,8 C 4,8 km/h (1 Bft)
14.02.2023 11:30 8,8 C 17,2 C 72 % 1036,6 hPa 0,0 l/m 4,3 km/h (1 Bft) S-SO 167 3 min 1,9 UV-I 408 W/m 4,0 C 8,8 C 8,0 km/h (2 Bft)
14.02.2023 11:33 9,1 C 17,2 C 72 % 1036,6 hPa 0,0 l/m 3,3 km/h (1 Bft) S 176 3 min 1,9 UV-I 411 W/m 4,3 C 9,1 C 9,7 km/h (2 Bft)
14.02.2023 11:36 9,2 C 16,7 C 70 % 1036,5 hPa 0,0 l/m 6,8 km/h (2 Bft) S-SW 200 3 min 2,0 UV-I 415 W/m 4,0 C 8,9 C 9,7 km/h (2 Bft)
14.02.2023 11:39 9,4 C 17,8 C 72 % 1036,5 hPa 0,0 l/m 4,7 km/h (1 Bft) SW 223 3 min 2,0 UV-I 418 W/m 4,6 C 9,4 C 9,7 km/h (2 Bft)
14.02.2023 11:42 9,6 C 16,7 C 69 % 1036,6 hPa 0,0 l/m 7,0 km/h (2 Bft) S-SW 209 3 min 2,0 UV-I 421 W/m 4,2 C 9,2 C 11,3 km/h (2 Bft)
14.02.2023 11:45 9,5 C 16,1 C 69 % 1036,5 hPa 0,0 l/m 9,4 km/h (2 Bft) SW 214 3 min 2,0 UV-I 424 W/m 4,1 C 7,4 C 12,9 km/h (3 Bft)
14.02.2023 11:48 9,3 C 15,6 C 69 % 1036,4 hPa 0,0 l/m 7,6 km/h (2 Bft) SW 218 3 min 2,0 UV-I 426 W/m 3,9 C 8,4 C 11,3 km/h (2 Bft)
14.02.2023 11:51 9,4 C 16,1 C 69 % 1036,4 hPa 0,0 l/m 5,7 km/h (1 Bft) SW 227 3 min 2,0 UV-I 429 W/m 4,0 C 9,4 C 9,7 km/h (2 Bft)
14.02.2023 11:54 9,7 C 16,7 C 70 % 1036,3 hPa 0,0 l/m 6,3 km/h (2 Bft) W-SW 238 3 min 2,1 UV-I 432 W/m 4,5 C 9,7 C 11,3 km/h (2 Bft)
14.02.2023 11:57 9,6 C 16,7 C 69 % 1036,3 hPa 0,0 l/m 5,8 km/h (2 Bft) SW 235 3 min 2,1 UV-I 436 W/m 4,2 C 9,6 C 9,7 km/h (2 Bft)
14.02.2023 12:00 9,7 C 17,2 C 69 % 1036,1 hPa 0,0 l/m 5,7 km/h (1 Bft) W-SW 242 3 min 2,1 UV-I 437 W/m 4,3 C 9,7 C 11,3 km/h (2 Bft)
14.02.2023 12:03 9,6 C 17,2 C 69 % 1036,1 hPa 0,0 l/m 6,3 km/h (2 Bft) SW 214 3 min 2,1 UV-I 439 W/m 4,2 C 9,6 C 9,7 km/h (2 Bft)
14.02.2023 12:06 9,7 C 17,2 C 70 % 1036,1 hPa 0,0 l/m 6,1 km/h (2 Bft) SW 221 3 min 2,1 UV-I 440 W/m 4,5 C 9,7 C 9,7 km/h (2 Bft)
14.02.2023 12:09 10,0 C 18,3 C 70 % 1036,1 hPa 0,0 l/m 6,6 km/h (2 Bft) SW 215 3 min 2,1 UV-I 442 W/m 4,8 C 9,9 C 11,3 km/h (2 Bft)
14.02.2023 12:12 9,8 C 18,3 C 68 % 1036,0 hPa 0,0 l/m 7,6 km/h (2 Bft) SW 216 3 min 2,2 UV-I 443 W/m 4,2 C 8,9 C 11,3 km/h (2 Bft)
14.02.2023 12:15 9,9 C 17,2 C 70 % 1036,0 hPa 0,0 l/m 6,0 km/h (2 Bft) SW 219 3 min 2,2 UV-I 446 W/m 4,7 C 9,9 C 11,3 km/h (2 Bft)
14.02.2023 12:18 10,0 C 17,8 C 68 % 1036,0 hPa 0,0 l/m 8,1 km/h (2 Bft) S-SW 205 3 min 2,2 UV-I 448 W/m 4,4 C 8,8 C 11,3 km/h (2 Bft)
14.02.2023 12:21 10,0 C 17,8 C 69 % 1035,9 hPa 0,0 l/m 6,8 km/h (2 Bft) SW 226 3 min 2,2 UV-I 451 W/m 4,6 C 9,7 C 9,7 km/h (2 Bft)
14.02.2023 12:24 10,1 C 17,8 C 69 % 1035,9 hPa 0,0 l/m 6,3 km/h (2 Bft) SW 215 3 min 2,2 UV-I 452 W/m 4,7 C 10,1 C 9,7 km/h (2 Bft)
14.02.2023 12:27 10,2 C 17,8 C 69 % 1035,9 hPa 0,0 l/m 6,7 km/h (2 Bft) S-SW 213 3 min 2,2 UV-I 454 W/m 4,8 C 10,0 C 9,7 km/h (2 Bft)
14.02.2023 12:30 10,1 C 17,8 C 68 % 1035,9 hPa 0,0 l/m 6,5 km/h (2 Bft) S-SW 211 3 min 2,2 UV-I 454 W/m 4,5 C 10,1 C 9,7 km/h (2 Bft)
14.02.2023 12:33 10,1 C 18,9 C 69 % 1035,9 hPa 0,0 l/m 4,7 km/h (1 Bft) SW 215 3 min 2,2 UV-I 456 W/m 4,7 C 10,1 C 9,7 km/h (2 Bft)
14.02.2023 12:36 10,3 C 18,3 C 69 % 1035,8 hPa 0,0 l/m 6,7 km/h (2 Bft) SW 214 3 min 2,2 UV-I 455 W/m 4,9 C 10,1 C 9,7 km/h (2 Bft)
14.02.2023 12:39 10,3 C 18,3 C 68 % 1036,0 hPa 0,0 l/m 6,7 km/h (2 Bft) SW 218 3 min 2,2 UV-I 456 W/m 4,7 C 10,1 C 9,7 km/h (2 Bft)
14.02.2023 12:42 10,6 C 19,4 C 69 % 1035,7 hPa 0,0 l/m 5,5 km/h (1 Bft) SW 219 3 min 2,2 UV-I 456 W/m 5,2 C 10,6 C 8,0 km/h (2 Bft)
14.02.2023 12:45 10,7 C 18,9 C 68 % 1035,7 hPa 0,0 l/m 5,1 km/h (1 Bft) SW 222 3 min 2,2 UV-I 455 W/m 5,0 C 10,7 C 8,0 km/h (2 Bft)
14.02.2023 12:48 10,6 C 18,3 C 67 % 1035,8 hPa 0,0 l/m 6,6 km/h (2 Bft) S-SW 209 3 min 2,2 UV-I 455 W/m 4,7 C 10,5 C 12,9 km/h (3 Bft)
14.02.2023 12:51 10,8 C 18,3 C 68 % 1035,6 hPa 0,0 l/m 6,5 km/h (2 Bft) S-SW 204 3 min 2,2 UV-I 456 W/m 5,1 C 10,8 C 11,3 km/h (2 Bft)
14.02.2023 12:54 11,0 C 18,9 C 67 % 1035,6 hPa 0,0 l/m 5,5 km/h (1 Bft) W-SW 246 3 min 2,2 UV-I 458 W/m 5,1 C 11,0 C 11,3 km/h (2 Bft)
14.02.2023 12:57 11,1 C 19,4 C 66 % 1035,5 hPa 0,0 l/m 6,3 km/h (2 Bft) SW 222 3 min 2,2 UV-I 458 W/m 5,0 C 11,1 C 9,7 km/h (2 Bft)
14.02.2023 13:00 10,9 C 18,9 C 65 % 1035,5 hPa 0,0 l/m 6,0 km/h (2 Bft) S-SW 199 3 min 2,2 UV-I 459 W/m 4,6 C 10,9 C 9,7 km/h (2 Bft)
14.02.2023 13:03 11,1 C 19,4 C 66 % 1035,5 hPa 0,0 l/m 5,4 km/h (1 Bft) SW 236 3 min 2,2 UV-I 460 W/m 5,0 C 11,1 C 8,0 km/h (2 Bft)
14.02.2023 13:06 11,2 C 19,4 C 65 % 1035,5 hPa 0,0 l/m 5,5 km/h (1 Bft) SW 218 3 min 2,2 UV-I 458 W/m 4,9 C 11,2 C 9,7 km/h (2 Bft)
14.02.2023 13:09 11,2 C 19,4 C 65 % 1035,5 hPa 0,0 l/m 6,7 km/h (2 Bft) W-SW 237 3 min 2,2 UV-I 458 W/m 4,9 C 11,0 C 14,5 km/h (3 Bft)
14.02.2023 13:12 11,2 C 19,4 C 64 % 1035,5 hPa 0,0 l/m 5,9 km/h (2 Bft) S-SW 205 3 min 2,2 UV-I 458 W/m 4,6 C 11,2 C 11,3 km/h (2 Bft)
14.02.2023 13:15 11,3 C 19,4 C 66 % 1035,5 hPa 0,0 l/m 4,8 km/h (1 Bft) S-SW 209 3 min 2,2 UV-I 456 W/m 5,2 C 11,3 C 8,0 km/h (2 Bft)
14.02.2023 13:18 11,8 C 21,1 C 64 % 1035,4 hPa 0,0 l/m 4,1 km/h (1 Bft) SW 216 3 min 2,2 UV-I 455 W/m 5,2 C 11,8 C 9,7 km/h (2 Bft)
14.02.2023 13:21 11,4 C 20,0 C 62 % 1035,2 hPa 0,0 l/m 5,9 km/h (2 Bft) SW 231 3 min 2,2 UV-I 457 W/m 4,4 C 11,4 C 9,7 km/h (2 Bft)
14.02.2023 13:24 11,5 C 20,0 C 61 % 1035,2 hPa 0,0 l/m 5,6 km/h (1 Bft) SW 223 3 min 2,2 UV-I 457 W/m 4,2 C 11,5 C 9,7 km/h (2 Bft)
14.02.2023 13:27 11,7 C 20,6 C 59 % 1035,2 hPa 0,0 l/m 6,5 km/h (2 Bft) O-SO 119 3 min 2,2 UV-I 455 W/m 4,0 C 11,7 C 11,3 km/h (2 Bft)
14.02.2023 13:30 11,9 C 20,6 C 57 % 1035,1 hPa 0,0 l/m 6,8 km/h (2 Bft) S-SO 160 3 min 2,2 UV-I 455 W/m 3,7 C 11,6 C 11,3 km/h (2 Bft)
14.02.2023 13:33 11,8 C 20,0 C 55 % 1035,1 hPa 0,0 l/m 4,7 km/h (1 Bft) S-SO 148 3 min 2,2 UV-I 454 W/m 3,1 C 11,8 C 8,0 km/h (2 Bft)
14.02.2023 13:36 11,9 C 20,6 C 56 % 1035,0 hPa 0,0 l/m 3,3 km/h (1 Bft) S-SO 148 3 min 2,2 UV-I 451 W/m 3,4 C 11,9 C 4,8 km/h (1 Bft)
14.02.2023 13:39 12,0 C 20,6 C 56 % 1035,1 hPa 0,0 l/m 7,0 km/h (2 Bft) SO 142 3 min 2,2 UV-I 450 W/m 3,5 C 11,6 C 9,7 km/h (2 Bft)
14.02.2023 13:42 12,0 C 21,1 C 55 % 1035,0 hPa 0,0 l/m 6,4 km/h (2 Bft) SO 143 3 min 2,2 UV-I 449 W/m 3,2 C 12,0 C 11,3 km/h (2 Bft)
14.02.2023 13:45 12,0 C 21,1 C 54 % 1035,0 hPa 0,0 l/m 5,9 km/h (2 Bft) SO 128 3 min 2,1 UV-I 445 W/m 3,0 C 12,0 C 11,3 km/h (2 Bft)
14.02.2023 13:48 12,2 C 21,1 C 55 % 1034,9 hPa 0,0 l/m 6,4 km/h (2 Bft) S-SO 157 3 min 2,1 UV-I 445 W/m 3,4 C 12,2 C 12,9 km/h (3 Bft)
14.02.2023 13:51 12,1 C 20,6 C 53 % 1034,8 hPa 0,0 l/m 7,2 km/h (2 Bft) S 173 3 min 2,1 UV-I 445 W/m 2,8 C 11,6 C 12,9 km/h (3 Bft)
14.02.2023 13:54 12,0 C 20,6 C 54 % 1034,8 hPa 0,0 l/m 4,3 km/h (1 Bft) S-SO 168 3 min 2,1 UV-I 442 W/m 3,0 C 12,0 C 8,0 km/h (2 Bft)
14.02.2023 13:57 12,0 C 21,1 C 54 % 1034,8 hPa 0,0 l/m 5,1 km/h (1 Bft) SO 144 3 min 2,1 UV-I 439 W/m 3,0 C 12,0 C 8,0 km/h (2 Bft)
14.02.2023 14:00 12,1 C 21,7 C 56 % 1034,8 hPa 0,0 l/m 5,1 km/h (1 Bft) SO 131 3 min 2,0 UV-I 436 W/m 3,6 C 12,1 C 8,0 km/h (2 Bft)
14.02.2023 14:03 12,1 C 20,6 C 53 % 1034,8 hPa 0,0 l/m 6,7 km/h (2 Bft) S-SW 195 3 min 2,0 UV-I 433 W/m 2,8 C 11,9 C 11,3 km/h (2 Bft)
14.02.2023 14:06 12,1 C 20,6 C 53 % 1034,8 hPa 0,0 l/m 6,4 km/h (2 Bft) SO 126 3 min 2,0 UV-I 428 W/m 2,8 C 12,1 C 12,9 km/h (3 Bft)
14.02.2023 14:09 12,2 C 21,7 C 54 % 1034,6 hPa 0,0 l/m 3,4 km/h (1 Bft) S-SO 163 3 min 2,0 UV-I 427 W/m 3,2 C 12,2 C 9,7 km/h (2 Bft)
14.02.2023 14:12 12,2 C 20,0 C 53 % 1034,8 hPa 0,0 l/m 7,6 km/h (2 Bft) S 188 3 min 2,0 UV-I 426 W/m 2,9 C 11,4 C 11,3 km/h (2 Bft)
14.02.2023 14:15 12,3 C 20,0 C 54 % 1034,7 hPa 0,0 l/m 5,9 km/h (2 Bft) S-SO 162 3 min 1,9 UV-I 422 W/m 3,3 C 12,3 C 9,7 km/h (2 Bft)
14.02.2023 14:18 12,4 C 20,6 C 51 % 1034,7 hPa 0,0 l/m 7,6 km/h (2 Bft) SO 143 3 min 1,9 UV-I 419 W/m 2,6 C 11,6 C 12,9 km/h (3 Bft)
14.02.2023 14:21 12,2 C 20,6 C 51 % 1034,7 hPa 0,0 l/m 6,7 km/h (2 Bft) S 175 3 min 1,9 UV-I 416 W/m 2,4 C 12,0 C 11,3 km/h (2 Bft)
14.02.2023 14:24 12,2 C 20,0 C 51 % 1034,5 hPa 0,0 l/m 8,4 km/h (2 Bft) S 186 3 min 1,9 UV-I 411 W/m 2,4 C 10,9 C 12,9 km/h (3 Bft)
14.02.2023 14:27 12,1 C 18,9 C 50 % 1034,3 hPa 0,0 l/m 9,7 km/h (2 Bft) S-SW 197 3 min 1,8 UV-I 407 W/m 2,0 C 10,1 C 14,5 km/h (3 Bft)
14.02.2023 14:30 12,2 C 18,9 C 51 % 1034,3 hPa 0,0 l/m 8,6 km/h (2 Bft) S-SW 209 3 min 1,8 UV-I 403 W/m 2,4 C 10,8 C 12,9 km/h (3 Bft)
14.02.2023 14:33 12,3 C 19,4 C 51 % 1034,3 hPa 0,0 l/m 10,0 km/h (2 Bft) S-SW 201 3 min 1,8 UV-I 398 W/m 2,5 C 10,1 C 14,5 km/h (3 Bft)
14.02.2023 14:36 12,1 C 18,9 C 50 % 1034,3 hPa 0,0 l/m 11,0 km/h (2 Bft) S-SW 209 3 min 1,7 UV-I 396 W/m 2,0 C 9,4 C 16,1 km/h (3 Bft)
14.02.2023 14:39 12,1 C 18,3 C 52 % 1034,3 hPa 0,0 l/m 9,7 km/h (2 Bft) SW 236 3 min 1,7 UV-I 391 W/m 2,5 C 10,1 C 12,9 km/h (3 Bft)
14.02.2023 14:42 12,1 C 18,9 C 50 % 1034,4 hPa 0,0 l/m 8,8 km/h (2 Bft) S-SW 200 3 min 1,7 UV-I 387 W/m 2,0 C 10,6 C 14,5 km/h (3 Bft)
14.02.2023 14:45 12,1 C 18,9 C 51 % 1034,4 hPa 0,0 l/m 7,3 km/h (2 Bft) SW 219 3 min 1,6 UV-I 381 W/m 2,3 C 11,5 C 11,3 km/h (2 Bft)
14.02.2023 14:48 12,2 C 19,4 C 51 % 1034,3 hPa 0,0 l/m 7,9 km/h (2 Bft) S-SW 207 3 min 1,6 UV-I 377 W/m 2,4 C 11,2 C 11,3 km/h (2 Bft)
14.02.2023 14:51 12,1 C 19,4 C 50 % 1034,2 hPa 0,0 l/m 7,5 km/h (2 Bft) SW 221 3 min 1,6 UV-I 373 W/m 2,0 C 11,4 C 11,3 km/h (2 Bft)
14.02.2023 14:54 12,1 C 18,9 C 51 % 1034,0 hPa 0,0 l/m 6,1 km/h (2 Bft) S-SW 213 3 min 1,5 UV-I 369 W/m 2,3 C 12,1 C 11,3 km/h (2 Bft)
14.02.2023 14:57 12,2 C 20,0 C 52 % 1034,0 hPa 0,0 l/m 6,1 km/h (2 Bft) S-SW 213 3 min 1,5 UV-I 365 W/m 2,6 C 12,2 C 9,7 km/h (2 Bft)
14.02.2023 15:00 12,1 C 19,4 C 51 % 1033,9 hPa 0,0 l/m 6,3 km/h (2 Bft) SW 214 3 min 1,5 UV-I 360 W/m 2,3 C 12,1 C 8,0 km/h (2 Bft)
14.02.2023 15:03 12,2 C 20,0 C 51 % 1034,0 hPa 0,0 l/m 4,7 km/h (1 Bft) S-SW 200 3 min 1,4 UV-I 354 W/m 2,4 C 12,2 C 8,0 km/h (2 Bft)
14.02.2023 15:06 12,2 C 21,1 C 51 % 1034,0 hPa 0,0 l/m 2,5 km/h (1 Bft) SO 126 3 min 1,4 UV-I 351 W/m 2,4 C 12,2 C 6,4 km/h (2 Bft)
14.02.2023 15:09 12,4 C 21,1 C 51 % 1033,9 hPa 0,0 l/m 4,0 km/h (1 Bft) SO 132 3 min 1,4 UV-I 345 W/m 2,6 C 12,4 C 8,0 km/h (2 Bft)
14.02.2023 15:12 12,4 C 21,1 C 50 % 1033,9 hPa 0,0 l/m 6,1 km/h (2 Bft) SO 138 3 min 1,3 UV-I 338 W/m 2,3 C 12,4 C 14,5 km/h (3 Bft)
14.02.2023 15:15 12,1 C 19,4 C 52 % 1033,9 hPa 0,0 l/m 9,9 km/h (2 Bft) SO 125 3 min 1,3 UV-I 332 W/m 2,5 C 10,0 C 14,5 km/h (3 Bft)
14.02.2023 15:18 12,0 C 18,3 C 52 % 1033,9 hPa 0,0 l/m 8,0 km/h (2 Bft) SO 136 3 min 1,3 UV-I 328 W/m 2,5 C 11,0 C 11,3 km/h (2 Bft)
14.02.2023 15:21 12,0 C 18,9 C 51 % 1033,9 hPa 0,0 l/m 5,5 km/h (1 Bft) O-SO 123 3 min 1,3 UV-I 325 W/m 2,2 C 12,0 C 9,7 km/h (2 Bft)
14.02.2023 15:24 12,1 C 18,9 C 50 % 1033,9 hPa 0,0 l/m 8,7 km/h (2 Bft) O-SO 116 3 min 1,2 UV-I 322 W/m 2,0 C 10,6 C 14,5 km/h (3 Bft)
14.02.2023 15:27 12,1 C 19,4 C 49 % 1033,9 hPa 0,0 l/m 9,4 km/h (2 Bft) SO 124 3 min 1,2 UV-I 316 W/m 1,7 C 10,2 C 14,5 km/h (3 Bft)
14.02.2023 15:30 12,1 C 19,4 C 50 % 1033,8 hPa 0,0 l/m 6,1 km/h (2 Bft) S-SO 156 3 min 1,2 UV-I 310 W/m 2,0 C 12,1 C 14,5 km/h (3 Bft)
14.02.2023 15:33 12,3 C 20,0 C 50 % 1033,8 hPa 0,0 l/m 5,4 km/h (1 Bft) S-SO 155 3 min 1,1 UV-I 305 W/m 2,2 C 12,3 C 9,7 km/h (2 Bft)
14.02.2023 15:36 12,3 C 20,0 C 49 % 1033,8 hPa 0,0 l/m 5,5 km/h (1 Bft) S-SO 159 3 min 1,1 UV-I 298 W/m 1,9 C 12,3 C 9,7 km/h (2 Bft)
14.02.2023 15:39 12,3 C 20,6 C 50 % 1033,8 hPa 0,0 l/m 5,9 km/h (2 Bft) SO 136 3 min 1,1 UV-I 291 W/m 2,2 C 12,3 C 11,3 km/h (2 Bft)
14.02.2023 15:42 12,3 C 19,4 C 52 % 1033,9 hPa 0,0 l/m 5,3 km/h (1 Bft) S-SO 157 3 min 1,0 UV-I 284 W/m 2,7 C 12,3 C 11,3 km/h (2 Bft)
14.02.2023 15:45 12,3 C 19,4 C 53 % 1033,9 hPa 0,0 l/m 5,4 km/h (1 Bft) S-SO 161 3 min 1,0 UV-I 276 W/m 3,0 C 12,3 C 9,7 km/h (2 Bft)
14.02.2023 15:48 12,2 C 18,9 C 53 % 1033,9 hPa 0,0 l/m 7,1 km/h (2 Bft) S-SO 160 3 min 0,9 UV-I 268 W/m 2,9 C 11,7 C 11,3 km/h (2 Bft)
14.02.2023 15:51 12,1 C 18,9 C 54 % 1033,9 hPa 0,0 l/m 6,5 km/h (2 Bft) S 170 3 min 0,9 UV-I 262 W/m 3,1 C 12,1 C 11,3 km/h (2 Bft)
14.02.2023 15:54 12,0 C 18,9 C 54 % 1033,9 hPa 0,0 l/m 6,0 km/h (2 Bft) SO 138 3 min 0,9 UV-I 254 W/m 3,0 C 12,0 C 11,3 km/h (2 Bft)
14.02.2023 15:57 11,9 C 18,9 C 55 % 1033,8 hPa 0,0 l/m 3,9 km/h (1 Bft) S-SO 155 3 min 0,8 UV-I 249 W/m 3,2 C 11,9 C 8,0 km/h (2 Bft)
14.02.2023 16:00 11,9 C 18,3 C 55 % 1033,7 hPa 0,0 l/m 4,9 km/h (1 Bft) SO 138 0 min 0,8 UV-I 241 W/m 3,2 C 11,9 C 8,0 km/h (2 Bft)
14.02.2023 16:03 11,7 C 16,1 C 55 % 1033,8 hPa 0,0 l/m 5,3 km/h (1 Bft) SO 132 0 min 0,8 UV-I 234 W/m 3,0 C 11,7 C 8,0 km/h (2 Bft)
14.02.2023 16:06 11,7 C 17,2 C 55 % 1033,7 hPa 0,0 l/m 3,6 km/h (1 Bft) SO 132 0 min 0,7 UV-I 225 W/m 3,0 C 11,7 C 6,4 km/h (2 Bft)
14.02.2023 16:09 11,8 C 16,7 C 55 % 1033,9 hPa 0,0 l/m 4,3 km/h (1 Bft) SO 134 0 min 0,7 UV-I 217 W/m 3,1 C 11,8 C 6,4 km/h (2 Bft)
14.02.2023 16:12 11,6 C 13,3 C 57 % 1033,9 hPa 0,0 l/m 3,8 km/h (1 Bft) SO 138 0 min 0,7 UV-I 206 W/m 3,4 C 11,6 C 8,0 km/h (2 Bft)
14.02.2023 16:15 11,6 C 12,8 C 57 % 1033,8 hPa 0,0 l/m 4,1 km/h (1 Bft) S-SO 155 0 min 0,6 UV-I 199 W/m 3,4 C 11,6 C 9,7 km/h (2 Bft)
14.02.2023 16:18 11,5 C 13,9 C 57 % 1033,8 hPa 0,0 l/m 4,4 km/h (1 Bft) S-SO 148 0 min 0,6 UV-I 193 W/m 3,3 C 11,5 C 8,0 km/h (2 Bft)
14.02.2023 16:21 11,3 C 16,1 C 56 % 1033,9 hPa 0,0 l/m 5,7 km/h (1 Bft) SO 133 0 min 0,6 UV-I 185 W/m 2,8 C 11,3 C 8,0 km/h (2 Bft)
14.02.2023 16:24 11,2 C 15,6 C 56 % 1033,8 hPa 0,0 l/m 6,8 km/h (2 Bft) SO 138 0 min 0,6 UV-I 175 W/m 2,8 C 10,9 C 11,3 km/h (2 Bft)
14.02.2023 16:27 11,1 C 16,7 C 57 % 1033,6 hPa 0,0 l/m 4,8 km/h (1 Bft) SO 132 0 min 0,5 UV-I 166 W/m 2,9 C 11,1 C 11,3 km/h (2 Bft)
14.02.2023 16:30 10,9 C 16,7 C 55 % 1033,6 hPa 0,0 l/m 6,9 km/h (2 Bft) SO 140 0 min 0,5 UV-I 157 W/m 2,2 C 10,6 C 11,3 km/h (2 Bft)
14.02.2023 16:33 10,8 C 16,1 C 55 % 1033,8 hPa 0,0 l/m 8,2 km/h (2 Bft) S-SO 148 0 min 0,5 UV-I 149 W/m 2,1 C 9,6 C 12,9 km/h (3 Bft)
14.02.2023 16:36 10,8 C 16,1 C 54 % 1033,7 hPa 0,0 l/m 6,1 km/h (2 Bft) SO 138 0 min 0,0 UV-I 141 W/m 1,9 C 10,8 C 9,7 km/h (2 Bft)
14.02.2023 16:39 10,8 C 16,1 C 54 % 1033,8 hPa 0,0 l/m 5,6 km/h (1 Bft) SO 136 0 min 0,0 UV-I 132 W/m 1,9 C 10,8 C 8,0 km/h (2 Bft)
14.02.2023 16:42 10,7 C 16,7 C 54 % 1033,7 hPa 0,0 l/m 4,2 km/h (1 Bft) SO 134 0 min 0,0 UV-I 122 W/m 1,8 C 10,7 C 8,0 km/h (2 Bft)
14.02.2023 16:45 10,6 C 15,6 C 54 % 1033,8 hPa 0,0 l/m 7,0 km/h (2 Bft) SO 136 0 min 0,0 UV-I 115 W/m 1,7 C 10,2 C 12,9 km/h (3 Bft)
14.02.2023 16:48 10,4 C 15,0 C 54 % 1033,9 hPa 0,0 l/m 6,8 km/h (2 Bft) SO 129 0 min 0,0 UV-I 107 W/m 1,5 C 10,1 C 11,3 km/h (2 Bft)
14.02.2023 16:51 10,4 C 15,6 C 54 % 1033,7 hPa 0,0 l/m 5,6 km/h (1 Bft) S 175 0 min 0,0 UV-I 99 W/m 1,5 C 10,4 C 11,3 km/h (2 Bft)
14.02.2023 16:54 10,5 C 15,6 C 54 % 1033,6 hPa 0,0 l/m 5,3 km/h (1 Bft) SO 144 0 min 0,0 UV-I 91 W/m 1,6 C 10,5 C 8,0 km/h (2 Bft)
14.02.2023 16:57 10,4 C 15,6 C 54 % 1033,6 hPa 0,0 l/m 4,9 km/h (1 Bft) S-SO 147 0 min 0,0 UV-I 83 W/m 1,5 C 10,4 C 9,7 km/h (2 Bft)
14.02.2023 17:00 10,3 C 15,6 C 55 % 1033,7 hPa 0,0 l/m 4,2 km/h (1 Bft) SO 140 0 min 0,0 UV-I 74 W/m 1,7 C 10,3 C 8,0 km/h (2 Bft)
14.02.2023 17:03 10,2 C 15,0 C 55 % 1033,8 hPa 0,0 l/m 4,4 km/h (1 Bft) SO 142 0 min 0,0 UV-I 67 W/m 1,6 C 10,2 C 8,0 km/h (2 Bft)
14.02.2023 17:06 9,9 C 14,4 C 55 % 1033,8 hPa 0,0 l/m 4,9 km/h (1 Bft) SO 136 0 min 0,0 UV-I 60 W/m 1,3 C 9,9 C 8,0 km/h (2 Bft)
14.02.2023 17:09 9,9 C 12,8 C 55 % 1033,8 hPa 0,0 l/m 5,9 km/h (2 Bft) SO 137 0 min 0,0 UV-I 53 W/m 1,3 C 9,9 C 11,3 km/h (2 Bft)
14.02.2023 17:12 9,7 C 10,6 C 56 % 1033,8 hPa 0,0 l/m 4,7 km/h (1 Bft) SO 138 0 min 0,0 UV-I 47 W/m 1,4 C 9,7 C 11,3 km/h (2 Bft)
14.02.2023 17:15 9,6 C 9,4 C 57 % 1033,9 hPa 0,0 l/m 5,0 km/h (1 Bft) SO 140 0 min 0,0 UV-I 41 W/m 1,5 C 9,6 C 8,0 km/h (2 Bft)
14.02.2023 17:18 9,4 C 8,3 C 57 % 1033,9 hPa 0,0 l/m 4,0 km/h (1 Bft) SO 143 0 min 0,0 UV-I 36 W/m 1,3 C 9,4 C 11,3 km/h (2 Bft)
14.02.2023 17:21 9,4 C 7,8 C 58 % 1033,8 hPa 0,0 l/m 5,0 km/h (1 Bft) SO 140 0 min 0,0 UV-I 31 W/m 1,6 C 9,4 C 8,0 km/h (2 Bft)
14.02.2023 17:24 9,3 C 7,2 C 58 % 1033,8 hPa 0,0 l/m 4,2 km/h (1 Bft) SO 141 0 min 0,0 UV-I 24 W/m 1,5 C 9,3 C 8,0 km/h (2 Bft)
14.02.2023 17:27 9,3 C 7,2 C 59 % 1033,7 hPa 0,0 l/m 5,5 km/h (1 Bft) SO 141 0 min 0,0 UV-I 17 W/m 1,7 C 9,3 C 8,0 km/h (2 Bft)
14.02.2023 17:30 9,1 C 7,2 C 60 % 1033,7 hPa 0,0 l/m 4,9 km/h (1 Bft) SO 139 0 min 0,0 UV-I 14 W/m 1,8 C 9,1 C 8,0 km/h (2 Bft)
14.02.2023 17:33 8,8 C 7,2 C 60 % 1033,8 hPa 0,0 l/m 4,4 km/h (1 Bft) SO 142 0 min 0,0 UV-I 12 W/m 1,5 C 8,8 C 8,0 km/h (2 Bft)
14.02.2023 17:36 8,6 C 6,7 C 61 % 1033,8 hPa 0,0 l/m 3,6 km/h (1 Bft) SO 141 0 min 0,0 UV-I 12 W/m 1,5 C 8,6 C 6,4 km/h (2 Bft)
14.02.2023 17:39 8,1 C 6,1 C 62 % 1033,8 hPa 0,0 l/m 2,9 km/h (1 Bft) SO 141 0 min 0,0 UV-I 10 W/m 1,3 C 8,1 C 6,4 km/h (2 Bft)
14.02.2023 17:42 7,7 C 5,0 C 63 % 1033,8 hPa 0,0 l/m 3,5 km/h (1 Bft) SO 142 0 min 0,0 UV-I 9 W/m 1,1 C 7,7 C 6,4 km/h (2 Bft)
14.02.2023 17:45 7,4 C 4,4 C 64 % 1033,8 hPa 0,0 l/m 3,0 km/h (1 Bft) SO 141 0 min 0,0 UV-I 7 W/m 1,0 C 7,4 C 6,4 km/h (2 Bft)
14.02.2023 17:48 7,2 C 3,9 C 65 % 1033,7 hPa 0,0 l/m 2,9 km/h (1 Bft) SO 141 0 min 0,0 UV-I 5 W/m 1,1 C 7,2 C 4,8 km/h (1 Bft)
14.02.2023 17:51 7,1 C 3,9 C 66 % 1033,8 hPa 0,0 l/m 2,3 km/h (1 Bft) SO 141 0 min 0,0 UV-I 5 W/m 1,2 C 7,1 C 4,8 km/h (1 Bft)
14.02.2023 17:54 7,0 C 3,9 C 66 % 1033,8 hPa 0,0 l/m 3,2 km/h (1 Bft) SO 141 0 min 0,0 UV-I 0 W/m 1,1 C 7,0 C 4,8 km/h (1 Bft)
14.02.2023 17:57 6,8 C 3,3 C 66 % 1033,8 hPa 0,0 l/m 2,8 km/h (1 Bft) SO 141 0 min 0,0 UV-I 0 W/m 0,9 C 6,8 C 4,8 km/h (1 Bft)
14.02.2023 18:00 6,6 C 3,3 C 67 % 1033,9 hPa 0,0 l/m 2,8 km/h (1 Bft) SO 141 0 min 0,0 UV-I 0 W/m 0,9 C 6,6 C 4,8 km/h (1 Bft)
14.02.2023 18:03 6,4 C 2,8 C 67 % 1033,9 hPa 0,0 l/m 1,8 km/h (1 Bft) SO 141 0 min 0,0 UV-I 0 W/m 0,7 C 6,4 C 3,2 km/h (1 Bft)
14.02.2023 18:06 6,3 C 2,2 C 68 % 1034,0 hPa 0,0 l/m 0,7 km/h (0 Bft) SO 141 0 min 0,0 UV-I 0 W/m 0,8 C 6,3 C 3,2 km/h (1 Bft)
14.02.2023 18:09 6,3 C 2,8 C 68 % 1034,0 hPa 0,0 l/m 1,4 km/h (1 Bft) SO 141 0 min 0,0 UV-I 0 W/m 0,8 C 6,3 C 3,2 km/h (1 Bft)
14.02.2023 18:12 6,4 C 2,8 C 68 % 1034,1 hPa 0,0 l/m 2,0 km/h (1 Bft) SO 141 0 min 0,0 UV-I 0 W/m 0,9 C 6,4 C 3,2 km/h (1 Bft)
14.02.2023 18:15 6,6 C 3,3 C 68 % 1034,0 hPa 0,0 l/m 3,5 km/h (1 Bft) SO 141 0 min 0,0 UV-I 0 W/m 1,1 C 6,6 C 6,4 km/h (2 Bft)
14.02.2023 18:18 6,6 C 3,3 C 67 % 1034,1 hPa 0,0 l/m 2,8 km/h (1 Bft) SO 141 0 min 0,0 UV-I 0 W/m 0,9 C 6,6 C 4,8 km/h (1 Bft)
14.02.2023 18:21 6,6 C 3,3 C 67 % 1034,1 hPa 0,0 l/m 2,3 km/h (1 Bft) SO 141 0 min 0,0 UV-I 0 W/m 0,9 C 6,6 C 4,8 km/h (1 Bft)
14.02.2023 18:24 6,5 C 2,8 C 67 % 1034,0 hPa 0,0 l/m 2,0 km/h (1 Bft) SO 141 0 min 0,0 UV-I 0 W/m 0,8 C 6,5 C 4,8 km/h (1 Bft)
14.02.2023 18:27 6,4 C 2,8 C 68 % 1034,0 hPa 0,0 l/m 2,0 km/h (1 Bft) SO 141 0 min 0,0 UV-I 0 W/m 0,9 C 6,4 C 4,8 km/h (1 Bft)
14.02.2023 18:30 6,4 C 2,8 C 68 % 1034,1 hPa 0,0 l/m 1,7 km/h (1 Bft) SO 141 0 min 0,0 UV-I 0 W/m 0,9 C 6,4 C 4,8 km/h (1 Bft)
14.02.2023 18:33 6,3 C 2,8 C 68 % 1034,1 hPa 0,0 l/m 0,0 km/h (0 Bft) SO 141 0 min 0,0 UV-I 0 W/m 0,8 C 6,3 C 0,0 km/h (0 Bft)
14.02.2023 18:36 6,2 C 2,2 C 69 % 1034,1 hPa 0,0 l/m 0,0 km/h (0 Bft) SO 141 0 min 0,0 UV-I 0 W/m 0,9 C 6,2 C 0,0 km/h (0 Bft)
14.02.2023 18:39 6,0 C 2,2 C 68 % 1034,2 hPa 0,0 l/m 0,0 km/h (0 Bft) SO 141 0 min 0,0 UV-I 0 W/m 0,6 C 6,0 C 0,0 km/h (0 Bft)
14.02.2023 18:42 5,3 C 1,7 C 69 % 1034,2 hPa 0,0 l/m 0,0 km/h (0 Bft) SO 141 0 min 0,0 UV-I 0 W/m 0,1 C 5,3 C 0,0 km/h (0 Bft)
14.02.2023 18:45 4,9 C 1,7 C 71 % 1034,1 hPa 0,0 l/m 0,0 km/h (0 Bft) SO 141 0 min 0,0 UV-I 0 W/m 0,1 C 4,9 C 0,0 km/h (0 Bft)
14.02.2023 18:48 4,4 C 1,1 C 72 % 1034,1 hPa 0,0 l/m 0,0 km/h (0 Bft) SO 141 0 min 0,0 UV-I 0 W/m -0,2 C 4,4 C 0,0 km/h (0 Bft)
14.02.2023 18:51 4,0 C 1,1 C 74 % 1034,1 hPa 0,0 l/m 0,0 km/h (0 Bft) SO 141 0 min 0,0 UV-I 0 W/m -0,2 C 4,0 C 0,0 km/h (0 Bft)
14.02.2023 18:54 4,1 C 1,1 C 74 % 1034,2 hPa 0,0 l/m 0,0 km/h (0 Bft) SO 141 0 min 0,0 UV-I 0 W/m -0,1 C 4,1 C 0,0 km/h (0 Bft)
14.02.2023 18:57 4,1 C 1,1 C 74 % 1034,2 hPa 0,0 l/m 0,0 km/h (0 Bft) SO 141 0 min 0,0 UV-I 0 W/m -0,1 C 4,1 C 0,0 km/h (0 Bft)
14.02.2023 19:00 4,1 C 0,6 C 74 % 1034,1 hPa 0,0 l/m 0,0 km/h (0 Bft) SO 141 0 min 0,0 UV-I 0 W/m -0,1 C 4,1 C 0,0 km/h (0 Bft)
14.02.2023 19:03 4,0 C 0,6 C 75 % 1034,1 hPa 0,0 l/m 0,0 km/h (0 Bft) SO 141 0 min 0,0 UV-I 0 W/m -0,0 C 4,0 C 0,0 km/h (0 Bft)
14.02.2023 19:06 3,9 C 0,6 C 75 % 1034,1 hPa 0,0 l/m 0,0 km/h (0 Bft) SO 141 0 min 0,0 UV-I 0 W/m -0,1 C 3,9 C 0,0 km/h (0 Bft)
14.02.2023 19:09 3,6 C 0,6 C 75 % 1034,1 hPa 0,0 l/m 0,0 km/h (0 Bft) SO 141 0 min 0,0 UV-I 0 W/m -0,4 C 3,6 C 0,0 km/h (0 Bft)
14.02.2023 19:12 3,4 C 0,6 C 76 % 1034,1 hPa 0,0 l/m 0,0 km/h (0 Bft) SO 141 0 min 0,0 UV-I 0 W/m -0,4 C 3,4 C 0,0 km/h (0 Bft)
14.02.2023 19:15 3,0 C 0,6 C 76 % 1034,0 hPa 0,0 l/m 0,0 km/h (0 Bft) SO 141 0 min 0,0 UV-I 0 W/m -0,8 C 3,0 C 0,0 km/h (0 Bft)
14.02.2023 19:18 2,7 C 0,0 C 77 % 1034,1 hPa 0,0 l/m 0,0 km/h (0 Bft) SO 141 0 min 0,0 UV-I 0 W/m -0,9 C 2,7 C 0,0 km/h (0 Bft)
14.02.2023 19:21 2,3 C -0,6 C 77 % 1034,2 hPa 0,0 l/m 0,0 km/h (0 Bft) SO 141 0 min 0,0 UV-I 0 W/m -1,3 C 2,3 C 0,0 km/h (0 Bft)
14.02.2023 19:24 2,1 C -1,1 C 78 % 1034,2 hPa 0,0 l/m 0,0 km/h (0 Bft) SO 141 0 min 0,0 UV-I 0 W/m -1,3 C 2,1 C 0,0 km/h (0 Bft)
14.02.2023 19:27 2,1 C -0,6 C 79 % 1034,2 hPa 0,0 l/m 0,0 km/h (0 Bft) SO 141 0 min 0,0 UV-I 0 W/m -1,2 C 2,1 C 0,0 km/h (0 Bft)
14.02.2023 19:30 2,3 C -0,6 C 80 % 1034,2 hPa 0,0 l/m 0,0 km/h (0 Bft) SO 141 0 min 0,0 UV-I 0 W/m -0,8 C 2,3 C 0,0 km/h (0 Bft)
14.02.2023 19:33 2,4 C -0,6 C 79 % 1034,1 hPa 0,0 l/m 0,0 km/h (0 Bft) SO 141 0 min 0,0 UV-I 0 W/m -0,9 C 2,4 C 0,0 km/h (0 Bft)
14.02.2023 19:36 2,2 C -0,6 C 79 % 1034,2 hPa 0,0 l/m 0,0 km/h (0 Bft) SO 141 0 min 0,0 UV-I 0 W/m -1,1 C 2,2 C 0,0 km/h (0 Bft)
14.02.2023 19:39 1,9 C -1,1 C 79 % 1034,2 hPa 0,0 l/m 0,0 km/h (0 Bft) SO 141 0 min 0,0 UV-I 0 W/m -1,3 C 1,9 C 0,0 km/h (0 Bft)
14.02.2023 19:42 1,8 C -1,1 C 80 % 1034,1 hPa 0,0 l/m 0,0 km/h (0 Bft) SO 141 0 min 0,0 UV-I 0 W/m -1,3 C 1,8 C 0,0 km/h (0 Bft)
14.02.2023 19:45 1,7 C -1,1 C 80 % 1034,0 hPa 0,0 l/m 0,0 km/h (0 Bft) SO 141 0 min 0,0 UV-I 0 W/m -1,4 C 1,7 C 0,0 km/h (0 Bft)
14.02.2023 19:48 1,6 C -1,1 C 80 % 1033,9 hPa 0,0 l/m 0,0 km/h (0 Bft) SO 141 0 min 0,0 UV-I 0 W/m -1,5 C 1,6 C 0,0 km/h (0 Bft)
14.02.2023 19:51 1,6 C -1,1 C 81 % 1034,0 hPa 0,0 l/m 0,0 km/h (0 Bft) SO 141 0 min 0,0 UV-I 0 W/m -1,3 C 1,6 C 0,0 km/h (0 Bft)
14.02.2023 19:54 1,6 C -1,1 C 81 % 1034,0 hPa 0,0 l/m 0,0 km/h (0 Bft) SO 141 0 min 0,0 UV-I 0 W/m -1,3 C 1,6 C 0,0 km/h (0 Bft)
14.02.2023 19:57 1,4 C -1,1 C 81 % 1034,0 hPa 0,0 l/m 0,0 km/h (0 Bft) SO 141 0 min 0,0 UV-I 0 W/m -1,5 C 1,4 C 0,0 km/h (0 Bft)
14.02.2023 20:00 1,1 C -1,7 C 81 % 1034,0 hPa 0,0 l/m 0,0 km/h (0 Bft) SO 141 0 min 0,0 UV-I 0 W/m -1,8 C 1,1 C 0,0 km/h (0 Bft)
14.02.2023 20:03 1,1 C -1,7 C 82 % 1034,0 hPa 0,0 l/m 0,0 km/h (0 Bft) SO 141 0 min 0,0 UV-I 0 W/m -1,6 C 1,1 C 0,0 km/h (0 Bft)
14.02.2023 20:06 1,3 C -1,7 C 82 % 1033,9 hPa 0,0 l/m 0,0 km/h (0 Bft) SO 141 0 min 0,0 UV-I 0 W/m -1,4 C 1,3 C 0,0 km/h (0 Bft)
14.02.2023 20:09 1,3 C -1,7 C 82 % 1033,9 hPa 0,0 l/m 0,0 km/h (0 Bft) SO 141 0 min 0,0 UV-I 0 W/m -1,4 C 1,3 C 0,0 km/h (0 Bft)
14.02.2023 20:12 1,2 C -1,7 C 82 % 1033,9 hPa 0,0 l/m 0,0 km/h (0 Bft) SO 141 0 min 0,0 UV-I 0 W/m -1,5 C 1,2 C 0,0 km/h (0 Bft)
14.02.2023 20:15 0,9 C -2,2 C 82 % 1033,8 hPa 0,0 l/m 0,0 km/h (0 Bft) SO 141 0 min 0,0 UV-I 0 W/m -1,8 C 0,9 C 0,0 km/h (0 Bft)
14.02.2023 20:18 0,7 C -2,2 C 82 % 1033,8 hPa 0,0 l/m 0,0 km/h (0 Bft) SO 141 0 min 0,0 UV-I 0 W/m -2,0 C 0,7 C 0,0 km/h (0 Bft)
14.02.2023 20:21 0,7 C -1,7 C 83 % 1033,7 hPa 0,0 l/m 0,0 km/h (0 Bft) SO 141 0 min 0,0 UV-I 0 W/m -1,8 C 0,7 C 0,0 km/h (0 Bft)
14.02.2023 20:24 0,7 C -2,2 C 83 % 1033,8 hPa 0,0 l/m 0,0 km/h (0 Bft) SO 141 0 min 0,0 UV-I 0 W/m -1,8 C 0,7 C 0,0 km/h (0 Bft)
14.02.2023 20:27 0,6 C -2,2 C 83 % 1033,7 hPa 0,0 l/m 0,0 km/h (0 Bft) SO 141 0 min 0,0 UV-I 0 W/m -1,9 C 0,6 C 0,0 km/h (0 Bft)
14.02.2023 20:30 0,6 C -2,2 C 84 % 1033,7 hPa 0,0 l/m 0,0 km/h (0 Bft) SO 141 0 min 0,0 UV-I 0 W/m -1,8 C 0,6 C 0,0 km/h (0 Bft)
14.02.2023 20:33 0,6 C -2,2 C 84 % 1033,7 hPa 0,0 l/m 0,0 km/h (0 Bft) SO 141 0 min 0,0 UV-I 0 W/m -1,8 C 0,6 C 0,0 km/h (0 Bft)
14.02.2023 20:36 0,5 C -2,2 C 83 % 1033,7 hPa 0,0 l/m 0,0 km/h (0 Bft) SO 141 0 min 0,0 UV-I 0 W/m -2,0 C 0,5 C 0,0 km/h (0 Bft)
14.02.2023 20:39 0,3 C -2,2 C 84 % 1033,5 hPa 0,0 l/m 0,0 km/h (0 Bft) SO 141 0 min 0,0 UV-I 0 W/m -2,1 C 0,3 C 0,0 km/h (0 Bft)
14.02.2023 20:42 0,3 C -2,2 C 84 % 1033,5 hPa 0,0 l/m 0,0 km/h (0 Bft) SO 141 0 min 0,0 UV-I 0 W/m -2,1 C 0,3 C 0,0 km/h (0 Bft)
14.02.2023 20:45 0,3 C -2,2 C 85 % 1033,5 hPa 0,0 l/m 0,0 km/h (0 Bft) SO 141 0 min 0,0 UV-I 0 W/m -1,9 C 0,3 C 0,0 km/h (0 Bft)
14.02.2023 20:48 0,3 C -2,8 C 85 % 1033,5 hPa 0,0 l/m 0,0 km/h (0 Bft) SO 141 0 min 0,0 UV-I 0 W/m -1,9 C 0,3 C 0,0 km/h (0 Bft)
14.02.2023 20:51 0,2 C -2,8 C 85 % 1033,4 hPa 0,0 l/m 0,0 km/h (0 Bft) SO 141 0 min 0,0 UV-I 0 W/m -2,0 C 0,2 C 0,0 km/h (0 Bft)
14.02.2023 20:54 -0,1 C -2,8 C 84 % 1033,4 hPa 0,2 l/m 0,0 km/h (0 Bft) SO 141 0 min 0,0 UV-I 0 W/m -2,5 C -0,1 C 0,0 km/h (0 Bft)
14.02.2023 20:57 -0,1 C -2,8 C 85 % 1033,4 hPa 0,0 l/m 0,0 km/h (0 Bft) SO 141 0 min 0,0 UV-I 0 W/m -2,3 C -0,1 C 0,0 km/h (0 Bft)
14.02.2023 21:00 0,0 C -2,8 C 85 % 1033,3 hPa 0,0 l/m 0,0 km/h (0 Bft) SO 141 0 min 0,0 UV-I 0 W/m -2,2 C 0,0 C 0,0 km/h (0 Bft)
14.02.2023 21:03 -0,1 C -2,8 C 85 % 1033,4 hPa 0,0 l/m 0,0 km/h (0 Bft) SO 141 0 min 0,0 UV-I 0 W/m -2,3 C -0,1 C 0,0 km/h (0 Bft)
14.02.2023 21:06 -0,3 C -2,8 C 85 % 1033,4 hPa 0,0 l/m 0,0 km/h (0 Bft) SO 141 0 min 0,0 UV-I 0 W/m -2,5 C -0,3 C 0,0 km/h (0 Bft)
14.02.2023 21:09 -0,4 C -2,8 C 85 % 1033,4 hPa 0,0 l/m 0,0 km/h (0 Bft) SO 141 0 min 0,0 UV-I 0 W/m -2,6 C -0,4 C 0,0 km/h (0 Bft)
14.02.2023 21:12 -0,8 C -3,3 C 85 % 1033,4 hPa 0,0 l/m 0,0 km/h (0 Bft) SO 141 0 min 0,0 UV-I 0 W/m -3,0 C -0,8 C 0,0 km/h (0 Bft)
14.02.2023 21:15 -0,9 C -2,8 C 85 % 1033,3 hPa 0,0 l/m 0,0 km/h (0 Bft) SO 141 0 min 0,0 UV-I 0 W/m -3,1 C -0,9 C 0,0 km/h (0 Bft)
14.02.2023 21:18 -0,9 C -2,8 C 86 % 1033,4 hPa 0,0 l/m 0,0 km/h (0 Bft) SO 141 0 min 0,0 UV-I 0 W/m -2,9 C -0,9 C 0,0 km/h (0 Bft)
14.02.2023 21:21 -0,9 C -3,3 C 86 % 1033,4 hPa 0,0 l/m 0,0 km/h (0 Bft) SO 141 0 min 0,0 UV-I 0 W/m -2,9 C -0,9 C 0,0 km/h (0 Bft)
14.02.2023 21:24 -0,9 C -2,8 C 86 % 1033,4 hPa 0,0 l/m 0,0 km/h (0 Bft) SO 141 0 min 0,0 UV-I 0 W/m -2,9 C -0,9 C 0,0 km/h (0 Bft)
14.02.2023 21:27 -0,8 C -3,3 C 87 % 1033,3 hPa 0,0 l/m 0,0 km/h (0 Bft) SO 141 0 min 0,0 UV-I 0 W/m -2,7 C -0,8 C 0,0 km/h (0 Bft)
14.02.2023 21:30 -0,8 C -2,8 C 87 % 1033,4 hPa 0,0 l/m 0,0 km/h (0 Bft) SO 141 0 min 0,0 UV-I 0 W/m -2,7 C -0,8 C 0,0 km/h (0 Bft)
14.02.2023 21:33 -0,8 C -2,8 C 87 % 1033,4 hPa 0,0 l/m 0,0 km/h (0 Bft) SO 141 0 min 0,0 UV-I 0 W/m -2,7 C -0,8 C 0,0 km/h (0 Bft)
14.02.2023 21:36 -0,7 C -2,8 C 87 % 1033,3 hPa 0,0 l/m 0,0 km/h (0 Bft) SO 141 0 min 0,0 UV-I 0 W/m -2,6 C -0,7 C 0,0 km/h (0 Bft)
14.02.2023 21:39 -0,9 C -3,3 C 86 % 1033,4 hPa 0,0 l/m 0,0 km/h (0 Bft) SO 141 0 min 0,0 UV-I 0 W/m -2,9 C -0,9 C 0,0 km/h (0 Bft)
14.02.2023 21:42 -0,9 C -3,3 C 87 % 1033,4 hPa 0,0 l/m 0,0 km/h (0 Bft) SO 141 0 min 0,0 UV-I 0 W/m -2,8 C -0,9 C 0,0 km/h (0 Bft)
14.02.2023 21:45 -0,7 C -2,8 C 87 % 1033,3 hPa 0,0 l/m 0,0 km/h (0 Bft) SO 141 0 min 0,0 UV-I 0 W/m -2,6 C -0,7 C 0,0 km/h (0 Bft)
14.02.2023 21:48 -0,7 C -3,3 C 87 % 1033,3 hPa 0,0 l/m 0,0 km/h (0 Bft) SO 141 0 min 0,0 UV-I 0 W/m -2,6 C -0,7 C 0,0 km/h (0 Bft)
14.02.2023 21:51 -0,8 C -3,3 C 87 % 1033,3 hPa 0,0 l/m 0,0 km/h (0 Bft) SO 141 0 min 0,0 UV-I 0 W/m -2,7 C -0,8 C 0,0 km/h (0 Bft)
14.02.2023 21:54 -0,8 C -3,3 C 87 % 1033,4 hPa 0,0 l/m 0,0 km/h (0 Bft) SO 141 0 min 0,0 UV-I 0 W/m -2,7 C -0,8 C 0,0 km/h (0 Bft)
14.02.2023 21:57 -0,8 C -2,8 C 87 % 1033,3 hPa 0,0 l/m 0,0 km/h (0 Bft) SO 141 0 min 0,0 UV-I 0 W/m -2,7 C -0,8 C 0,0 km/h (0 Bft)
14.02.2023 22:00 -0,8 C -2,8 C 87 % 1033,2 hPa 0,0 l/m 0,0 km/h (0 Bft) SO 141 0 min 0,0 UV-I 0 W/m -2,7 C -0,8 C 0,0 km/h (0 Bft)
14.02.2023 22:03 -0,9 C -2,8 C 87 % 1033,2 hPa 0,0 l/m 0,0 km/h (0 Bft) SO 141 0 min 0,0 UV-I 0 W/m -2,8 C -0,9 C 0,0 km/h (0 Bft)
14.02.2023 22:06 -0,9 C -3,3 C 87 % 1033,1 hPa 0,0 l/m 0,0 km/h (0 Bft) SO 141 0 min 0,0 UV-I 0 W/m -2,8 C -0,9 C 0,0 km/h (0 Bft)
14.02.2023 22:09 -1,2 C -3,3 C 87 % 1033,2 hPa 0,0 l/m 0,0 km/h (0 Bft) SO 141 0 min 0,0 UV-I 0 W/m -3,1 C -1,2 C 0,0 km/h (0 Bft)
14.02.2023 22:12 -1,3 C -3,3 C 87 % 1033,2 hPa 0,0 l/m 0,0 km/h (0 Bft) SO 141 0 min 0,0 UV-I 0 W/m -3,2 C -1,3 C 0,0 km/h (0 Bft)
14.02.2023 22:15 -1,4 C -3,9 C 87 % 1033,1 hPa 0,0 l/m 0,0 km/h (0 Bft) SO 141 0 min 0,0 UV-I 0 W/m -3,3 C -1,4 C 0,0 km/h (0 Bft)
14.02.2023 22:18 -1,5 C -3,3 C 88 % 1033,2 hPa 0,0 l/m 0,0 km/h (0 Bft) SO 141 0 min 0,0 UV-I 0 W/m -3,2 C -1,5 C 0,0 km/h (0 Bft)
14.02.2023 22:21 -1,6 C -3,3 C 87 % 1033,1 hPa 0,0 l/m 0,0 km/h (0 Bft) SO 141 0 min 0,0 UV-I 0 W/m -3,5 C -1,6 C 0,0 km/h (0 Bft)
14.02.2023 22:24 -1,6 C -3,3 C 88 % 1033,0 hPa 0,0 l/m 0,0 km/h (0 Bft) SO 141 0 min 0,0 UV-I 0 W/m -3,3 C -1,6 C 0,0 km/h (0 Bft)
14.02.2023 22:27 -1,6 C -3,3 C 87 % 1033,1 hPa 0,0 l/m 0,0 km/h (0 Bft) SO 141 0 min 0,0 UV-I 0 W/m -3,5 C -1,6 C 0,0 km/h (0 Bft)
14.02.2023 22:30 -1,4 C -3,3 C 88 % 1033,1 hPa 0,0 l/m 0,0 km/h (0 Bft) SO 141 0 min 0,0 UV-I 0 W/m -3,1 C -1,4 C 0,0 km/h (0 Bft)
14.02.2023 22:33 -1,4 C -3,3 C 88 % 1033,1 hPa 0,0 l/m 0,0 km/h (0 Bft) SO 141 0 min 0,0 UV-I 0 W/m -3,1 C -1,4 C 0,0 km/h (0 Bft)
14.02.2023 22:36 -1,6 C -3,3 C 88 % 1032,9 hPa 0,0 l/m 0,0 km/h (0 Bft) SO 141 0 min 0,0 UV-I 0 W/m -3,3 C -1,6 C 0,0 km/h (0 Bft)
14.02.2023 22:39 -1,6 C -3,9 C 88 % 1033,1 hPa 0,0 l/m 0,0 km/h (0 Bft) SO 141 0 min 0,0 UV-I 0 W/m -3,3 C -1,6 C 0,0 km/h (0 Bft)
14.02.2023 22:42 -1,8 C -3,9 C 88 % 1033,0 hPa 0,0 l/m 0,0 km/h (0 Bft) SO 141 0 min 0,0 UV-I 0 W/m -3,5 C -1,8 C 0,0 km/h (0 Bft)
14.02.2023 22:45 -1,8 C -3,9 C 88 % 1033,0 hPa 0,0 l/m 0,0 km/h (0 Bft) SO 141 0 min 0,0 UV-I 0 W/m -3,5 C -1,8 C 0,0 km/h (0 Bft)
14.02.2023 22:48 -1,8 C -3,9 C 88 % 1032,8 hPa 0,0 l/m 0,0 km/h (0 Bft) SO 141 0 min 0,0 UV-I 0 W/m -3,5 C -1,8 C 0,0 km/h (0 Bft)
14.02.2023 22:51 -1,8 C -3,9 C 88 % 1032,8 hPa 0,0 l/m 0,0 km/h (0 Bft) SO 141 0 min 0,0 UV-I 0 W/m -3,5 C -1,8 C 0,0 km/h (0 Bft)
14.02.2023 22:54 -1,7 C -3,9 C 88 % 1032,9 hPa 0,0 l/m 0,0 km/h (0 Bft) SO 141 0 min 0,0 UV-I 0 W/m -3,4 C -1,7 C 0,0 km/h (0 Bft)
14.02.2023 22:57 -1,6 C -3,9 C 89 % 1032,8 hPa 0,0 l/m 0,0 km/h (0 Bft) SO 141 0 min 0,0 UV-I 0 W/m -3,2 C -1,6 C 0,0 km/h (0 Bft)
14.02.2023 23:00 -1,6 C -3,9 C 89 % 1032,9 hPa 0,0 l/m 0,0 km/h (0 Bft) SO 141 0 min 0,0 UV-I 0 W/m -3,2 C -1,6 C 0,0 km/h (0 Bft)
14.02.2023 23:03 -1,6 C -3,9 C 88 % 1032,9 hPa 0,0 l/m 0,0 km/h (0 Bft) SO 141 0 min 0,0 UV-I 0 W/m -3,3 C -1,6 C 0,0 km/h (0 Bft)
14.02.2023 23:06 -1,4 C -3,3 C 89 % 1032,9 hPa 0,0 l/m 0,0 km/h (0 Bft) SO 141 0 min 0,0 UV-I 0 W/m -3,0 C -1,4 C 0,0 km/h (0 Bft)
14.02.2023 23:09 -1,5 C -3,9 C 89 % 1032,9 hPa 0,0 l/m 0,0 km/h (0 Bft) SO 141 0 min 0,0 UV-I 0 W/m -3,1 C -1,5 C 0,0 km/h (0 Bft)
14.02.2023 23:12 -1,7 C -3,9 C 88 % 1032,9 hPa 0,0 l/m 0,0 km/h (0 Bft) SO 141 0 min 0,0 UV-I 0 W/m -3,4 C -1,7 C 0,0 km/h (0 Bft)
14.02.2023 23:15 -1,9 C -3,9 C 88 % 1032,6 hPa 0,0 l/m 0,0 km/h (0 Bft) SO 141 0 min 0,0 UV-I 0 W/m -3,6 C -1,9 C 0,0 km/h (0 Bft)
14.02.2023 23:18 -1,9 C -3,9 C 88 % 1032,7 hPa 0,0 l/m 0,0 km/h (0 Bft) SO 141 0 min 0,0 UV-I 0 W/m -3,6 C -1,9 C 0,0 km/h (0 Bft)
14.02.2023 23:21 -2,0 C -3,9 C 89 % 1032,7 hPa 0,0 l/m 0,0 km/h (0 Bft) SO 141 0 min 0,0 UV-I 0 W/m -3,6 C -2,0 C 0,0 km/h (0 Bft)
14.02.2023 23:24 -1,9 C -3,9 C 89 % 1032,7 hPa 0,0 l/m 0,0 km/h (0 Bft) SO 141 0 min 0,0 UV-I 0 W/m -3,5 C -1,9 C 0,0 km/h (0 Bft)
14.02.2023 23:27 -1,9 C -4,4 C 89 % 1032,7 hPa 0,0 l/m 0,0 km/h (0 Bft) SO 141 0 min 0,0 UV-I 0 W/m -3,5 C -1,9 C 0,0 km/h (0 Bft)
14.02.2023 23:30 -2,2 C -4,4 C 88 % 1032,9 hPa 0,0 l/m 0,0 km/h (0 Bft) SO 141 0 min 0,0 UV-I 0 W/m -3,9 C -2,2 C 0,0 km/h (0 Bft)
14.02.2023 23:33 -2,3 C -4,4 C 89 % 1032,9 hPa 0,0 l/m 0,0 km/h (0 Bft) SO 141 0 min 0,0 UV-I 0 W/m -3,9 C -2,3 C 0,0 km/h (0 Bft)
14.02.2023 23:36 -2,1 C -4,4 C 89 % 1032,9 hPa 0,0 l/m 0,0 km/h (0 Bft) SO 141 0 min 0,0 UV-I 0 W/m -3,7 C -2,1 C 0,0 km/h (0 Bft)
14.02.2023 23:39 -2,1 C -4,4 C 89 % 1032,9 hPa 0,0 l/m 0,0 km/h (0 Bft) SO 141 0 min 0,0 UV-I 0 W/m -3,7 C -2,1 C 0,0 km/h (0 Bft)
14.02.2023 23:42 -2,1 C -4,4 C 89 % 1032,7 hPa 0,0 l/m 0,0 km/h (0 Bft) SO 141 0 min 0,0 UV-I 0 W/m -3,7 C -2,1 C 0,0 km/h (0 Bft)
14.02.2023 23:45 -1,8 C -3,9 C 90 % 1032,8 hPa 0,0 l/m 0,0 km/h (0 Bft) SO 141 0 min 0,0 UV-I 0 W/m -3,2 C -1,8 C 0,0 km/h (0 Bft)
14.02.2023 23:48 -1,8 C -4,4 C 89 % 1032,7 hPa 0,0 l/m 0,0 km/h (0 Bft) SO 141 0 min 0,0 UV-I 0 W/m -3,4 C -1,8 C 0,0 km/h (0 Bft)
14.02.2023 23:51 -1,8 C -3,9 C 89 % 1032,7 hPa 0,0 l/m 0,0 km/h (0 Bft) SO 141 0 min 0,0 UV-I 0 W/m -3,4 C -1,8 C 0,0 km/h (0 Bft)
14.02.2023 23:54 -1,9 C -4,4 C 89 % 1032,7 hPa 0,0 l/m 0,0 km/h (0 Bft) SO 141 0 min 0,0 UV-I 0 W/m -3,5 C -1,9 C 0,0 km/h (0 Bft)
14.02.2023 23:57 -1,8 C -3,9 C 90 % 1032,7 hPa 0,0 l/m 0,0 km/h (0 Bft) SO 141 0 min 0,0 UV-I 0 W/m -3,2 C -1,8 C 0,0 km/h (0 Bft)
14.02.2023 23:58 -1,9 C -4,4 C 89 % 1032,7 hPa 0,0 l/m 0,0 km/h (0 Bft) N 0 0 min 0,0 UV-I 0 W/m -3,5 C -1,9 C 0,0 km/h (0 Bft)
14.02.2023 23:59 -1,9 C -4,4 C 89 % 1032,7 hPa 0,0 l/m 0,0 km/h (0 Bft) N 0 0 min 0,0 UV-I 0 W/m -3,5 C -1,9 C 0,0 km/h (0 Bft)
_ Min-Zeit 07:10 07:16 15:27 23:15 - 00:05 - - - - - 07:07 07:10 00:08
Minimum _ -4,4 C -6,1 C 49 % 1032,6 hPa - 0,0 km/h (0 Bft) - - - - - -5,5 C -4,4 C 0,0 km/h (0 Bft)
_ Max-Zeit 15:12 14:00 09:53 00:44 20:54 14:36 - - 10:06 12:12 13:03 13:18 15:09 14:36
Maximum _ 12,5 C 21,7 C 94 % 1037,6 hPa 0,2 l/m 11,0 km/h
S-SW (2 Bft)
- - 3 min 2,2 UV-I 460 W/m 5,2 C 12,4 C 16,1 km/h
S-SW (3 Bft)
Durchschnitt _ 2,3 C 3,4 C 80 % 1035,5 hPa #0,2 l/m 1,7 km/h (1 Bft) SO - #5:54 h 1,6 UV-I 266 W/m -1,1 C 2,3 C 2,9 km/h (1 Bft)